<?xml version="1.0" encoding="UTF-8" standalone="no" ?>
<gpx xmlns="http://www.topografix.com/GPX/1/1" xmlns:xsi="http://www.w3.org/2001/XMLSchema-instance" xsi:schemaLocation="http://www.topografix.com/GPX/1/1 http://www.topografix.com/GPX/1/1/gpx.xsd" version="1.1" creator="VisuGPX - https://www.visugpx.com">
  <metadata>
    <name>vallée du Scorff et Vallée de l'Ellé</name>
    <desc><![CDATA[3j de rando nature le long du Scorff et de l'Ellé]]></desc>
  </metadata>
  <trk>
    <name><![CDATA[Pont-Scorff - Queven - Gestel 27 km]]></name>
    <trkseg>
      <trkpt lat="47.83426" lon="-3.39105">
        <ele>-5.96</ele>
        <time>2018-05-31T07:09:31Z</time>
      </trkpt>
      <trkpt lat="47.83426" lon="-3.39105">
        <ele>-5.96</ele>
        <time>2018-05-31T07:09:32Z</time>
      </trkpt>
      <trkpt lat="47.83442" lon="-3.39106">
        <ele>-5.8</ele>
        <time>2018-05-31T07:09:53Z</time>
      </trkpt>
      <trkpt lat="47.8344" lon="-3.39098">
        <ele>-5.97</ele>
        <time>2018-05-31T07:10:06Z</time>
      </trkpt>
      <trkpt lat="47.83441" lon="-3.39102">
        <ele>-6.19</ele>
        <time>2018-05-31T07:10:22Z</time>
      </trkpt>
      <trkpt lat="47.83441" lon="-3.39112">
        <ele>-6.31</ele>
        <time>2018-05-31T07:10:36Z</time>
      </trkpt>
      <trkpt lat="47.83441" lon="-3.39112">
        <ele>-5.9</ele>
        <time>2018-05-31T07:10:49Z</time>
      </trkpt>
      <trkpt lat="47.83437" lon="-3.39113">
        <ele>-5.94</ele>
        <time>2018-05-31T07:11:15Z</time>
      </trkpt>
      <trkpt lat="47.83436" lon="-3.39115">
        <ele>-5.79</ele>
        <time>2018-05-31T07:11:39Z</time>
      </trkpt>
      <trkpt lat="47.83438" lon="-3.39119">
        <ele>-5.9</ele>
        <time>2018-05-31T07:12:02Z</time>
      </trkpt>
      <trkpt lat="47.8344" lon="-3.39121">
        <ele>-6.36</ele>
        <time>2018-05-31T07:12:21Z</time>
      </trkpt>
      <trkpt lat="47.83441" lon="-3.39122">
        <ele>-6.15</ele>
        <time>2018-05-31T07:12:40Z</time>
      </trkpt>
      <trkpt lat="47.83441" lon="-3.39121">
        <ele>-6.03</ele>
        <time>2018-05-31T07:13:10Z</time>
      </trkpt>
      <trkpt lat="47.83441" lon="-3.39123">
        <ele>-5.99</ele>
        <time>2018-05-31T07:13:40Z</time>
      </trkpt>
      <trkpt lat="47.83442" lon="-3.39125">
        <ele>-6.08</ele>
        <time>2018-05-31T07:13:49Z</time>
      </trkpt>
      <trkpt lat="47.83446" lon="-3.39128">
        <ele>-6.07</ele>
        <time>2018-05-31T07:13:53Z</time>
      </trkpt>
      <trkpt lat="47.83468" lon="-3.39129">
        <ele>-5.51</ele>
        <time>2018-05-31T07:14:11Z</time>
      </trkpt>
      <trkpt lat="47.83476" lon="-3.39152">
        <ele>-4.87</ele>
        <time>2018-05-31T07:14:26Z</time>
      </trkpt>
      <trkpt lat="47.8348" lon="-3.3917">
        <ele>-4.5</ele>
        <time>2018-05-31T07:14:36Z</time>
      </trkpt>
      <trkpt lat="47.83488" lon="-3.39202">
        <ele>-4.5</ele>
        <time>2018-05-31T07:14:53Z</time>
      </trkpt>
      <trkpt lat="47.83495" lon="-3.39233">
        <ele>-4.4</ele>
        <time>2018-05-31T07:15:10Z</time>
      </trkpt>
      <trkpt lat="47.83506" lon="-3.39256">
        <ele>-4.18</ele>
        <time>2018-05-31T07:15:25Z</time>
      </trkpt>
      <trkpt lat="47.83523" lon="-3.39289">
        <ele>-4.12</ele>
        <time>2018-05-31T07:15:46Z</time>
      </trkpt>
      <trkpt lat="47.83548" lon="-3.3932">
        <ele>-4.61</ele>
        <time>2018-05-31T07:16:10Z</time>
      </trkpt>
      <trkpt lat="47.83556" lon="-3.39346">
        <ele>-5.61</ele>
        <time>2018-05-31T07:16:27Z</time>
      </trkpt>
      <trkpt lat="47.83555" lon="-3.39358">
        <ele>-6.08</ele>
        <time>2018-05-31T07:16:34Z</time>
      </trkpt>
      <trkpt lat="47.83551" lon="-3.39385">
        <ele>-6.75</ele>
        <time>2018-05-31T07:16:48Z</time>
      </trkpt>
      <trkpt lat="47.83542" lon="-3.39432">
        <ele>-6.83</ele>
        <time>2018-05-31T07:17:11Z</time>
      </trkpt>
      <trkpt lat="47.83541" lon="-3.39435">
        <ele>-7.23</ele>
        <time>2018-05-31T07:17:23Z</time>
      </trkpt>
      <trkpt lat="47.8354" lon="-3.39435">
        <ele>-6.79</ele>
        <time>2018-05-31T07:17:43Z</time>
      </trkpt>
      <trkpt lat="47.83539" lon="-3.39439">
        <ele>-6.77</ele>
        <time>2018-05-31T07:17:47Z</time>
      </trkpt>
      <trkpt lat="47.83532" lon="-3.39471">
        <ele>-6.34</ele>
        <time>2018-05-31T07:18:05Z</time>
      </trkpt>
      <trkpt lat="47.83528" lon="-3.39475">
        <ele>-6.09</ele>
        <time>2018-05-31T07:18:12Z</time>
      </trkpt>
      <trkpt lat="47.83526" lon="-3.39474">
        <ele>-6.04</ele>
        <time>2018-05-31T07:18:14Z</time>
      </trkpt>
      <trkpt lat="47.8351" lon="-3.39477">
        <ele>-6.37</ele>
        <time>2018-05-31T07:18:29Z</time>
      </trkpt>
      <trkpt lat="47.83485" lon="-3.39467">
        <ele>-6.58</ele>
        <time>2018-05-31T07:18:47Z</time>
      </trkpt>
      <trkpt lat="47.83469" lon="-3.39453">
        <ele>-7.22</ele>
        <time>2018-05-31T07:19:02Z</time>
      </trkpt>
      <trkpt lat="47.83454" lon="-3.39441">
        <ele>-7.45</ele>
        <time>2018-05-31T07:19:17Z</time>
      </trkpt>
      <trkpt lat="47.83439" lon="-3.39422">
        <ele>-6.95</ele>
        <time>2018-05-31T07:19:31Z</time>
      </trkpt>
      <trkpt lat="47.8343" lon="-3.39399">
        <ele>-6.52</ele>
        <time>2018-05-31T07:19:43Z</time>
      </trkpt>
      <trkpt lat="47.83428" lon="-3.39374">
        <ele>-7.78</ele>
        <time>2018-05-31T07:19:59Z</time>
      </trkpt>
      <trkpt lat="47.83427" lon="-3.39345">
        <ele>-8.28</ele>
        <time>2018-05-31T07:20:17Z</time>
      </trkpt>
      <trkpt lat="47.83435" lon="-3.39331">
        <ele>-8.91</ele>
        <time>2018-05-31T07:20:33Z</time>
      </trkpt>
      <trkpt lat="47.83436" lon="-3.39329">
        <ele>-9.1</ele>
        <time>2018-05-31T07:20:35Z</time>
      </trkpt>
      <trkpt lat="47.83436" lon="-3.39323">
        <ele>-9.26</ele>
        <time>2018-05-31T07:20:39Z</time>
      </trkpt>
      <trkpt lat="47.83433" lon="-3.39318">
        <ele>-8.9</ele>
        <time>2018-05-31T07:20:45Z</time>
      </trkpt>
      <trkpt lat="47.83433" lon="-3.39312">
        <ele>-8.73</ele>
        <time>2018-05-31T07:20:49Z</time>
      </trkpt>
      <trkpt lat="47.83429" lon="-3.39282">
        <ele>-8.46</ele>
        <time>2018-05-31T07:21:06Z</time>
      </trkpt>
      <trkpt lat="47.83419" lon="-3.39254">
        <ele>-9.14</ele>
        <time>2018-05-31T07:21:23Z</time>
      </trkpt>
      <trkpt lat="47.83414" lon="-3.39247">
        <ele>-9.2</ele>
        <time>2018-05-31T07:21:28Z</time>
      </trkpt>
      <trkpt lat="47.83402" lon="-3.39227">
        <ele>-9.07</ele>
        <time>2018-05-31T07:21:43Z</time>
      </trkpt>
      <trkpt lat="47.83391" lon="-3.39204">
        <ele>-8.64</ele>
        <time>2018-05-31T07:21:57Z</time>
      </trkpt>
      <trkpt lat="47.83386" lon="-3.3919">
        <ele>-8.5</ele>
        <time>2018-05-31T07:22:10Z</time>
      </trkpt>
      <trkpt lat="47.83376" lon="-3.39171">
        <ele>-8.44</ele>
        <time>2018-05-31T07:22:25Z</time>
      </trkpt>
      <trkpt lat="47.83375" lon="-3.39165">
        <ele>-8.29</ele>
        <time>2018-05-31T07:22:30Z</time>
      </trkpt>
      <trkpt lat="47.83374" lon="-3.39155">
        <ele>-8.72</ele>
        <time>2018-05-31T07:22:35Z</time>
      </trkpt>
      <trkpt lat="47.83366" lon="-3.39135">
        <ele>-9.2</ele>
        <time>2018-05-31T07:22:49Z</time>
      </trkpt>
      <trkpt lat="47.83353" lon="-3.39122">
        <ele>-7.91</ele>
        <time>2018-05-31T07:23:05Z</time>
      </trkpt>
      <trkpt lat="47.83347" lon="-3.39104">
        <ele>-6.59</ele>
        <time>2018-05-31T07:23:23Z</time>
      </trkpt>
      <trkpt lat="47.83343" lon="-3.391">
        <ele>-6.11</ele>
        <time>2018-05-31T07:23:46Z</time>
      </trkpt>
      <trkpt lat="47.83344" lon="-3.39093">
        <ele>-6</ele>
        <time>2018-05-31T07:24:15Z</time>
      </trkpt>
      <trkpt lat="47.83338" lon="-3.39077">
        <ele>-5.64</ele>
        <time>2018-05-31T07:24:33Z</time>
      </trkpt>
      <trkpt lat="47.83333" lon="-3.39062">
        <ele>-6.7</ele>
        <time>2018-05-31T07:24:45Z</time>
      </trkpt>
      <trkpt lat="47.83325" lon="-3.39034">
        <ele>-8.14</ele>
        <time>2018-05-31T07:24:59Z</time>
      </trkpt>
      <trkpt lat="47.83317" lon="-3.38995">
        <ele>-8.52</ele>
        <time>2018-05-31T07:25:15Z</time>
      </trkpt>
      <trkpt lat="47.83307" lon="-3.38975">
        <ele>-8.2</ele>
        <time>2018-05-31T07:25:25Z</time>
      </trkpt>
      <trkpt lat="47.83298" lon="-3.38961">
        <ele>-6.31</ele>
        <time>2018-05-31T07:25:40Z</time>
      </trkpt>
      <trkpt lat="47.83295" lon="-3.38956">
        <ele>-6.03</ele>
        <time>2018-05-31T07:25:46Z</time>
      </trkpt>
      <trkpt lat="47.83292" lon="-3.38948">
        <ele>-5.92</ele>
        <time>2018-05-31T07:25:51Z</time>
      </trkpt>
      <trkpt lat="47.8328" lon="-3.38922">
        <ele>-7.64</ele>
        <time>2018-05-31T07:26:04Z</time>
      </trkpt>
      <trkpt lat="47.83273" lon="-3.3891">
        <ele>-8.17</ele>
        <time>2018-05-31T07:26:11Z</time>
      </trkpt>
      <trkpt lat="47.83268" lon="-3.38901">
        <ele>-8.36</ele>
        <time>2018-05-31T07:26:15Z</time>
      </trkpt>
      <trkpt lat="47.83253" lon="-3.3888">
        <ele>-8.17</ele>
        <time>2018-05-31T07:26:28Z</time>
      </trkpt>
      <trkpt lat="47.83239" lon="-3.38858">
        <ele>-7.16</ele>
        <time>2018-05-31T07:26:42Z</time>
      </trkpt>
      <trkpt lat="47.83228" lon="-3.38835">
        <ele>-7.29</ele>
        <time>2018-05-31T07:26:56Z</time>
      </trkpt>
      <trkpt lat="47.83214" lon="-3.3881">
        <ele>-7.45</ele>
        <time>2018-05-31T07:27:10Z</time>
      </trkpt>
      <trkpt lat="47.83201" lon="-3.38788">
        <ele>-7.85</ele>
        <time>2018-05-31T07:27:23Z</time>
      </trkpt>
      <trkpt lat="47.83177" lon="-3.38772">
        <ele>-8.08</ele>
        <time>2018-05-31T07:27:41Z</time>
      </trkpt>
      <trkpt lat="47.83166" lon="-3.3877">
        <ele>-8.21</ele>
        <time>2018-05-31T07:27:51Z</time>
      </trkpt>
      <trkpt lat="47.83141" lon="-3.38777">
        <ele>-8.3</ele>
        <time>2018-05-31T07:28:09Z</time>
      </trkpt>
      <trkpt lat="47.83136" lon="-3.3878">
        <ele>-8.26</ele>
        <time>2018-05-31T07:28:13Z</time>
      </trkpt>
      <trkpt lat="47.83132" lon="-3.38783">
        <ele>-8.29</ele>
        <time>2018-05-31T07:28:15Z</time>
      </trkpt>
      <trkpt lat="47.83117" lon="-3.38803">
        <ele>-8.15</ele>
        <time>2018-05-31T07:28:29Z</time>
      </trkpt>
      <trkpt lat="47.83105" lon="-3.38826">
        <ele>-7.74</ele>
        <time>2018-05-31T07:28:45Z</time>
      </trkpt>
      <trkpt lat="47.831" lon="-3.38837">
        <ele>-7.84</ele>
        <time>2018-05-31T07:28:49Z</time>
      </trkpt>
      <trkpt lat="47.83089" lon="-3.38877">
        <ele>-8.48</ele>
        <time>2018-05-31T07:29:05Z</time>
      </trkpt>
      <trkpt lat="47.83084" lon="-3.38883">
        <ele>-8.44</ele>
        <time>2018-05-31T07:29:09Z</time>
      </trkpt>
      <trkpt lat="47.83079" lon="-3.38903">
        <ele>-6.54</ele>
        <time>2018-05-31T07:29:16Z</time>
      </trkpt>
      <trkpt lat="47.83074" lon="-3.38911">
        <ele>-5.3</ele>
        <time>2018-05-31T07:29:19Z</time>
      </trkpt>
      <trkpt lat="47.83073" lon="-3.38916">
        <ele>-4.1</ele>
        <time>2018-05-31T07:29:21Z</time>
      </trkpt>
      <trkpt lat="47.83065" lon="-3.38923">
        <ele>-0.34</ele>
        <time>2018-05-31T07:29:26Z</time>
      </trkpt>
      <trkpt lat="47.83043" lon="-3.38938">
        <ele>2.79</ele>
        <time>2018-05-31T07:29:38Z</time>
      </trkpt>
      <trkpt lat="47.83038" lon="-3.38938">
        <ele>3.09</ele>
        <time>2018-05-31T07:29:41Z</time>
      </trkpt>
      <trkpt lat="47.83028" lon="-3.38945">
        <ele>3.46</ele>
        <time>2018-05-31T07:29:46Z</time>
      </trkpt>
      <trkpt lat="47.83006" lon="-3.38952">
        <ele>4.57</ele>
        <time>2018-05-31T07:29:59Z</time>
      </trkpt>
      <trkpt lat="47.82985" lon="-3.38959">
        <ele>4.86</ele>
        <time>2018-05-31T07:30:14Z</time>
      </trkpt>
      <trkpt lat="47.82959" lon="-3.38956">
        <ele>2.28</ele>
        <time>2018-05-31T07:30:31Z</time>
      </trkpt>
      <trkpt lat="47.82951" lon="-3.3896">
        <ele>1.81</ele>
        <time>2018-05-31T07:30:36Z</time>
      </trkpt>
      <trkpt lat="47.82941" lon="-3.38962">
        <ele>1.54</ele>
        <time>2018-05-31T07:30:59Z</time>
      </trkpt>
      <trkpt lat="47.82933" lon="-3.38957">
        <ele>1.43</ele>
        <time>2018-05-31T07:31:10Z</time>
      </trkpt>
      <trkpt lat="47.82929" lon="-3.38954">
        <ele>1.4</ele>
        <time>2018-05-31T07:31:13Z</time>
      </trkpt>
      <trkpt lat="47.82927" lon="-3.38953">
        <ele>1.39</ele>
        <time>2018-05-31T07:31:15Z</time>
      </trkpt>
      <trkpt lat="47.82924" lon="-3.38953">
        <ele>1.2</ele>
        <time>2018-05-31T07:31:41Z</time>
      </trkpt>
      <trkpt lat="47.82918" lon="-3.38955">
        <ele>1.24</ele>
        <time>2018-05-31T07:31:48Z</time>
      </trkpt>
      <trkpt lat="47.82907" lon="-3.38956">
        <ele>1.69</ele>
        <time>2018-05-31T07:32:03Z</time>
      </trkpt>
      <trkpt lat="47.82898" lon="-3.38962">
        <ele>1.42</ele>
        <time>2018-05-31T07:32:22Z</time>
      </trkpt>
      <trkpt lat="47.82879" lon="-3.3897">
        <ele>-0.08</ele>
        <time>2018-05-31T07:32:38Z</time>
      </trkpt>
      <trkpt lat="47.82863" lon="-3.3897">
        <ele>-3.42</ele>
        <time>2018-05-31T07:32:50Z</time>
      </trkpt>
      <trkpt lat="47.82856" lon="-3.3897">
        <ele>-5.31</ele>
        <time>2018-05-31T07:32:55Z</time>
      </trkpt>
      <trkpt lat="47.82846" lon="-3.38971">
        <ele>-7.26</ele>
        <time>2018-05-31T07:33:03Z</time>
      </trkpt>
      <trkpt lat="47.82818" lon="-3.38982">
        <ele>-9.07</ele>
        <time>2018-05-31T07:33:16Z</time>
      </trkpt>
      <trkpt lat="47.8279" lon="-3.38993">
        <ele>-9.21</ele>
        <time>2018-05-31T07:33:31Z</time>
      </trkpt>
      <trkpt lat="47.82765" lon="-3.38998">
        <ele>-8.9</ele>
        <time>2018-05-31T07:33:45Z</time>
      </trkpt>
      <trkpt lat="47.8275" lon="-3.3901">
        <ele>-8.66</ele>
        <time>2018-05-31T07:33:57Z</time>
      </trkpt>
      <trkpt lat="47.82743" lon="-3.39016">
        <ele>-8.38</ele>
        <time>2018-05-31T07:34:05Z</time>
      </trkpt>
      <trkpt lat="47.82738" lon="-3.39023">
        <ele>-8.32</ele>
        <time>2018-05-31T07:34:13Z</time>
      </trkpt>
      <trkpt lat="47.82734" lon="-3.39026">
        <ele>-8.12</ele>
        <time>2018-05-31T07:34:17Z</time>
      </trkpt>
      <trkpt lat="47.82718" lon="-3.39033">
        <ele>-6.23</ele>
        <time>2018-05-31T07:34:33Z</time>
      </trkpt>
      <trkpt lat="47.82692" lon="-3.39051">
        <ele>-5.5</ele>
        <time>2018-05-31T07:34:50Z</time>
      </trkpt>
      <trkpt lat="47.82672" lon="-3.39058">
        <ele>-6.36</ele>
        <time>2018-05-31T07:35:04Z</time>
      </trkpt>
      <trkpt lat="47.82655" lon="-3.39073">
        <ele>-6.14</ele>
        <time>2018-05-31T07:35:19Z</time>
      </trkpt>
      <trkpt lat="47.82639" lon="-3.39118">
        <ele>-3.72</ele>
        <time>2018-05-31T07:35:38Z</time>
      </trkpt>
      <trkpt lat="47.82638" lon="-3.39121">
        <ele>-3.53</ele>
        <time>2018-05-31T07:35:39Z</time>
      </trkpt>
      <trkpt lat="47.82634" lon="-3.39132">
        <ele>-2.92</ele>
        <time>2018-05-31T07:35:44Z</time>
      </trkpt>
      <trkpt lat="47.82627" lon="-3.39147">
        <ele>-2.5</ele>
        <time>2018-05-31T07:35:58Z</time>
      </trkpt>
      <trkpt lat="47.82627" lon="-3.39151">
        <ele>-2.63</ele>
        <time>2018-05-31T07:36:04Z</time>
      </trkpt>
      <trkpt lat="47.8262" lon="-3.39171">
        <ele>-3.06</ele>
        <time>2018-05-31T07:36:35Z</time>
      </trkpt>
      <trkpt lat="47.82619" lon="-3.39171">
        <ele>-3.08</ele>
        <time>2018-05-31T07:36:36Z</time>
      </trkpt>
      <trkpt lat="47.82616" lon="-3.39171">
        <ele>-3.17</ele>
        <time>2018-05-31T07:36:39Z</time>
      </trkpt>
      <trkpt lat="47.82602" lon="-3.39166">
        <ele>-3.76</ele>
        <time>2018-05-31T07:36:52Z</time>
      </trkpt>
      <trkpt lat="47.82597" lon="-3.39167">
        <ele>-3.96</ele>
        <time>2018-05-31T07:36:55Z</time>
      </trkpt>
      <trkpt lat="47.82594" lon="-3.39168">
        <ele>-4.17</ele>
        <time>2018-05-31T07:36:57Z</time>
      </trkpt>
      <trkpt lat="47.82574" lon="-3.39147">
        <ele>-6.11</ele>
        <time>2018-05-31T07:37:13Z</time>
      </trkpt>
      <trkpt lat="47.82573" lon="-3.3912">
        <ele>-6.97</ele>
        <time>2018-05-31T07:37:28Z</time>
      </trkpt>
      <trkpt lat="47.82569" lon="-3.39095">
        <ele>-7.8</ele>
        <time>2018-05-31T07:37:42Z</time>
      </trkpt>
      <trkpt lat="47.82568" lon="-3.39089">
        <ele>-7.82</ele>
        <time>2018-05-31T07:37:46Z</time>
      </trkpt>
      <trkpt lat="47.82554" lon="-3.39067">
        <ele>-8.65</ele>
        <time>2018-05-31T07:38:01Z</time>
      </trkpt>
      <trkpt lat="47.82539" lon="-3.39078">
        <ele>-8.55</ele>
        <time>2018-05-31T07:38:11Z</time>
      </trkpt>
      <trkpt lat="47.82533" lon="-3.3908">
        <ele>-8.47</ele>
        <time>2018-05-31T07:38:15Z</time>
      </trkpt>
      <trkpt lat="47.82521" lon="-3.39074">
        <ele>-8.62</ele>
        <time>2018-05-31T07:38:25Z</time>
      </trkpt>
      <trkpt lat="47.82517" lon="-3.39073">
        <ele>-8.71</ele>
        <time>2018-05-31T07:38:36Z</time>
      </trkpt>
      <trkpt lat="47.82517" lon="-3.39068">
        <ele>-8.73</ele>
        <time>2018-05-31T07:38:48Z</time>
      </trkpt>
      <trkpt lat="47.82516" lon="-3.3907">
        <ele>-8.72</ele>
        <time>2018-05-31T07:38:51Z</time>
      </trkpt>
      <trkpt lat="47.82495" lon="-3.39098">
        <ele>-8.71</ele>
        <time>2018-05-31T07:39:11Z</time>
      </trkpt>
      <trkpt lat="47.8248" lon="-3.39113">
        <ele>-8.82</ele>
        <time>2018-05-31T07:39:23Z</time>
      </trkpt>
      <trkpt lat="47.8248" lon="-3.39145">
        <ele>-8.51</ele>
        <time>2018-05-31T07:39:39Z</time>
      </trkpt>
      <trkpt lat="47.82483" lon="-3.3916">
        <ele>-7.65</ele>
        <time>2018-05-31T07:39:47Z</time>
      </trkpt>
      <trkpt lat="47.82484" lon="-3.39167">
        <ele>-7.22</ele>
        <time>2018-05-31T07:39:51Z</time>
      </trkpt>
      <trkpt lat="47.82466" lon="-3.39176">
        <ele>-6.99</ele>
        <time>2018-05-31T07:40:07Z</time>
      </trkpt>
      <trkpt lat="47.82431" lon="-3.39189">
        <ele>-7.24</ele>
        <time>2018-05-31T07:40:26Z</time>
      </trkpt>
      <trkpt lat="47.82404" lon="-3.39194">
        <ele>-7.61</ele>
        <time>2018-05-31T07:40:43Z</time>
      </trkpt>
      <trkpt lat="47.82389" lon="-3.39195">
        <ele>-8.29</ele>
        <time>2018-05-31T07:40:53Z</time>
      </trkpt>
      <trkpt lat="47.82374" lon="-3.39193">
        <ele>-8.66</ele>
        <time>2018-05-31T07:41:03Z</time>
      </trkpt>
      <trkpt lat="47.82352" lon="-3.39195">
        <ele>-8.99</ele>
        <time>2018-05-31T07:41:17Z</time>
      </trkpt>
      <trkpt lat="47.82328" lon="-3.39199">
        <ele>-9.34</ele>
        <time>2018-05-31T07:41:31Z</time>
      </trkpt>
      <trkpt lat="47.82311" lon="-3.392">
        <ele>-9.47</ele>
        <time>2018-05-31T07:41:45Z</time>
      </trkpt>
      <trkpt lat="47.82306" lon="-3.39198">
        <ele>-9.62</ele>
        <time>2018-05-31T07:41:59Z</time>
      </trkpt>
      <trkpt lat="47.82304" lon="-3.39196">
        <ele>-9.69</ele>
        <time>2018-05-31T07:42:31Z</time>
      </trkpt>
      <trkpt lat="47.82302" lon="-3.39196">
        <ele>-9.38</ele>
        <time>2018-05-31T07:43:01Z</time>
      </trkpt>
      <trkpt lat="47.82289" lon="-3.39196">
        <ele>-9.54</ele>
        <time>2018-05-31T07:43:23Z</time>
      </trkpt>
      <trkpt lat="47.82276" lon="-3.39197">
        <ele>-9.75</ele>
        <time>2018-05-31T07:43:40Z</time>
      </trkpt>
      <trkpt lat="47.82258" lon="-3.39207">
        <ele>-9.75</ele>
        <time>2018-05-31T07:43:59Z</time>
      </trkpt>
      <trkpt lat="47.82252" lon="-3.39213">
        <ele>-9.87</ele>
        <time>2018-05-31T07:44:06Z</time>
      </trkpt>
      <trkpt lat="47.82244" lon="-3.39228">
        <ele>-9.79</ele>
        <time>2018-05-31T07:44:19Z</time>
      </trkpt>
      <trkpt lat="47.82241" lon="-3.39236">
        <ele>-9.41</ele>
        <time>2018-05-31T07:44:40Z</time>
      </trkpt>
      <trkpt lat="47.82239" lon="-3.39238">
        <ele>-8.83</ele>
        <time>2018-05-31T07:45:07Z</time>
      </trkpt>
      <trkpt lat="47.82235" lon="-3.39244">
        <ele>-8.97</ele>
        <time>2018-05-31T07:45:33Z</time>
      </trkpt>
      <trkpt lat="47.82231" lon="-3.39264">
        <ele>-8.8</ele>
        <time>2018-05-31T07:45:51Z</time>
      </trkpt>
      <trkpt lat="47.8223" lon="-3.39269">
        <ele>-8.78</ele>
        <time>2018-05-31T07:45:54Z</time>
      </trkpt>
      <trkpt lat="47.82233" lon="-3.39295">
        <ele>-8.38</ele>
        <time>2018-05-31T07:46:07Z</time>
      </trkpt>
      <trkpt lat="47.82232" lon="-3.39321">
        <ele>-7.75</ele>
        <time>2018-05-31T07:46:19Z</time>
      </trkpt>
      <trkpt lat="47.82231" lon="-3.39335">
        <ele>-7.45</ele>
        <time>2018-05-31T07:46:29Z</time>
      </trkpt>
      <trkpt lat="47.82232" lon="-3.3936">
        <ele>4.3125</ele>
      </trkpt>
      <trkpt lat="47.82212" lon="-3.39355">
        <ele>5.30078125</ele>
      </trkpt>
      <trkpt lat="47.82175" lon="-3.39351">
        <ele>8.1328125</ele>
      </trkpt>
      <trkpt lat="47.82163" lon="-3.39346">
        <ele>-0.93</ele>
        <time>2018-05-31T07:47:14Z</time>
      </trkpt>
      <trkpt lat="47.82137" lon="-3.39347">
        <ele>0.97</ele>
        <time>2018-05-31T07:47:31Z</time>
      </trkpt>
      <trkpt lat="47.82106" lon="-3.39351">
        <ele>4.07</ele>
        <time>2018-05-31T07:47:50Z</time>
      </trkpt>
      <trkpt lat="47.82083" lon="-3.39353">
        <ele>6.9</ele>
        <time>2018-05-31T07:48:05Z</time>
      </trkpt>
      <trkpt lat="47.82054" lon="-3.39356">
        <ele>9.99</ele>
        <time>2018-05-31T07:48:24Z</time>
      </trkpt>
      <trkpt lat="47.8203" lon="-3.39359">
        <ele>12.72</ele>
        <time>2018-05-31T07:48:40Z</time>
      </trkpt>
      <trkpt lat="47.82011" lon="-3.39364">
        <ele>14.66</ele>
        <time>2018-05-31T07:48:53Z</time>
      </trkpt>
      <trkpt lat="47.82008" lon="-3.39363">
        <ele>15.13</ele>
        <time>2018-05-31T07:48:56Z</time>
      </trkpt>
      <trkpt lat="47.82007" lon="-3.39358">
        <ele>15.91</ele>
        <time>2018-05-31T07:49:00Z</time>
      </trkpt>
      <trkpt lat="47.82006" lon="-3.39355">
        <ele>16.26</ele>
        <time>2018-05-31T07:49:03Z</time>
      </trkpt>
      <trkpt lat="47.82016" lon="-3.39327">
        <ele>16.74</ele>
        <time>2018-05-31T07:49:21Z</time>
      </trkpt>
      <trkpt lat="47.82017" lon="-3.39312">
        <ele>16.13</ele>
        <time>2018-05-31T07:49:28Z</time>
      </trkpt>
      <trkpt lat="47.82021" lon="-3.39288">
        <ele>15.57</ele>
        <time>2018-05-31T07:49:42Z</time>
      </trkpt>
      <trkpt lat="47.82026" lon="-3.39255">
        <ele>12.96</ele>
        <time>2018-05-31T07:50:00Z</time>
      </trkpt>
      <trkpt lat="47.82012" lon="-3.39222">
        <ele>14.79</ele>
        <time>2018-05-31T07:50:13Z</time>
      </trkpt>
      <trkpt lat="47.82008" lon="-3.39217">
        <ele>15.93</ele>
        <time>2018-05-31T07:50:18Z</time>
      </trkpt>
      <trkpt lat="47.81996" lon="-3.39208">
        <ele>19.2</ele>
        <time>2018-05-31T07:50:30Z</time>
      </trkpt>
      <trkpt lat="47.81988" lon="-3.39203">
        <ele>22.34</ele>
        <time>2018-05-31T07:50:38Z</time>
      </trkpt>
      <trkpt lat="47.81983" lon="-3.39205">
        <ele>25.35</ele>
        <time>2018-05-31T07:50:46Z</time>
      </trkpt>
      <trkpt lat="47.81972" lon="-3.39201">
        <ele>28.73</ele>
        <time>2018-05-31T07:50:57Z</time>
      </trkpt>
      <trkpt lat="47.81957" lon="-3.39212">
        <ele>30.8</ele>
        <time>2018-05-31T07:51:13Z</time>
      </trkpt>
      <trkpt lat="47.81943" lon="-3.39214">
        <ele>31.32</ele>
        <time>2018-05-31T07:51:26Z</time>
      </trkpt>
      <trkpt lat="47.81935" lon="-3.39222">
        <ele>31.81</ele>
        <time>2018-05-31T07:51:43Z</time>
      </trkpt>
      <trkpt lat="47.81932" lon="-3.39228">
        <ele>31.25</ele>
        <time>2018-05-31T07:52:01Z</time>
      </trkpt>
      <trkpt lat="47.81933" lon="-3.39233">
        <ele>31.08</ele>
        <time>2018-05-31T07:52:14Z</time>
      </trkpt>
      <trkpt lat="47.8193" lon="-3.39246">
        <ele>31.26</ele>
        <time>2018-05-31T07:52:31Z</time>
      </trkpt>
      <trkpt lat="47.81925" lon="-3.39245">
        <ele>31.5</ele>
        <time>2018-05-31T07:52:45Z</time>
      </trkpt>
      <trkpt lat="47.81926" lon="-3.39238">
        <ele>31.38</ele>
        <time>2018-05-31T07:53:01Z</time>
      </trkpt>
      <trkpt lat="47.81932" lon="-3.39244">
        <ele>32.05</ele>
        <time>2018-05-31T07:53:20Z</time>
      </trkpt>
      <trkpt lat="47.81923" lon="-3.39256">
        <ele>32.23</ele>
        <time>2018-05-31T07:53:38Z</time>
      </trkpt>
      <trkpt lat="47.81915" lon="-3.39255">
        <ele>32.08</ele>
        <time>2018-05-31T07:53:47Z</time>
      </trkpt>
      <trkpt lat="47.81913" lon="-3.3925">
        <ele>32.04</ele>
        <time>2018-05-31T07:53:49Z</time>
      </trkpt>
      <trkpt lat="47.81904" lon="-3.39216">
        <ele>31.1</ele>
        <time>2018-05-31T07:54:07Z</time>
      </trkpt>
      <trkpt lat="47.81884" lon="-3.39191">
        <ele>29.42</ele>
        <time>2018-05-31T07:54:23Z</time>
      </trkpt>
      <trkpt lat="47.8186" lon="-3.39173">
        <ele>27.82</ele>
        <time>2018-05-31T07:54:39Z</time>
      </trkpt>
      <trkpt lat="47.81828" lon="-3.39153">
        <ele>25.79</ele>
        <time>2018-05-31T07:55:01Z</time>
      </trkpt>
      <trkpt lat="47.81803" lon="-3.39157">
        <ele>24.52</ele>
        <time>2018-05-31T07:55:18Z</time>
      </trkpt>
      <trkpt lat="47.81787" lon="-3.39185">
        <ele>25.7</ele>
        <time>2018-05-31T07:55:35Z</time>
      </trkpt>
      <trkpt lat="47.8178" lon="-3.39221">
        <ele>26.75</ele>
        <time>2018-05-31T07:55:50Z</time>
      </trkpt>
      <trkpt lat="47.81772" lon="-3.39257">
        <ele>28.19</ele>
        <time>2018-05-31T07:56:06Z</time>
      </trkpt>
      <trkpt lat="47.8176" lon="-3.39301">
        <ele>29.9</ele>
        <time>2018-05-31T07:56:25Z</time>
      </trkpt>
      <trkpt lat="47.8174" lon="-3.39375">
        <ele>31.61</ele>
        <time>2018-05-31T07:56:40Z</time>
      </trkpt>
      <trkpt lat="47.81715" lon="-3.39472">
        <ele>33.11</ele>
        <time>2018-05-31T07:56:59Z</time>
      </trkpt>
      <trkpt lat="47.81697" lon="-3.39556">
        <ele>33.37</ele>
        <time>2018-05-31T07:57:15Z</time>
      </trkpt>
      <trkpt lat="47.81693" lon="-3.39617">
        <ele>32.23</ele>
        <time>2018-05-31T07:57:28Z</time>
      </trkpt>
      <trkpt lat="47.81688" lon="-3.39638">
        <ele>31.52</ele>
        <time>2018-05-31T07:57:32Z</time>
      </trkpt>
      <trkpt lat="47.81686" lon="-3.39643">
        <ele>31.29</ele>
        <time>2018-05-31T07:57:33Z</time>
      </trkpt>
      <trkpt lat="47.81682" lon="-3.39648">
        <ele>31.06</ele>
        <time>2018-05-31T07:57:34Z</time>
      </trkpt>
      <trkpt lat="47.81678" lon="-3.39651">
        <ele>30.85</ele>
        <time>2018-05-31T07:57:35Z</time>
      </trkpt>
      <trkpt lat="47.81674" lon="-3.39654">
        <ele>30.68</ele>
        <time>2018-05-31T07:57:36Z</time>
      </trkpt>
      <trkpt lat="47.81668" lon="-3.39655">
        <ele>30.53</ele>
        <time>2018-05-31T07:57:37Z</time>
      </trkpt>
      <trkpt lat="47.81663" lon="-3.39656">
        <ele>30.39</ele>
        <time>2018-05-31T07:57:38Z</time>
      </trkpt>
      <trkpt lat="47.81635" lon="-3.39658">
        <ele>29.98</ele>
        <time>2018-05-31T07:57:44Z</time>
      </trkpt>
      <trkpt lat="47.8163" lon="-3.39657">
        <ele>30.01</ele>
        <time>2018-05-31T07:57:45Z</time>
      </trkpt>
      <trkpt lat="47.81616" lon="-3.39652">
        <ele>30.11</ele>
        <time>2018-05-31T07:57:48Z</time>
      </trkpt>
      <trkpt lat="47.81611" lon="-3.39649">
        <ele>30.13</ele>
        <time>2018-05-31T07:57:49Z</time>
      </trkpt>
      <trkpt lat="47.81585" lon="-3.39634">
        <ele>30.12</ele>
        <time>2018-05-31T07:57:54Z</time>
      </trkpt>
      <trkpt lat="47.81505" lon="-3.39593">
        <ele>31.79</ele>
        <time>2018-05-31T07:58:09Z</time>
      </trkpt>
      <trkpt lat="47.815" lon="-3.3959">
        <ele>31.92</ele>
        <time>2018-05-31T07:58:10Z</time>
      </trkpt>
      <trkpt lat="47.81448" lon="-3.39565">
        <ele>34.01</ele>
        <time>2018-05-31T07:58:23Z</time>
      </trkpt>
      <trkpt lat="47.81426" lon="-3.39569">
        <ele>36.12</ele>
        <time>2018-05-31T07:58:34Z</time>
      </trkpt>
      <trkpt lat="47.81413" lon="-3.39608">
        <ele>36.19</ele>
        <time>2018-05-31T07:58:51Z</time>
      </trkpt>
      <trkpt lat="47.81401" lon="-3.39648">
        <ele>35.11</ele>
        <time>2018-05-31T07:59:07Z</time>
      </trkpt>
      <trkpt lat="47.81389" lon="-3.3969">
        <ele>33.69</ele>
        <time>2018-05-31T07:59:25Z</time>
      </trkpt>
      <trkpt lat="47.81374" lon="-3.39738">
        <ele>32.54</ele>
        <time>2018-05-31T07:59:45Z</time>
      </trkpt>
      <trkpt lat="47.81361" lon="-3.39787">
        <ele>31.66</ele>
        <time>2018-05-31T08:00:07Z</time>
      </trkpt>
      <trkpt lat="47.81352" lon="-3.39837">
        <ele>30.89</ele>
        <time>2018-05-31T08:00:27Z</time>
      </trkpt>
      <trkpt lat="47.81343" lon="-3.39881">
        <ele>29.72</ele>
        <time>2018-05-31T08:00:46Z</time>
      </trkpt>
      <trkpt lat="47.81334" lon="-3.39919">
        <ele>29.84</ele>
        <time>2018-05-31T08:01:04Z</time>
      </trkpt>
      <trkpt lat="47.81329" lon="-3.39958">
        <ele>30.88</ele>
        <time>2018-05-31T08:01:22Z</time>
      </trkpt>
      <trkpt lat="47.81321" lon="-3.40002">
        <ele>32</ele>
        <time>2018-05-31T08:01:41Z</time>
      </trkpt>
      <trkpt lat="47.81314" lon="-3.40047">
        <ele>32.73</ele>
        <time>2018-05-31T08:02:00Z</time>
      </trkpt>
      <trkpt lat="47.81308" lon="-3.40089">
        <ele>33.47</ele>
        <time>2018-05-31T08:02:18Z</time>
      </trkpt>
      <trkpt lat="47.81304" lon="-3.40132">
        <ele>32.88</ele>
        <time>2018-05-31T08:02:36Z</time>
      </trkpt>
      <trkpt lat="47.81301" lon="-3.40174">
        <ele>31.88</ele>
        <time>2018-05-31T08:02:53Z</time>
      </trkpt>
      <trkpt lat="47.81295" lon="-3.40191">
        <ele>31.36</ele>
        <time>2018-05-31T08:03:03Z</time>
      </trkpt>
      <trkpt lat="47.81293" lon="-3.40191">
        <ele>31.31</ele>
        <time>2018-05-31T08:03:04Z</time>
      </trkpt>
      <trkpt lat="47.81275" lon="-3.40188">
        <ele>29.44</ele>
        <time>2018-05-31T08:03:20Z</time>
      </trkpt>
      <trkpt lat="47.81264" lon="-3.40186">
        <ele>28.04</ele>
        <time>2018-05-31T08:03:30Z</time>
      </trkpt>
      <trkpt lat="47.81262" lon="-3.40185">
        <ele>27.89</ele>
        <time>2018-05-31T08:03:31Z</time>
      </trkpt>
      <trkpt lat="47.81259" lon="-3.40183">
        <ele>27.55</ele>
        <time>2018-05-31T08:03:33Z</time>
      </trkpt>
      <trkpt lat="47.81252" lon="-3.4018">
        <ele>26.64</ele>
        <time>2018-05-31T08:03:38Z</time>
      </trkpt>
      <trkpt lat="47.81251" lon="-3.40179">
        <ele>26.47</ele>
        <time>2018-05-31T08:03:39Z</time>
      </trkpt>
      <trkpt lat="47.81232" lon="-3.40172">
        <ele>23.44</ele>
        <time>2018-05-31T08:03:53Z</time>
      </trkpt>
      <trkpt lat="47.81221" lon="-3.40168">
        <ele>20.56</ele>
        <time>2018-05-31T08:04:01Z</time>
      </trkpt>
      <trkpt lat="47.81202" lon="-3.40164">
        <ele>17.35</ele>
        <time>2018-05-31T08:04:12Z</time>
      </trkpt>
      <trkpt lat="47.81189" lon="-3.40169">
        <ele>13.83</ele>
        <time>2018-05-31T08:04:22Z</time>
      </trkpt>
      <trkpt lat="47.81175" lon="-3.40176">
        <ele>10.54</ele>
        <time>2018-05-31T08:04:32Z</time>
      </trkpt>
      <trkpt lat="47.81157" lon="-3.40175">
        <ele>7.19</ele>
        <time>2018-05-31T08:04:42Z</time>
      </trkpt>
      <trkpt lat="47.81152" lon="-3.40175">
        <ele>6.13</ele>
        <time>2018-05-31T08:04:45Z</time>
      </trkpt>
      <trkpt lat="47.81135" lon="-3.40177">
        <ele>2.92</ele>
        <time>2018-05-31T08:04:55Z</time>
      </trkpt>
      <trkpt lat="47.81122" lon="-3.40187">
        <ele>-0.11</ele>
        <time>2018-05-31T08:05:06Z</time>
      </trkpt>
      <trkpt lat="47.8112" lon="-3.40191">
        <ele>-0.55</ele>
        <time>2018-05-31T08:05:08Z</time>
      </trkpt>
      <trkpt lat="47.81118" lon="-3.40193">
        <ele>-0.8</ele>
        <time>2018-05-31T08:05:09Z</time>
      </trkpt>
      <trkpt lat="47.81112" lon="-3.40198">
        <ele>-1.67</ele>
        <time>2018-05-31T08:05:13Z</time>
      </trkpt>
      <trkpt lat="47.81091" lon="-3.40221">
        <ele>-4.39</ele>
        <time>2018-05-31T08:05:31Z</time>
      </trkpt>
      <trkpt lat="47.81066" lon="-3.40248">
        <ele>-5.73</ele>
        <time>2018-05-31T08:05:46Z</time>
      </trkpt>
      <trkpt lat="47.8106" lon="-3.40258">
        <ele>-5.98</ele>
        <time>2018-05-31T08:05:50Z</time>
      </trkpt>
      <trkpt lat="47.8106" lon="-3.40261">
        <ele>-6.05</ele>
        <time>2018-05-31T08:05:51Z</time>
      </trkpt>
      <trkpt lat="47.8106" lon="-3.40264">
        <ele>-6.13</ele>
        <time>2018-05-31T08:05:52Z</time>
      </trkpt>
      <trkpt lat="47.8106" lon="-3.40267">
        <ele>-6.22</ele>
        <time>2018-05-31T08:05:53Z</time>
      </trkpt>
      <trkpt lat="47.81059" lon="-3.40269">
        <ele>-6.29</ele>
        <time>2018-05-31T08:05:54Z</time>
      </trkpt>
      <trkpt lat="47.81059" lon="-3.40271">
        <ele>-6.36</ele>
        <time>2018-05-31T08:05:55Z</time>
      </trkpt>
      <trkpt lat="47.81058" lon="-3.40273">
        <ele>-6.41</ele>
        <time>2018-05-31T08:05:56Z</time>
      </trkpt>
      <trkpt lat="47.81057" lon="-3.40275">
        <ele>-6.44</ele>
        <time>2018-05-31T08:05:57Z</time>
      </trkpt>
      <trkpt lat="47.81051" lon="-3.40293">
        <ele>-6.17</ele>
        <time>2018-05-31T08:06:08Z</time>
      </trkpt>
      <trkpt lat="47.81043" lon="-3.40306">
        <ele>-5.62</ele>
        <time>2018-05-31T08:06:16Z</time>
      </trkpt>
      <trkpt lat="47.81034" lon="-3.4032">
        <ele>-5.48</ele>
        <time>2018-05-31T08:06:24Z</time>
      </trkpt>
      <trkpt lat="47.81019" lon="-3.40332">
        <ele>-5.23</ele>
        <time>2018-05-31T08:06:36Z</time>
      </trkpt>
      <trkpt lat="47.81011" lon="-3.40336">
        <ele>-4.97</ele>
        <time>2018-05-31T08:06:42Z</time>
      </trkpt>
      <trkpt lat="47.80988" lon="-3.40345">
        <ele>-5.05</ele>
        <time>2018-05-31T08:06:56Z</time>
      </trkpt>
      <trkpt lat="47.80968" lon="-3.40366">
        <ele>-3.74</ele>
        <time>2018-05-31T08:07:11Z</time>
      </trkpt>
      <trkpt lat="47.80954" lon="-3.40384">
        <ele>-3.68</ele>
        <time>2018-05-31T08:07:21Z</time>
      </trkpt>
      <trkpt lat="47.80936" lon="-3.4042">
        <ele>-3.48</ele>
        <time>2018-05-31T08:07:37Z</time>
      </trkpt>
      <trkpt lat="47.80918" lon="-3.40445">
        <ele>-4.13</ele>
        <time>2018-05-31T08:07:52Z</time>
      </trkpt>
      <trkpt lat="47.80916" lon="-3.40449">
        <ele>-4.29</ele>
        <time>2018-05-31T08:07:54Z</time>
      </trkpt>
      <trkpt lat="47.80895" lon="-3.40462">
        <ele>-5.76</ele>
        <time>2018-05-31T08:08:09Z</time>
      </trkpt>
      <trkpt lat="47.80891" lon="-3.40458">
        <ele>-6</ele>
        <time>2018-05-31T08:08:12Z</time>
      </trkpt>
      <trkpt lat="47.80864" lon="-3.40456">
        <ele>-6.74</ele>
        <time>2018-05-31T08:08:28Z</time>
      </trkpt>
      <trkpt lat="47.80839" lon="-3.40457">
        <ele>-6.83</ele>
        <time>2018-05-31T08:08:43Z</time>
      </trkpt>
      <trkpt lat="47.80817" lon="-3.40454">
        <ele>-6.69</ele>
        <time>2018-05-31T08:08:57Z</time>
      </trkpt>
      <trkpt lat="47.80816" lon="-3.40453">
        <ele>-6.58</ele>
        <time>2018-05-31T08:08:59Z</time>
      </trkpt>
      <trkpt lat="47.80821" lon="-3.40428">
        <ele>-6.89</ele>
        <time>2018-05-31T08:09:13Z</time>
      </trkpt>
      <trkpt lat="47.80824" lon="-3.40407">
        <ele>-7.44</ele>
        <time>2018-05-31T08:09:26Z</time>
      </trkpt>
      <trkpt lat="47.80823" lon="-3.404">
        <ele>-7.55</ele>
        <time>2018-05-31T08:09:28Z</time>
      </trkpt>
      <trkpt lat="47.80825" lon="-3.40369">
        <ele>-8.12</ele>
        <time>2018-05-31T08:09:40Z</time>
      </trkpt>
      <trkpt lat="47.8083" lon="-3.40355">
        <ele>-8.67</ele>
        <time>2018-05-31T08:09:50Z</time>
      </trkpt>
      <trkpt lat="47.80833" lon="-3.40324">
        <ele>-9.02</ele>
        <time>2018-05-31T08:10:04Z</time>
      </trkpt>
      <trkpt lat="47.80832" lon="-3.40297">
        <ele>-9.2</ele>
        <time>2018-05-31T08:10:14Z</time>
      </trkpt>
      <trkpt lat="47.80835" lon="-3.40293">
        <ele>-9.19</ele>
        <time>2018-05-31T08:10:16Z</time>
      </trkpt>
      <trkpt lat="47.80837" lon="-3.40284">
        <ele>-9.19</ele>
        <time>2018-05-31T08:10:20Z</time>
      </trkpt>
      <trkpt lat="47.8084" lon="-3.40269">
        <ele>-9.12</ele>
        <time>2018-05-31T08:10:25Z</time>
      </trkpt>
      <trkpt lat="47.80844" lon="-3.40244">
        <ele>-9.08</ele>
        <time>2018-05-31T08:10:33Z</time>
      </trkpt>
      <trkpt lat="47.80847" lon="-3.40235">
        <ele>-9.12</ele>
        <time>2018-05-31T08:10:37Z</time>
      </trkpt>
      <trkpt lat="47.80848" lon="-3.40194">
        <ele>-9.26</ele>
        <time>2018-05-31T08:10:54Z</time>
      </trkpt>
      <trkpt lat="47.80853" lon="-3.40182">
        <ele>-9.35</ele>
        <time>2018-05-31T08:10:59Z</time>
      </trkpt>
      <trkpt lat="47.80857" lon="-3.40177">
        <ele>-9.34</ele>
        <time>2018-05-31T08:11:01Z</time>
      </trkpt>
      <trkpt lat="47.80868" lon="-3.40151">
        <ele>-9.2</ele>
        <time>2018-05-31T08:11:11Z</time>
      </trkpt>
      <trkpt lat="47.80871" lon="-3.4014">
        <ele>-9.22</ele>
        <time>2018-05-31T08:11:15Z</time>
      </trkpt>
      <trkpt lat="47.80876" lon="-3.40123">
        <ele>-9.23</ele>
        <time>2018-05-31T08:11:22Z</time>
      </trkpt>
      <trkpt lat="47.8088" lon="-3.40107">
        <ele>-9.15</ele>
        <time>2018-05-31T08:11:29Z</time>
      </trkpt>
      <trkpt lat="47.80884" lon="-3.401">
        <ele>-8.97</ele>
        <time>2018-05-31T08:11:33Z</time>
      </trkpt>
      <trkpt lat="47.80886" lon="-3.40091">
        <ele>-8.85</ele>
        <time>2018-05-31T08:11:38Z</time>
      </trkpt>
      <trkpt lat="47.80887" lon="-3.40067">
        <ele>-8.21</ele>
        <time>2018-05-31T08:11:49Z</time>
      </trkpt>
      <trkpt lat="47.80887" lon="-3.40053">
        <ele>-7.84</ele>
        <time>2018-05-31T08:11:55Z</time>
      </trkpt>
      <trkpt lat="47.80887" lon="-3.40044">
        <ele>-7.71</ele>
        <time>2018-05-31T08:11:59Z</time>
      </trkpt>
      <trkpt lat="47.80885" lon="-3.40022">
        <ele>-7.03</ele>
        <time>2018-05-31T08:12:12Z</time>
      </trkpt>
      <trkpt lat="47.80886" lon="-3.40012">
        <ele>-4.96</ele>
        <time>2018-05-31T08:12:19Z</time>
      </trkpt>
      <trkpt lat="47.8088" lon="-3.39993">
        <ele>-2.05</ele>
        <time>2018-05-31T08:12:37Z</time>
      </trkpt>
      <trkpt lat="47.8087" lon="-3.39986">
        <ele>0.06</ele>
        <time>2018-05-31T08:12:53Z</time>
      </trkpt>
      <trkpt lat="47.80863" lon="-3.39983">
        <ele>0.25</ele>
        <time>2018-05-31T08:12:59Z</time>
      </trkpt>
      <trkpt lat="47.80853" lon="-3.39979">
        <ele>0.12</ele>
        <time>2018-05-31T08:13:07Z</time>
      </trkpt>
      <trkpt lat="47.80836" lon="-3.39972">
        <ele>0.31</ele>
        <time>2018-05-31T08:13:20Z</time>
      </trkpt>
      <trkpt lat="47.80832" lon="-3.3997">
        <ele>0.27</ele>
        <time>2018-05-31T08:13:23Z</time>
      </trkpt>
      <trkpt lat="47.80813" lon="-3.39948">
        <ele>-1.51</ele>
        <time>2018-05-31T08:13:37Z</time>
      </trkpt>
      <trkpt lat="47.80797" lon="-3.39941">
        <ele>-2.05</ele>
        <time>2018-05-31T08:13:48Z</time>
      </trkpt>
      <trkpt lat="47.80787" lon="-3.39936">
        <ele>-2.45</ele>
        <time>2018-05-31T08:13:57Z</time>
      </trkpt>
      <trkpt lat="47.80774" lon="-3.39928">
        <ele>-2.78</ele>
        <time>2018-05-31T08:14:03Z</time>
      </trkpt>
      <trkpt lat="47.80759" lon="-3.39917">
        <ele>-2.8</ele>
        <time>2018-05-31T08:14:15Z</time>
      </trkpt>
      <trkpt lat="47.80749" lon="-3.39901">
        <ele>-2.92</ele>
        <time>2018-05-31T08:14:40Z</time>
      </trkpt>
      <trkpt lat="47.80744" lon="-3.39892">
        <ele>-2.84</ele>
        <time>2018-05-31T08:14:49Z</time>
      </trkpt>
      <trkpt lat="47.80739" lon="-3.39878">
        <ele>-3.2</ele>
        <time>2018-05-31T08:15:14Z</time>
      </trkpt>
      <trkpt lat="47.80735" lon="-3.39871">
        <ele>-3.18</ele>
        <time>2018-05-31T08:15:36Z</time>
      </trkpt>
      <trkpt lat="47.80731" lon="-3.39867">
        <ele>-3.47</ele>
        <time>2018-05-31T08:15:59Z</time>
      </trkpt>
      <trkpt lat="47.8073" lon="-3.39866">
        <ele>-3.5</ele>
        <time>2018-05-31T08:16:01Z</time>
      </trkpt>
      <trkpt lat="47.80727" lon="-3.39864">
        <ele>-3.5</ele>
        <time>2018-05-31T08:16:25Z</time>
      </trkpt>
      <trkpt lat="47.80726" lon="-3.39868">
        <ele>-3.35</ele>
        <time>2018-05-31T08:16:49Z</time>
      </trkpt>
      <trkpt lat="47.80726" lon="-3.39868">
        <ele>-3.54</ele>
        <time>2018-05-31T08:17:05Z</time>
      </trkpt>
      <trkpt lat="47.80721" lon="-3.39863">
        <ele>-3.3</ele>
        <time>2018-05-31T08:17:32Z</time>
      </trkpt>
      <trkpt lat="47.80726" lon="-3.3987">
        <ele>-3.04</ele>
        <time>2018-05-31T08:17:56Z</time>
      </trkpt>
      <trkpt lat="47.80729" lon="-3.39875">
        <ele>-2.98</ele>
        <time>2018-05-31T08:18:20Z</time>
      </trkpt>
      <trkpt lat="47.8073" lon="-3.39874">
        <ele>-2.65</ele>
        <time>2018-05-31T08:18:46Z</time>
      </trkpt>
      <trkpt lat="47.8073" lon="-3.39869">
        <ele>-2.82</ele>
        <time>2018-05-31T08:19:04Z</time>
      </trkpt>
      <trkpt lat="47.8073" lon="-3.39866">
        <ele>-3.13</ele>
        <time>2018-05-31T08:19:33Z</time>
      </trkpt>
      <trkpt lat="47.80727" lon="-3.39868">
        <ele>-3.2</ele>
        <time>2018-05-31T08:20:01Z</time>
      </trkpt>
      <trkpt lat="47.80727" lon="-3.39867">
        <ele>-3.06</ele>
        <time>2018-05-31T08:20:22Z</time>
      </trkpt>
      <trkpt lat="47.8073" lon="-3.39868">
        <ele>-3.33</ele>
        <time>2018-05-31T08:20:51Z</time>
      </trkpt>
      <trkpt lat="47.80726" lon="-3.3987">
        <ele>-3.47</ele>
        <time>2018-05-31T08:21:21Z</time>
      </trkpt>
      <trkpt lat="47.80727" lon="-3.39869">
        <ele>-3.4</ele>
        <time>2018-05-31T08:21:49Z</time>
      </trkpt>
      <trkpt lat="47.80728" lon="-3.39869">
        <ele>-3.75</ele>
        <time>2018-05-31T08:22:14Z</time>
      </trkpt>
      <trkpt lat="47.8073" lon="-3.39871">
        <ele>-3.76</ele>
        <time>2018-05-31T08:22:42Z</time>
      </trkpt>
      <trkpt lat="47.80735" lon="-3.39873">
        <ele>-3.73</ele>
        <time>2018-05-31T08:23:00Z</time>
      </trkpt>
      <trkpt lat="47.80734" lon="-3.39872">
        <ele>-3.48</ele>
        <time>2018-05-31T08:23:10Z</time>
      </trkpt>
      <trkpt lat="47.80731" lon="-3.39869">
        <ele>-3.43</ele>
        <time>2018-05-31T08:23:39Z</time>
      </trkpt>
      <trkpt lat="47.80726" lon="-3.39869">
        <ele>-3.34</ele>
        <time>2018-05-31T08:24:09Z</time>
      </trkpt>
      <trkpt lat="47.80726" lon="-3.39868">
        <ele>-3.63</ele>
        <time>2018-05-31T08:24:17Z</time>
      </trkpt>
      <trkpt lat="47.80724" lon="-3.39864">
        <ele>-3.6</ele>
        <time>2018-05-31T08:24:20Z</time>
      </trkpt>
      <trkpt lat="47.80721" lon="-3.39845">
        <ele>-2.98</ele>
        <time>2018-05-31T08:24:42Z</time>
      </trkpt>
      <trkpt lat="47.80716" lon="-3.39826">
        <ele>-2.36</ele>
        <time>2018-05-31T08:25:00Z</time>
      </trkpt>
      <trkpt lat="47.80716" lon="-3.39825">
        <ele>-2.35</ele>
        <time>2018-05-31T08:25:01Z</time>
      </trkpt>
      <trkpt lat="47.80712" lon="-3.39815">
        <ele>-0.6</ele>
        <time>2018-05-31T08:25:28Z</time>
      </trkpt>
      <trkpt lat="47.80712" lon="-3.39799">
        <ele>0.04</ele>
        <time>2018-05-31T08:25:55Z</time>
      </trkpt>
      <trkpt lat="47.80692" lon="-3.39791">
        <ele>1.54</ele>
        <time>2018-05-31T08:26:16Z</time>
      </trkpt>
      <trkpt lat="47.80688" lon="-3.3979">
        <ele>1.78</ele>
        <time>2018-05-31T08:26:19Z</time>
      </trkpt>
      <trkpt lat="47.80663" lon="-3.39768">
        <ele>1.13</ele>
        <time>2018-05-31T08:26:34Z</time>
      </trkpt>
      <trkpt lat="47.80647" lon="-3.39736">
        <ele>3.78</ele>
        <time>2018-05-31T08:26:50Z</time>
      </trkpt>
      <trkpt lat="47.80644" lon="-3.39717">
        <ele>6.13</ele>
        <time>2018-05-31T08:27:04Z</time>
      </trkpt>
      <trkpt lat="47.80646" lon="-3.39709">
        <ele>6.36</ele>
        <time>2018-05-31T08:27:09Z</time>
      </trkpt>
      <trkpt lat="47.8065" lon="-3.39686">
        <ele>5.9</ele>
        <time>2018-05-31T08:27:24Z</time>
      </trkpt>
      <trkpt lat="47.80653" lon="-3.39672">
        <ele>5.81</ele>
        <time>2018-05-31T08:27:43Z</time>
      </trkpt>
      <trkpt lat="47.80653" lon="-3.39663">
        <ele>5.71</ele>
        <time>2018-05-31T08:27:47Z</time>
      </trkpt>
      <trkpt lat="47.80658" lon="-3.39645">
        <ele>5.59</ele>
        <time>2018-05-31T08:27:58Z</time>
      </trkpt>
      <trkpt lat="47.80659" lon="-3.39641">
        <ele>5.66</ele>
        <time>2018-05-31T08:28:00Z</time>
      </trkpt>
      <trkpt lat="47.80658" lon="-3.39623">
        <ele>6.06</ele>
        <time>2018-05-31T08:28:07Z</time>
      </trkpt>
      <trkpt lat="47.80661" lon="-3.39605">
        <ele>6.45</ele>
        <time>2018-05-31T08:28:15Z</time>
      </trkpt>
      <trkpt lat="47.80658" lon="-3.39582">
        <ele>6.47</ele>
        <time>2018-05-31T08:28:28Z</time>
      </trkpt>
      <trkpt lat="47.80657" lon="-3.39572">
        <ele>6.17</ele>
        <time>2018-05-31T08:28:34Z</time>
      </trkpt>
      <trkpt lat="47.80651" lon="-3.39545">
        <ele>6.47</ele>
        <time>2018-05-31T08:28:50Z</time>
      </trkpt>
      <trkpt lat="47.80637" lon="-3.39544">
        <ele>6.13</ele>
        <time>2018-05-31T08:29:09Z</time>
      </trkpt>
      <trkpt lat="47.8062" lon="-3.39547">
        <ele>6.5</ele>
        <time>2018-05-31T08:29:30Z</time>
      </trkpt>
      <trkpt lat="47.80598" lon="-3.39537">
        <ele>6.2</ele>
        <time>2018-05-31T08:29:50Z</time>
      </trkpt>
      <trkpt lat="47.8059" lon="-3.39533">
        <ele>5.96</ele>
        <time>2018-05-31T08:29:55Z</time>
      </trkpt>
      <trkpt lat="47.80584" lon="-3.39527">
        <ele>5.83</ele>
        <time>2018-05-31T08:29:59Z</time>
      </trkpt>
      <trkpt lat="47.80572" lon="-3.39521">
        <ele>5.77</ele>
        <time>2018-05-31T08:30:06Z</time>
      </trkpt>
      <trkpt lat="47.80569" lon="-3.3952">
        <ele>5.88</ele>
        <time>2018-05-31T08:30:08Z</time>
      </trkpt>
      <trkpt lat="47.80563" lon="-3.39515">
        <ele>6.07</ele>
        <time>2018-05-31T08:30:12Z</time>
      </trkpt>
      <trkpt lat="47.80552" lon="-3.39514">
        <ele>6.25</ele>
        <time>2018-05-31T08:30:17Z</time>
      </trkpt>
      <trkpt lat="47.80536" lon="-3.39515">
        <ele>5.96</ele>
        <time>2018-05-31T08:30:28Z</time>
      </trkpt>
      <trkpt lat="47.80529" lon="-3.39515">
        <ele>5.67</ele>
        <time>2018-05-31T08:30:34Z</time>
      </trkpt>
      <trkpt lat="47.80517" lon="-3.39515">
        <ele>5.65</ele>
        <time>2018-05-31T08:30:40Z</time>
      </trkpt>
      <trkpt lat="47.80512" lon="-3.39515">
        <ele>5.68</ele>
        <time>2018-05-31T08:30:42Z</time>
      </trkpt>
      <trkpt lat="47.80489" lon="-3.395">
        <ele>6.75</ele>
        <time>2018-05-31T08:31:02Z</time>
      </trkpt>
      <trkpt lat="47.80472" lon="-3.39485">
        <ele>5.79</ele>
        <time>2018-05-31T08:31:20Z</time>
      </trkpt>
      <trkpt lat="47.80456" lon="-3.39467">
        <ele>5.61</ele>
        <time>2018-05-31T08:31:31Z</time>
      </trkpt>
      <trkpt lat="47.80452" lon="-3.39463">
        <ele>5.44</ele>
        <time>2018-05-31T08:31:34Z</time>
      </trkpt>
      <trkpt lat="47.8044" lon="-3.39455">
        <ele>5.37</ele>
        <time>2018-05-31T08:31:43Z</time>
      </trkpt>
      <trkpt lat="47.80416" lon="-3.39432">
        <ele>5.85</ele>
        <time>2018-05-31T08:32:04Z</time>
      </trkpt>
      <trkpt lat="47.8039" lon="-3.39397">
        <ele>5.98</ele>
        <time>2018-05-31T08:32:22Z</time>
      </trkpt>
      <trkpt lat="47.80386" lon="-3.3939">
        <ele>5.89</ele>
        <time>2018-05-31T08:32:24Z</time>
      </trkpt>
      <trkpt lat="47.80358" lon="-3.39353">
        <ele>5.95</ele>
        <time>2018-05-31T08:32:43Z</time>
      </trkpt>
      <trkpt lat="47.8035" lon="-3.39313">
        <ele>5.91</ele>
        <time>2018-05-31T08:33:00Z</time>
      </trkpt>
      <trkpt lat="47.80334" lon="-3.39241">
        <ele>4.48</ele>
        <time>2018-05-31T08:33:16Z</time>
      </trkpt>
      <trkpt lat="47.80341" lon="-3.39205">
        <ele>5.58</ele>
        <time>2018-05-31T08:33:33Z</time>
      </trkpt>
      <trkpt lat="47.80353" lon="-3.3918">
        <ele>6.39</ele>
        <time>2018-05-31T08:33:50Z</time>
      </trkpt>
      <trkpt lat="47.8035" lon="-3.39141">
        <ele>6.82</ele>
        <time>2018-05-31T08:34:09Z</time>
      </trkpt>
      <trkpt lat="47.80357" lon="-3.3912">
        <ele>8.28</ele>
        <time>2018-05-31T08:34:26Z</time>
      </trkpt>
      <trkpt lat="47.80363" lon="-3.39095">
        <ele>9.66</ele>
        <time>2018-05-31T08:34:47Z</time>
      </trkpt>
      <trkpt lat="47.80367" lon="-3.39052">
        <ele>10.3</ele>
        <time>2018-05-31T08:35:07Z</time>
      </trkpt>
      <trkpt lat="47.8038" lon="-3.39025">
        <ele>9.61</ele>
        <time>2018-05-31T08:35:25Z</time>
      </trkpt>
      <trkpt lat="47.80384" lon="-3.39003">
        <ele>6.45</ele>
        <time>2018-05-31T08:35:39Z</time>
      </trkpt>
      <trkpt lat="47.80387" lon="-3.38985">
        <ele>3.39</ele>
        <time>2018-05-31T08:35:51Z</time>
      </trkpt>
      <trkpt lat="47.80388" lon="-3.38968">
        <ele>0.12</ele>
        <time>2018-05-31T08:36:02Z</time>
      </trkpt>
      <trkpt lat="47.80373" lon="-3.38935">
        <ele>-2.5</ele>
        <time>2018-05-31T08:36:21Z</time>
      </trkpt>
      <trkpt lat="47.80367" lon="-3.3892">
        <ele>-1.51</ele>
        <time>2018-05-31T08:36:40Z</time>
      </trkpt>
      <trkpt lat="47.80364" lon="-3.38911">
        <ele>-1.58</ele>
        <time>2018-05-31T08:36:52Z</time>
      </trkpt>
      <trkpt lat="47.80365" lon="-3.38898">
        <ele>-1.75</ele>
        <time>2018-05-31T08:37:20Z</time>
      </trkpt>
      <trkpt lat="47.80362" lon="-3.38902">
        <ele>-2.82</ele>
        <time>2018-05-31T08:37:43Z</time>
      </trkpt>
      <trkpt lat="47.80353" lon="-3.38906">
        <ele>-2.68</ele>
        <time>2018-05-31T08:38:29Z</time>
      </trkpt>
      <trkpt lat="47.80355" lon="-3.38909">
        <ele>-1.87</ele>
        <time>2018-05-31T08:38:57Z</time>
      </trkpt>
      <trkpt lat="47.80356" lon="-3.38908">
        <ele>-1.59</ele>
        <time>2018-05-31T08:39:23Z</time>
      </trkpt>
      <trkpt lat="47.80354" lon="-3.38906">
        <ele>-1.19</ele>
        <time>2018-05-31T08:39:48Z</time>
      </trkpt>
      <trkpt lat="47.80353" lon="-3.38901">
        <ele>-1.39</ele>
        <time>2018-05-31T08:40:12Z</time>
      </trkpt>
      <trkpt lat="47.8035" lon="-3.38898">
        <ele>-1.97</ele>
        <time>2018-05-31T08:40:31Z</time>
      </trkpt>
      <trkpt lat="47.80336" lon="-3.38903">
        <ele>0.43</ele>
        <time>2018-05-31T08:40:51Z</time>
      </trkpt>
      <trkpt lat="47.80325" lon="-3.38888">
        <ele>-0.68</ele>
        <time>2018-05-31T08:41:08Z</time>
      </trkpt>
      <trkpt lat="47.80318" lon="-3.38879">
        <ele>-2.7</ele>
        <time>2018-05-31T08:41:19Z</time>
      </trkpt>
      <trkpt lat="47.80303" lon="-3.38866">
        <ele>-2.36</ele>
        <time>2018-05-31T08:41:34Z</time>
      </trkpt>
      <trkpt lat="47.80297" lon="-3.38859">
        <ele>-2.46</ele>
        <time>2018-05-31T08:41:38Z</time>
      </trkpt>
      <trkpt lat="47.8029" lon="-3.38847">
        <ele>-3.49</ele>
        <time>2018-05-31T08:41:48Z</time>
      </trkpt>
      <trkpt lat="47.80277" lon="-3.38835">
        <ele>-5.29</ele>
        <time>2018-05-31T08:42:03Z</time>
      </trkpt>
      <trkpt lat="47.80248" lon="-3.38821">
        <ele>-5.59</ele>
        <time>2018-05-31T08:42:23Z</time>
      </trkpt>
      <trkpt lat="47.80218" lon="-3.38838">
        <ele>-6.68</ele>
        <time>2018-05-31T08:42:48Z</time>
      </trkpt>
      <trkpt lat="47.80198" lon="-3.38858">
        <ele>-8.98</ele>
        <time>2018-05-31T08:43:06Z</time>
      </trkpt>
      <trkpt lat="47.80176" lon="-3.38897">
        <ele>-10.35</ele>
        <time>2018-05-31T08:43:21Z</time>
      </trkpt>
      <trkpt lat="47.80157" lon="-3.38924">
        <ele>-9.57</ele>
        <time>2018-05-31T08:43:36Z</time>
      </trkpt>
      <trkpt lat="47.80154" lon="-3.38937">
        <ele>-8.89</ele>
        <time>2018-05-31T08:43:43Z</time>
      </trkpt>
      <trkpt lat="47.80146" lon="-3.38945">
        <ele>-8.47</ele>
        <time>2018-05-31T08:43:48Z</time>
      </trkpt>
      <trkpt lat="47.8012" lon="-3.38957">
        <ele>-7.61</ele>
        <time>2018-05-31T08:44:05Z</time>
      </trkpt>
      <trkpt lat="47.80089" lon="-3.38971">
        <ele>-8.32</ele>
        <time>2018-05-31T08:44:25Z</time>
      </trkpt>
      <trkpt lat="47.80068" lon="-3.38971">
        <ele>-9.38</ele>
        <time>2018-05-31T08:44:41Z</time>
      </trkpt>
      <trkpt lat="47.80056" lon="-3.38954">
        <ele>-10.42</ele>
        <time>2018-05-31T08:44:55Z</time>
      </trkpt>
      <trkpt lat="47.80046" lon="-3.38937">
        <ele>-10.13</ele>
        <time>2018-05-31T08:45:05Z</time>
      </trkpt>
      <trkpt lat="47.80034" lon="-3.3894">
        <ele>-8.95</ele>
        <time>2018-05-31T08:45:13Z</time>
      </trkpt>
      <trkpt lat="47.80029" lon="-3.38941">
        <ele>-8.34</ele>
        <time>2018-05-31T08:45:16Z</time>
      </trkpt>
      <trkpt lat="47.80018" lon="-3.38952">
        <ele>-4.81</ele>
        <time>2018-05-31T08:45:29Z</time>
      </trkpt>
      <trkpt lat="47.80013" lon="-3.38956">
        <ele>-3.45</ele>
        <time>2018-05-31T08:45:34Z</time>
      </trkpt>
      <trkpt lat="47.79993" lon="-3.38975">
        <ele>-0.93</ele>
        <time>2018-05-31T08:45:48Z</time>
      </trkpt>
      <trkpt lat="47.79988" lon="-3.38978">
        <ele>-0.56</ele>
        <time>2018-05-31T08:45:51Z</time>
      </trkpt>
      <trkpt lat="47.79983" lon="-3.38983">
        <ele>0.52</ele>
        <time>2018-05-31T08:45:56Z</time>
      </trkpt>
      <trkpt lat="47.7998" lon="-3.38984">
        <ele>0.93</ele>
        <time>2018-05-31T08:45:58Z</time>
      </trkpt>
      <trkpt lat="47.79977" lon="-3.38989">
        <ele>1.44</ele>
        <time>2018-05-31T08:46:01Z</time>
      </trkpt>
      <trkpt lat="47.79969" lon="-3.38994">
        <ele>2.77</ele>
        <time>2018-05-31T08:46:08Z</time>
      </trkpt>
      <trkpt lat="47.79952" lon="-3.38999">
        <ele>4.98</ele>
        <time>2018-05-31T08:46:23Z</time>
      </trkpt>
      <trkpt lat="47.79937" lon="-3.39011">
        <ele>6.02</ele>
        <time>2018-05-31T08:46:35Z</time>
      </trkpt>
      <trkpt lat="47.79919" lon="-3.39025">
        <ele>6.66</ele>
        <time>2018-05-31T08:46:48Z</time>
      </trkpt>
      <trkpt lat="47.79901" lon="-3.3902">
        <ele>5.55</ele>
        <time>2018-05-31T08:47:04Z</time>
      </trkpt>
      <trkpt lat="47.79895" lon="-3.39014">
        <ele>5.28</ele>
        <time>2018-05-31T08:47:09Z</time>
      </trkpt>
      <trkpt lat="47.79862" lon="-3.38994">
        <ele>5.09</ele>
        <time>2018-05-31T08:47:31Z</time>
      </trkpt>
      <trkpt lat="47.7986" lon="-3.38993">
        <ele>5.05</ele>
        <time>2018-05-31T08:47:32Z</time>
      </trkpt>
      <trkpt lat="47.79842" lon="-3.38989">
        <ele>4.04</ele>
        <time>2018-05-31T08:47:44Z</time>
      </trkpt>
      <trkpt lat="47.7983" lon="-3.38986">
        <ele>3.89</ele>
        <time>2018-05-31T08:47:54Z</time>
      </trkpt>
      <trkpt lat="47.7982" lon="-3.38983">
        <ele>4.13</ele>
        <time>2018-05-31T08:48:00Z</time>
      </trkpt>
      <trkpt lat="47.79801" lon="-3.38959">
        <ele>4.98</ele>
        <time>2018-05-31T08:48:14Z</time>
      </trkpt>
      <trkpt lat="47.79781" lon="-3.38945">
        <ele>5.03</ele>
        <time>2018-05-31T08:48:29Z</time>
      </trkpt>
      <trkpt lat="47.7978" lon="-3.38944">
        <ele>5.16</ele>
        <time>2018-05-31T08:48:30Z</time>
      </trkpt>
      <trkpt lat="47.79769" lon="-3.3894">
        <ele>5.64</ele>
        <time>2018-05-31T08:48:34Z</time>
      </trkpt>
      <trkpt lat="47.79754" lon="-3.38928">
        <ele>6.62</ele>
        <time>2018-05-31T08:48:44Z</time>
      </trkpt>
      <trkpt lat="47.79735" lon="-3.38917">
        <ele>5.06</ele>
        <time>2018-05-31T08:49:01Z</time>
      </trkpt>
      <trkpt lat="47.7973" lon="-3.38915">
        <ele>5.02</ele>
        <time>2018-05-31T08:49:04Z</time>
      </trkpt>
      <trkpt lat="47.79709" lon="-3.38895">
        <ele>5.16</ele>
        <time>2018-05-31T08:49:18Z</time>
      </trkpt>
      <trkpt lat="47.79695" lon="-3.38865">
        <ele>5.4</ele>
        <time>2018-05-31T08:49:33Z</time>
      </trkpt>
      <trkpt lat="47.79685" lon="-3.3884">
        <ele>5.59</ele>
        <time>2018-05-31T08:49:43Z</time>
      </trkpt>
      <trkpt lat="47.79681" lon="-3.38831">
        <ele>5.52</ele>
        <time>2018-05-31T08:49:46Z</time>
      </trkpt>
      <trkpt lat="47.79669" lon="-3.38809">
        <ele>5.43</ele>
        <time>2018-05-31T08:49:56Z</time>
      </trkpt>
      <trkpt lat="47.79655" lon="-3.38787">
        <ele>5</ele>
        <time>2018-05-31T08:50:09Z</time>
      </trkpt>
      <trkpt lat="47.79639" lon="-3.38753">
        <ele>4.63</ele>
        <time>2018-05-31T08:50:24Z</time>
      </trkpt>
      <trkpt lat="47.79635" lon="-3.38745">
        <ele>4.65</ele>
        <time>2018-05-31T08:50:27Z</time>
      </trkpt>
      <trkpt lat="47.79624" lon="-3.38715">
        <ele>5.37</ele>
        <time>2018-05-31T08:50:40Z</time>
      </trkpt>
      <trkpt lat="47.79621" lon="-3.38705">
        <ele>5.38</ele>
        <time>2018-05-31T08:50:45Z</time>
      </trkpt>
      <trkpt lat="47.79619" lon="-3.38699">
        <ele>5.3</ele>
        <time>2018-05-31T08:50:48Z</time>
      </trkpt>
      <trkpt lat="47.79617" lon="-3.38691">
        <ele>5.16</ele>
        <time>2018-05-31T08:50:52Z</time>
      </trkpt>
      <trkpt lat="47.79614" lon="-3.38686">
        <ele>5.09</ele>
        <time>2018-05-31T08:50:55Z</time>
      </trkpt>
      <trkpt lat="47.79596" lon="-3.38665">
        <ele>4.69</ele>
        <time>2018-05-31T08:51:09Z</time>
      </trkpt>
      <trkpt lat="47.79585" lon="-3.38636">
        <ele>4.65</ele>
        <time>2018-05-31T08:51:23Z</time>
      </trkpt>
      <trkpt lat="47.79578" lon="-3.38611">
        <ele>5.06</ele>
        <time>2018-05-31T08:51:36Z</time>
      </trkpt>
      <trkpt lat="47.79577" lon="-3.38608">
        <ele>5.23</ele>
        <time>2018-05-31T08:51:38Z</time>
      </trkpt>
      <trkpt lat="47.79563" lon="-3.38585">
        <ele>5.26</ele>
        <time>2018-05-31T08:51:51Z</time>
      </trkpt>
      <trkpt lat="47.79556" lon="-3.38576">
        <ele>4.73</ele>
        <time>2018-05-31T08:51:59Z</time>
      </trkpt>
      <trkpt lat="47.79547" lon="-3.38565">
        <ele>4.71</ele>
        <time>2018-05-31T08:52:07Z</time>
      </trkpt>
      <trkpt lat="47.79531" lon="-3.38549">
        <ele>5.18</ele>
        <time>2018-05-31T08:52:24Z</time>
      </trkpt>
      <trkpt lat="47.79521" lon="-3.38537">
        <ele>4.88</ele>
        <time>2018-05-31T08:52:32Z</time>
      </trkpt>
      <trkpt lat="47.79498" lon="-3.38498">
        <ele>4.73</ele>
        <time>2018-05-31T08:52:51Z</time>
      </trkpt>
      <trkpt lat="47.79474" lon="-3.38472">
        <ele>5.3</ele>
        <time>2018-05-31T08:53:08Z</time>
      </trkpt>
      <trkpt lat="47.79467" lon="-3.38461">
        <ele>5.43</ele>
        <time>2018-05-31T08:53:15Z</time>
      </trkpt>
      <trkpt lat="47.79453" lon="-3.38435">
        <ele>5.37</ele>
        <time>2018-05-31T08:53:29Z</time>
      </trkpt>
      <trkpt lat="47.7944" lon="-3.38414">
        <ele>4.94</ele>
        <time>2018-05-31T08:53:43Z</time>
      </trkpt>
      <trkpt lat="47.79432" lon="-3.38401">
        <ele>4.87</ele>
        <time>2018-05-31T08:53:51Z</time>
      </trkpt>
      <trkpt lat="47.79429" lon="-3.38397">
        <ele>4.87</ele>
        <time>2018-05-31T08:53:54Z</time>
      </trkpt>
      <trkpt lat="47.79414" lon="-3.38368">
        <ele>4.63</ele>
        <time>2018-05-31T08:54:07Z</time>
      </trkpt>
      <trkpt lat="47.7941" lon="-3.38363">
        <ele>4.74</ele>
        <time>2018-05-31T08:54:11Z</time>
      </trkpt>
      <trkpt lat="47.79395" lon="-3.38344">
        <ele>5.21</ele>
        <time>2018-05-31T08:54:24Z</time>
      </trkpt>
      <trkpt lat="47.79381" lon="-3.38333">
        <ele>4.98</ele>
        <time>2018-05-31T08:54:40Z</time>
      </trkpt>
      <trkpt lat="47.79362" lon="-3.3832">
        <ele>2.78</ele>
        <time>2018-05-31T08:54:55Z</time>
      </trkpt>
      <trkpt lat="47.79348" lon="-3.3832">
        <ele>0.27</ele>
        <time>2018-05-31T08:55:11Z</time>
      </trkpt>
      <trkpt lat="47.79308" lon="-3.38323">
        <ele>0.55</ele>
        <time>2018-05-31T08:55:32Z</time>
      </trkpt>
      <trkpt lat="47.79283" lon="-3.38333">
        <ele>2.65</ele>
        <time>2018-05-31T08:55:52Z</time>
      </trkpt>
      <trkpt lat="47.79258" lon="-3.3833">
        <ele>5.71</ele>
        <time>2018-05-31T08:56:11Z</time>
      </trkpt>
      <trkpt lat="47.7925" lon="-3.3833">
        <ele>6.9</ele>
        <time>2018-05-31T08:56:17Z</time>
      </trkpt>
      <trkpt lat="47.79232" lon="-3.38322">
        <ele>10.35</ele>
        <time>2018-05-31T08:56:31Z</time>
      </trkpt>
      <trkpt lat="47.79221" lon="-3.38326">
        <ele>13.56</ele>
        <time>2018-05-31T08:56:44Z</time>
      </trkpt>
      <trkpt lat="47.79213" lon="-3.38351">
        <ele>16.72</ele>
        <time>2018-05-31T08:56:58Z</time>
      </trkpt>
      <trkpt lat="47.79211" lon="-3.38379">
        <ele>18.43</ele>
        <time>2018-05-31T08:57:12Z</time>
      </trkpt>
      <trkpt lat="47.79213" lon="-3.38388">
        <ele>18.63</ele>
        <time>2018-05-31T08:57:17Z</time>
      </trkpt>
      <trkpt lat="47.79213" lon="-3.38403">
        <ele>18.3</ele>
        <time>2018-05-31T08:57:24Z</time>
      </trkpt>
      <trkpt lat="47.79216" lon="-3.38415">
        <ele>18.05</ele>
        <time>2018-05-31T08:57:29Z</time>
      </trkpt>
      <trkpt lat="47.79203" lon="-3.38432">
        <ele>17.79</ele>
        <time>2018-05-31T08:57:39Z</time>
      </trkpt>
      <trkpt lat="47.79193" lon="-3.38433">
        <ele>18.5</ele>
        <time>2018-05-31T08:57:47Z</time>
      </trkpt>
      <trkpt lat="47.79179" lon="-3.38441">
        <ele>19.75</ele>
        <time>2018-05-31T08:57:57Z</time>
      </trkpt>
      <trkpt lat="47.79151" lon="-3.38454">
        <ele>22.25</ele>
        <time>2018-05-31T08:58:14Z</time>
      </trkpt>
      <trkpt lat="47.7912" lon="-3.38465">
        <ele>22.74</ele>
        <time>2018-05-31T08:58:33Z</time>
      </trkpt>
      <trkpt lat="47.79108" lon="-3.38465">
        <ele>22.34</ele>
        <time>2018-05-31T08:58:51Z</time>
      </trkpt>
      <trkpt lat="47.79107" lon="-3.38465">
        <ele>22.38</ele>
        <time>2018-05-31T08:59:19Z</time>
      </trkpt>
      <trkpt lat="47.79093" lon="-3.38462">
        <ele>22.12</ele>
        <time>2018-05-31T08:59:30Z</time>
      </trkpt>
      <trkpt lat="47.79064" lon="-3.38458">
        <ele>21.27</ele>
        <time>2018-05-31T08:59:48Z</time>
      </trkpt>
      <trkpt lat="47.79037" lon="-3.38455">
        <ele>19.7</ele>
        <time>2018-05-31T09:00:06Z</time>
      </trkpt>
      <trkpt lat="47.7901" lon="-3.38467">
        <ele>17.6</ele>
        <time>2018-05-31T09:00:24Z</time>
      </trkpt>
      <trkpt lat="47.78987" lon="-3.38466">
        <ele>16.28</ele>
        <time>2018-05-31T09:00:39Z</time>
      </trkpt>
      <trkpt lat="47.78963" lon="-3.38448">
        <ele>14.84</ele>
        <time>2018-05-31T09:00:55Z</time>
      </trkpt>
      <trkpt lat="47.78939" lon="-3.38428">
        <ele>12.56</ele>
        <time>2018-05-31T09:01:13Z</time>
      </trkpt>
      <trkpt lat="47.78917" lon="-3.3841">
        <ele>10.08</ele>
        <time>2018-05-31T09:01:28Z</time>
      </trkpt>
      <trkpt lat="47.78902" lon="-3.38387">
        <ele>8.16</ele>
        <time>2018-05-31T09:01:42Z</time>
      </trkpt>
      <trkpt lat="47.78897" lon="-3.38379">
        <ele>7.52</ele>
        <time>2018-05-31T09:01:47Z</time>
      </trkpt>
      <trkpt lat="47.78889" lon="-3.38382">
        <ele>7.24</ele>
        <time>2018-05-31T09:01:53Z</time>
      </trkpt>
      <trkpt lat="47.78869" lon="-3.38412">
        <ele>5.64</ele>
        <time>2018-05-31T09:02:11Z</time>
      </trkpt>
      <trkpt lat="47.78852" lon="-3.38442">
        <ele>4.41</ele>
        <time>2018-05-31T09:02:27Z</time>
      </trkpt>
      <trkpt lat="47.78825" lon="-3.38483">
        <ele>2.39</ele>
        <time>2018-05-31T09:02:51Z</time>
      </trkpt>
      <trkpt lat="47.78798" lon="-3.38509">
        <ele>0.66</ele>
        <time>2018-05-31T09:03:12Z</time>
      </trkpt>
      <trkpt lat="47.78791" lon="-3.38533">
        <ele>-0.7</ele>
        <time>2018-05-31T09:03:23Z</time>
      </trkpt>
      <trkpt lat="47.78792" lon="-3.38561">
        <ele>-2.8</ele>
        <time>2018-05-31T09:03:39Z</time>
      </trkpt>
      <trkpt lat="47.78784" lon="-3.38595">
        <ele>-4.18</ele>
        <time>2018-05-31T09:03:52Z</time>
      </trkpt>
      <trkpt lat="47.78772" lon="-3.38629">
        <ele>-3.67</ele>
        <time>2018-05-31T09:04:04Z</time>
      </trkpt>
      <trkpt lat="47.78759" lon="-3.38667">
        <ele>-1.36</ele>
        <time>2018-05-31T09:04:15Z</time>
      </trkpt>
      <trkpt lat="47.78738" lon="-3.38672">
        <ele>1.36</ele>
        <time>2018-05-31T09:04:25Z</time>
      </trkpt>
      <trkpt lat="47.78717" lon="-3.3867">
        <ele>4.17</ele>
        <time>2018-05-31T09:04:37Z</time>
      </trkpt>
      <trkpt lat="47.78706" lon="-3.38701">
        <ele>6.89</ele>
        <time>2018-05-31T09:04:53Z</time>
      </trkpt>
      <trkpt lat="47.78703" lon="-3.38735">
        <ele>9.91</ele>
        <time>2018-05-31T09:05:08Z</time>
      </trkpt>
      <trkpt lat="47.78701" lon="-3.38752">
        <ele>11.56</ele>
        <time>2018-05-31T09:05:17Z</time>
      </trkpt>
      <trkpt lat="47.78701" lon="-3.38754">
        <ele>11.89</ele>
        <time>2018-05-31T09:05:18Z</time>
      </trkpt>
      <trkpt lat="47.78699" lon="-3.38766">
        <ele>12.86</ele>
        <time>2018-05-31T09:05:25Z</time>
      </trkpt>
      <trkpt lat="47.78698" lon="-3.38768">
        <ele>12.97</ele>
        <time>2018-05-31T09:05:26Z</time>
      </trkpt>
      <trkpt lat="47.78698" lon="-3.3877">
        <ele>13.08</ele>
        <time>2018-05-31T09:05:27Z</time>
      </trkpt>
      <trkpt lat="47.78697" lon="-3.38771">
        <ele>13.17</ele>
        <time>2018-05-31T09:05:28Z</time>
      </trkpt>
      <trkpt lat="47.78681" lon="-3.38775">
        <ele>14.6</ele>
        <time>2018-05-31T09:05:43Z</time>
      </trkpt>
      <trkpt lat="47.7867" lon="-3.38772">
        <ele>15.75</ele>
        <time>2018-05-31T09:05:58Z</time>
      </trkpt>
      <trkpt lat="47.78664" lon="-3.38766">
        <ele>16.1</ele>
        <time>2018-05-31T09:06:09Z</time>
      </trkpt>
      <trkpt lat="47.78655" lon="-3.38761">
        <ele>16.28</ele>
        <time>2018-05-31T09:06:21Z</time>
      </trkpt>
      <trkpt lat="47.78631" lon="-3.38755">
        <ele>16.17</ele>
        <time>2018-05-31T09:06:31Z</time>
      </trkpt>
      <trkpt lat="47.78628" lon="-3.38753">
        <ele>16.12</ele>
        <time>2018-05-31T09:06:32Z</time>
      </trkpt>
      <trkpt lat="47.78626" lon="-3.38752">
        <ele>15.97</ele>
        <time>2018-05-31T09:06:33Z</time>
      </trkpt>
      <trkpt lat="47.78602" lon="-3.38731">
        <ele>15.22</ele>
        <time>2018-05-31T09:06:47Z</time>
      </trkpt>
      <trkpt lat="47.78579" lon="-3.3871">
        <ele>14.33</ele>
        <time>2018-05-31T09:07:01Z</time>
      </trkpt>
      <trkpt lat="47.78578" lon="-3.38709">
        <ele>14.29</ele>
        <time>2018-05-31T09:07:02Z</time>
      </trkpt>
      <trkpt lat="47.78562" lon="-3.38685">
        <ele>13.12</ele>
        <time>2018-05-31T09:07:16Z</time>
      </trkpt>
      <trkpt lat="47.78545" lon="-3.38663">
        <ele>11.13</ele>
        <time>2018-05-31T09:07:33Z</time>
      </trkpt>
      <trkpt lat="47.78533" lon="-3.3865">
        <ele>9.57</ele>
        <time>2018-05-31T09:07:45Z</time>
      </trkpt>
      <trkpt lat="47.78503" lon="-3.38638">
        <ele>9.03</ele>
        <time>2018-05-31T09:08:01Z</time>
      </trkpt>
      <trkpt lat="47.78475" lon="-3.38627">
        <ele>6.86</ele>
        <time>2018-05-31T09:08:21Z</time>
      </trkpt>
      <trkpt lat="47.78469" lon="-3.38625">
        <ele>6.54</ele>
        <time>2018-05-31T09:08:25Z</time>
      </trkpt>
      <trkpt lat="47.78468" lon="-3.38625">
        <ele>6.47</ele>
        <time>2018-05-31T09:08:26Z</time>
      </trkpt>
      <trkpt lat="47.78463" lon="-3.38625">
        <ele>6.26</ele>
        <time>2018-05-31T09:08:29Z</time>
      </trkpt>
      <trkpt lat="47.78442" lon="-3.3862">
        <ele>4.44</ele>
        <time>2018-05-31T09:08:44Z</time>
      </trkpt>
      <trkpt lat="47.78425" lon="-3.38627">
        <ele>2.86</ele>
        <time>2018-05-31T09:08:54Z</time>
      </trkpt>
      <trkpt lat="47.78424" lon="-3.38629">
        <ele>2.81</ele>
        <time>2018-05-31T09:08:55Z</time>
      </trkpt>
      <trkpt lat="47.78415" lon="-3.38635">
        <ele>2.87</ele>
        <time>2018-05-31T09:09:02Z</time>
      </trkpt>
      <trkpt lat="47.78399" lon="-3.38654">
        <ele>4.44</ele>
        <time>2018-05-31T09:09:20Z</time>
      </trkpt>
      <trkpt lat="47.78395" lon="-3.3866">
        <ele>4.98</ele>
        <time>2018-05-31T09:09:24Z</time>
      </trkpt>
      <trkpt lat="47.7838" lon="-3.38682">
        <ele>5.96</ele>
        <time>2018-05-31T09:09:38Z</time>
      </trkpt>
      <trkpt lat="47.78379" lon="-3.38685">
        <ele>6.01</ele>
        <time>2018-05-31T09:09:39Z</time>
      </trkpt>
      <trkpt lat="47.78374" lon="-3.38699">
        <ele>6.41</ele>
        <time>2018-05-31T09:09:45Z</time>
      </trkpt>
      <trkpt lat="47.78373" lon="-3.38701">
        <ele>6.48</ele>
        <time>2018-05-31T09:09:46Z</time>
      </trkpt>
      <trkpt lat="47.78373" lon="-3.38704">
        <ele>6.56</ele>
        <time>2018-05-31T09:09:47Z</time>
      </trkpt>
      <trkpt lat="47.78372" lon="-3.38705">
        <ele>6.65</ele>
        <time>2018-05-31T09:09:48Z</time>
      </trkpt>
      <trkpt lat="47.78372" lon="-3.38707">
        <ele>6.71</ele>
        <time>2018-05-31T09:09:49Z</time>
      </trkpt>
      <trkpt lat="47.78371" lon="-3.38709">
        <ele>6.77</ele>
        <time>2018-05-31T09:09:50Z</time>
      </trkpt>
      <trkpt lat="47.78371" lon="-3.38711">
        <ele>6.83</ele>
        <time>2018-05-31T09:09:51Z</time>
      </trkpt>
      <trkpt lat="47.7837" lon="-3.38713">
        <ele>6.87</ele>
        <time>2018-05-31T09:09:52Z</time>
      </trkpt>
      <trkpt lat="47.7837" lon="-3.38715">
        <ele>6.91</ele>
        <time>2018-05-31T09:09:53Z</time>
      </trkpt>
      <trkpt lat="47.78363" lon="-3.38733">
        <ele>7.3</ele>
        <time>2018-05-31T09:10:04Z</time>
      </trkpt>
      <trkpt lat="47.78357" lon="-3.38756">
        <ele>7.08</ele>
        <time>2018-05-31T09:10:14Z</time>
      </trkpt>
      <trkpt lat="47.78354" lon="-3.38759">
        <ele>7.04</ele>
        <time>2018-05-31T09:10:15Z</time>
      </trkpt>
      <trkpt lat="47.78348" lon="-3.38777">
        <ele>6.82</ele>
        <time>2018-05-31T09:10:22Z</time>
      </trkpt>
      <trkpt lat="47.78347" lon="-3.38782">
        <ele>6.72</ele>
        <time>2018-05-31T09:10:24Z</time>
      </trkpt>
      <trkpt lat="47.78347" lon="-3.38785">
        <ele>6.51</ele>
        <time>2018-05-31T09:10:25Z</time>
      </trkpt>
      <trkpt lat="47.78345" lon="-3.38797">
        <ele>5.68</ele>
        <time>2018-05-31T09:10:31Z</time>
      </trkpt>
      <trkpt lat="47.78344" lon="-3.388">
        <ele>5.52</ele>
        <time>2018-05-31T09:10:32Z</time>
      </trkpt>
      <trkpt lat="47.78343" lon="-3.38813">
        <ele>4.84</ele>
        <time>2018-05-31T09:10:38Z</time>
      </trkpt>
      <trkpt lat="47.78343" lon="-3.38816">
        <ele>4.74</ele>
        <time>2018-05-31T09:10:39Z</time>
      </trkpt>
      <trkpt lat="47.78342" lon="-3.38822">
        <ele>4.5</ele>
        <time>2018-05-31T09:10:42Z</time>
      </trkpt>
      <trkpt lat="47.78343" lon="-3.3884">
        <ele>4.05</ele>
        <time>2018-05-31T09:10:54Z</time>
      </trkpt>
      <trkpt lat="47.78339" lon="-3.38862">
        <ele>3.96</ele>
        <time>2018-05-31T09:11:03Z</time>
      </trkpt>
      <trkpt lat="47.78333" lon="-3.38881">
        <ele>4.23</ele>
        <time>2018-05-31T09:11:11Z</time>
      </trkpt>
      <trkpt lat="47.78333" lon="-3.38897">
        <ele>4.71</ele>
        <time>2018-05-31T09:11:19Z</time>
      </trkpt>
      <trkpt lat="47.78339" lon="-3.38929">
        <ele>4.64</ele>
        <time>2018-05-31T09:11:35Z</time>
      </trkpt>
      <trkpt lat="47.7834" lon="-3.38931">
        <ele>4.58</ele>
        <time>2018-05-31T09:11:36Z</time>
      </trkpt>
      <trkpt lat="47.78344" lon="-3.38934">
        <ele>4.3</ele>
        <time>2018-05-31T09:11:40Z</time>
      </trkpt>
      <trkpt lat="47.7836" lon="-3.38942">
        <ele>1.67</ele>
        <time>2018-05-31T09:11:56Z</time>
      </trkpt>
      <trkpt lat="47.78374" lon="-3.38947">
        <ele>2.15</ele>
        <time>2018-05-31T09:12:09Z</time>
      </trkpt>
      <trkpt lat="47.78376" lon="-3.38947">
        <ele>2.23</ele>
        <time>2018-05-31T09:12:10Z</time>
      </trkpt>
      <trkpt lat="47.78402" lon="-3.38943">
        <ele>4.46</ele>
        <time>2018-05-31T09:12:22Z</time>
      </trkpt>
      <trkpt lat="47.78412" lon="-3.38947">
        <ele>5.45</ele>
        <time>2018-05-31T09:12:26Z</time>
      </trkpt>
      <trkpt lat="47.78418" lon="-3.38955">
        <ele>6.83</ele>
        <time>2018-05-31T09:12:30Z</time>
      </trkpt>
      <trkpt lat="47.78417" lon="-3.38963">
        <ele>7.69</ele>
        <time>2018-05-31T09:12:32Z</time>
      </trkpt>
      <trkpt lat="47.78417" lon="-3.38982">
        <ele>10.87</ele>
        <time>2018-05-31T09:12:37Z</time>
      </trkpt>
      <trkpt lat="47.78414" lon="-3.39008">
        <ele>13.3</ele>
        <time>2018-05-31T09:12:46Z</time>
      </trkpt>
      <trkpt lat="47.78413" lon="-3.3901">
        <ele>13.47</ele>
        <time>2018-05-31T09:12:47Z</time>
      </trkpt>
      <trkpt lat="47.78413" lon="-3.3903">
        <ele>13.44</ele>
        <time>2018-05-31T09:12:54Z</time>
      </trkpt>
      <trkpt lat="47.78412" lon="-3.39032">
        <ele>13.34</ele>
        <time>2018-05-31T09:12:55Z</time>
      </trkpt>
      <trkpt lat="47.78411" lon="-3.39048">
        <ele>12.14</ele>
        <time>2018-05-31T09:13:02Z</time>
      </trkpt>
      <trkpt lat="47.78414" lon="-3.391">
        <ele>10.56</ele>
        <time>2018-05-31T09:13:14Z</time>
      </trkpt>
      <trkpt lat="47.78423" lon="-3.39155">
        <ele>11.32</ele>
        <time>2018-05-31T09:13:24Z</time>
      </trkpt>
      <trkpt lat="47.78434" lon="-3.39204">
        <ele>12.84</ele>
        <time>2018-05-31T09:13:33Z</time>
      </trkpt>
      <trkpt lat="47.78435" lon="-3.39207">
        <ele>13</ele>
        <time>2018-05-31T09:13:34Z</time>
      </trkpt>
      <trkpt lat="47.78452" lon="-3.39234">
        <ele>11.77</ele>
        <time>2018-05-31T09:13:45Z</time>
      </trkpt>
      <trkpt lat="47.78457" lon="-3.39242">
        <ele>10.97</ele>
        <time>2018-05-31T09:13:48Z</time>
      </trkpt>
      <trkpt lat="47.78459" lon="-3.39246">
        <ele>10.72</ele>
        <time>2018-05-31T09:13:49Z</time>
      </trkpt>
      <trkpt lat="47.7846" lon="-3.39249">
        <ele>10.43</ele>
        <time>2018-05-31T09:13:50Z</time>
      </trkpt>
      <trkpt lat="47.78461" lon="-3.39252">
        <ele>10.08</ele>
        <time>2018-05-31T09:13:51Z</time>
      </trkpt>
      <trkpt lat="47.78462" lon="-3.39256">
        <ele>9.74</ele>
        <time>2018-05-31T09:13:52Z</time>
      </trkpt>
      <trkpt lat="47.78464" lon="-3.3926">
        <ele>9.44</ele>
        <time>2018-05-31T09:13:53Z</time>
      </trkpt>
      <trkpt lat="47.78467" lon="-3.39264">
        <ele>9.2</ele>
        <time>2018-05-31T09:13:54Z</time>
      </trkpt>
      <trkpt lat="47.7847" lon="-3.39269">
        <ele>9.01</ele>
        <time>2018-05-31T09:13:55Z</time>
      </trkpt>
      <trkpt lat="47.78473" lon="-3.39275">
        <ele>8.78</ele>
        <time>2018-05-31T09:13:56Z</time>
      </trkpt>
      <trkpt lat="47.78494" lon="-3.39328">
        <ele>11.01</ele>
        <time>2018-05-31T09:14:05Z</time>
      </trkpt>
      <trkpt lat="47.78521" lon="-3.39385">
        <ele>12.68</ele>
        <time>2018-05-31T09:14:16Z</time>
      </trkpt>
      <trkpt lat="47.78536" lon="-3.39443">
        <ele>12.9</ele>
        <time>2018-05-31T09:14:25Z</time>
      </trkpt>
      <trkpt lat="47.78558" lon="-3.39473">
        <ele>13.71</ele>
        <time>2018-05-31T09:14:36Z</time>
      </trkpt>
      <trkpt lat="47.78587" lon="-3.39487">
        <ele>12.36</ele>
        <time>2018-05-31T09:14:50Z</time>
      </trkpt>
      <trkpt lat="47.78591" lon="-3.39484">
        <ele>12.5</ele>
        <time>2018-05-31T09:14:51Z</time>
      </trkpt>
      <trkpt lat="47.78599" lon="-3.39479">
        <ele>12.86</ele>
        <time>2018-05-31T09:14:53Z</time>
      </trkpt>
      <trkpt lat="47.78603" lon="-3.39475">
        <ele>13.09</ele>
        <time>2018-05-31T09:14:54Z</time>
      </trkpt>
      <trkpt lat="47.78634" lon="-3.39445">
        <ele>16.32</ele>
        <time>2018-05-31T09:15:02Z</time>
      </trkpt>
      <trkpt lat="47.78637" lon="-3.39443">
        <ele>16.7</ele>
        <time>2018-05-31T09:15:03Z</time>
      </trkpt>
      <trkpt lat="47.78677" lon="-3.39433">
        <ele>19.37</ele>
        <time>2018-05-31T09:15:16Z</time>
      </trkpt>
      <trkpt lat="47.78727" lon="-3.39424">
        <ele>22.42</ele>
        <time>2018-05-31T09:15:30Z</time>
      </trkpt>
      <trkpt lat="47.78744" lon="-3.39446">
        <ele>24.86</ele>
        <time>2018-05-31T09:15:41Z</time>
      </trkpt>
      <trkpt lat="47.78773" lon="-3.3947">
        <ele>25.75</ele>
        <time>2018-05-31T09:15:50Z</time>
      </trkpt>
      <trkpt lat="47.78812" lon="-3.3949">
        <ele>28.56</ele>
        <time>2018-05-31T09:16:02Z</time>
      </trkpt>
      <trkpt lat="47.78827" lon="-3.39492">
        <ele>29.91</ele>
        <time>2018-05-31T09:16:11Z</time>
      </trkpt>
      <trkpt lat="47.78828" lon="-3.39491">
        <ele>29.93</ele>
        <time>2018-05-31T09:16:12Z</time>
      </trkpt>
      <trkpt lat="47.78829" lon="-3.3949">
        <ele>29.94</ele>
        <time>2018-05-31T09:16:13Z</time>
      </trkpt>
      <trkpt lat="47.7883" lon="-3.39489">
        <ele>29.93</ele>
        <time>2018-05-31T09:16:14Z</time>
      </trkpt>
      <trkpt lat="47.78832" lon="-3.39488">
        <ele>29.92</ele>
        <time>2018-05-31T09:16:15Z</time>
      </trkpt>
      <trkpt lat="47.78833" lon="-3.39487">
        <ele>29.92</ele>
        <time>2018-05-31T09:16:16Z</time>
      </trkpt>
      <trkpt lat="47.78837" lon="-3.39486">
        <ele>29.73</ele>
        <time>2018-05-31T09:16:21Z</time>
      </trkpt>
      <trkpt lat="47.78838" lon="-3.39485">
        <ele>29.69</ele>
        <time>2018-05-31T09:16:22Z</time>
      </trkpt>
      <trkpt lat="47.7884" lon="-3.39484">
        <ele>29.66</ele>
        <time>2018-05-31T09:16:23Z</time>
      </trkpt>
      <trkpt lat="47.78853" lon="-3.39479">
        <ele>29.1</ele>
        <time>2018-05-31T09:16:33Z</time>
      </trkpt>
      <trkpt lat="47.78855" lon="-3.39478">
        <ele>29.03</ele>
        <time>2018-05-31T09:16:34Z</time>
      </trkpt>
      <trkpt lat="47.78857" lon="-3.39477">
        <ele>28.98</ele>
        <time>2018-05-31T09:16:35Z</time>
      </trkpt>
      <trkpt lat="47.78858" lon="-3.39477">
        <ele>28.9</ele>
        <time>2018-05-31T09:16:36Z</time>
      </trkpt>
      <trkpt lat="47.7886" lon="-3.39477">
        <ele>28.83</ele>
        <time>2018-05-31T09:16:37Z</time>
      </trkpt>
      <trkpt lat="47.78862" lon="-3.39477">
        <ele>28.75</ele>
        <time>2018-05-31T09:16:38Z</time>
      </trkpt>
      <trkpt lat="47.78881" lon="-3.3948">
        <ele>27.74</ele>
        <time>2018-05-31T09:16:50Z</time>
      </trkpt>
      <trkpt lat="47.78891" lon="-3.3948">
        <ele>26.71</ele>
        <time>2018-05-31T09:16:57Z</time>
      </trkpt>
      <trkpt lat="47.78892" lon="-3.3948">
        <ele>26.56</ele>
        <time>2018-05-31T09:16:58Z</time>
      </trkpt>
      <trkpt lat="47.78893" lon="-3.39481">
        <ele>26.4</ele>
        <time>2018-05-31T09:16:59Z</time>
      </trkpt>
      <trkpt lat="47.78895" lon="-3.39485">
        <ele>26.11</ele>
        <time>2018-05-31T09:17:01Z</time>
      </trkpt>
      <trkpt lat="47.78895" lon="-3.39488">
        <ele>25.97</ele>
        <time>2018-05-31T09:17:02Z</time>
      </trkpt>
      <trkpt lat="47.78899" lon="-3.39524">
        <ele>24.22</ele>
        <time>2018-05-31T09:17:17Z</time>
      </trkpt>
      <trkpt lat="47.789" lon="-3.39552">
        <ele>23.94</ele>
        <time>2018-05-31T09:17:31Z</time>
      </trkpt>
      <trkpt lat="47.78902" lon="-3.39558">
        <ele>23.75</ele>
        <time>2018-05-31T09:17:35Z</time>
      </trkpt>
      <trkpt lat="47.78912" lon="-3.39581">
        <ele>20.46</ele>
        <time>2018-05-31T09:17:49Z</time>
      </trkpt>
      <trkpt lat="47.78912" lon="-3.39584">
        <ele>20.23</ele>
        <time>2018-05-31T09:17:50Z</time>
      </trkpt>
      <trkpt lat="47.78907" lon="-3.39601">
        <ele>19.31</ele>
        <time>2018-05-31T09:17:58Z</time>
      </trkpt>
      <trkpt lat="47.78905" lon="-3.39609">
        <ele>19.36</ele>
        <time>2018-05-31T09:18:02Z</time>
      </trkpt>
      <trkpt lat="47.78903" lon="-3.39615">
        <ele>19.72</ele>
        <time>2018-05-31T09:18:05Z</time>
      </trkpt>
      <trkpt lat="47.78903" lon="-3.39626">
        <ele>20.66</ele>
        <time>2018-05-31T09:18:09Z</time>
      </trkpt>
      <trkpt lat="47.78928" lon="-3.39642">
        <ele>23.91</ele>
        <time>2018-05-31T09:18:22Z</time>
      </trkpt>
      <trkpt lat="47.78951" lon="-3.39657">
        <ele>25.25</ele>
        <time>2018-05-31T09:18:39Z</time>
      </trkpt>
      <trkpt lat="47.78956" lon="-3.39668">
        <ele>25.95</ele>
        <time>2018-05-31T09:18:46Z</time>
      </trkpt>
      <trkpt lat="47.78965" lon="-3.39672">
        <ele>26.24</ele>
        <time>2018-05-31T09:18:50Z</time>
      </trkpt>
      <trkpt lat="47.78994" lon="-3.39681">
        <ele>25.42</ele>
        <time>2018-05-31T09:19:02Z</time>
      </trkpt>
      <trkpt lat="47.79027" lon="-3.39687">
        <ele>24.82</ele>
        <time>2018-05-31T09:19:19Z</time>
      </trkpt>
      <trkpt lat="47.79048" lon="-3.39698">
        <ele>25.25</ele>
        <time>2018-05-31T09:19:29Z</time>
      </trkpt>
      <trkpt lat="47.7907" lon="-3.39706">
        <ele>27.71</ele>
        <time>2018-05-31T09:19:41Z</time>
      </trkpt>
      <trkpt lat="47.7908" lon="-3.39707">
        <ele>28.04</ele>
        <time>2018-05-31T09:19:47Z</time>
      </trkpt>
      <trkpt lat="47.79094" lon="-3.39731">
        <ele>27.76</ele>
        <time>2018-05-31T09:20:01Z</time>
      </trkpt>
      <trkpt lat="47.79108" lon="-3.39746">
        <ele>27.07</ele>
        <time>2018-05-31T09:20:13Z</time>
      </trkpt>
      <trkpt lat="47.79114" lon="-3.39748">
        <ele>26.63</ele>
        <time>2018-05-31T09:20:17Z</time>
      </trkpt>
      <trkpt lat="47.79119" lon="-3.39748">
        <ele>26.14</ele>
        <time>2018-05-31T09:20:20Z</time>
      </trkpt>
      <trkpt lat="47.79142" lon="-3.39756">
        <ele>24.95</ele>
        <time>2018-05-31T09:20:33Z</time>
      </trkpt>
      <trkpt lat="47.79156" lon="-3.3978">
        <ele>24.09</ele>
        <time>2018-05-31T09:20:51Z</time>
      </trkpt>
      <trkpt lat="47.7916" lon="-3.39784">
        <ele>24.05</ele>
        <time>2018-05-31T09:20:54Z</time>
      </trkpt>
      <trkpt lat="47.79165" lon="-3.39792">
        <ele>24.04</ele>
        <time>2018-05-31T09:20:58Z</time>
      </trkpt>
      <trkpt lat="47.7918" lon="-3.39814">
        <ele>23.37</ele>
        <time>2018-05-31T09:21:13Z</time>
      </trkpt>
      <trkpt lat="47.79187" lon="-3.3983">
        <ele>22.26</ele>
        <time>2018-05-31T09:21:21Z</time>
      </trkpt>
      <trkpt lat="47.79195" lon="-3.39856">
        <ele>21.75</ele>
        <time>2018-05-31T09:21:35Z</time>
      </trkpt>
      <trkpt lat="47.79208" lon="-3.39877">
        <ele>23.08</ele>
        <time>2018-05-31T09:21:48Z</time>
      </trkpt>
      <trkpt lat="47.79211" lon="-3.39882">
        <ele>23.32</ele>
        <time>2018-05-31T09:21:50Z</time>
      </trkpt>
      <trkpt lat="47.79212" lon="-3.39889">
        <ele>23.72</ele>
        <time>2018-05-31T09:21:53Z</time>
      </trkpt>
      <trkpt lat="47.79228" lon="-3.39908">
        <ele>26.04</ele>
        <time>2018-05-31T09:22:09Z</time>
      </trkpt>
      <trkpt lat="47.79242" lon="-3.39937">
        <ele>27.36</ele>
        <time>2018-05-31T09:22:29Z</time>
      </trkpt>
      <trkpt lat="47.79246" lon="-3.39957">
        <ele>27.28</ele>
        <time>2018-05-31T09:22:39Z</time>
      </trkpt>
      <trkpt lat="47.79246" lon="-3.39962">
        <ele>27.26</ele>
        <time>2018-05-31T09:22:41Z</time>
      </trkpt>
      <trkpt lat="47.79245" lon="-3.39972">
        <ele>27.18</ele>
        <time>2018-05-31T09:22:46Z</time>
      </trkpt>
      <trkpt lat="47.79244" lon="-3.39981">
        <ele>27.15</ele>
        <time>2018-05-31T09:22:50Z</time>
      </trkpt>
      <trkpt lat="47.79241" lon="-3.40006">
        <ele>26.67</ele>
        <time>2018-05-31T09:23:06Z</time>
      </trkpt>
      <trkpt lat="47.79236" lon="-3.40038">
        <ele>25.79</ele>
        <time>2018-05-31T09:23:27Z</time>
      </trkpt>
      <trkpt lat="47.79238" lon="-3.40074">
        <ele>26.21</ele>
        <time>2018-05-31T09:23:46Z</time>
      </trkpt>
      <trkpt lat="47.79237" lon="-3.40109">
        <ele>27.31</ele>
        <time>2018-05-31T09:24:03Z</time>
      </trkpt>
      <trkpt lat="47.79232" lon="-3.40127">
        <ele>27.83</ele>
        <time>2018-05-31T09:24:10Z</time>
      </trkpt>
      <trkpt lat="47.79227" lon="-3.40154">
        <ele>29.14</ele>
        <time>2018-05-31T09:24:23Z</time>
      </trkpt>
      <trkpt lat="47.79243" lon="-3.40174">
        <ele>29.41</ele>
        <time>2018-05-31T09:24:40Z</time>
      </trkpt>
      <trkpt lat="47.7925" lon="-3.4018">
        <ele>29.34</ele>
        <time>2018-05-31T09:24:46Z</time>
      </trkpt>
      <trkpt lat="47.79269" lon="-3.40187">
        <ele>28.67</ele>
        <time>2018-05-31T09:25:01Z</time>
      </trkpt>
      <trkpt lat="47.79285" lon="-3.40201">
        <ele>26</ele>
        <time>2018-05-31T09:25:20Z</time>
      </trkpt>
      <trkpt lat="47.79292" lon="-3.40208">
        <ele>25.36</ele>
        <time>2018-05-31T09:25:29Z</time>
      </trkpt>
      <trkpt lat="47.79294" lon="-3.40217">
        <ele>25.12</ele>
        <time>2018-05-31T09:25:34Z</time>
      </trkpt>
      <trkpt lat="47.793" lon="-3.40238">
        <ele>24.95</ele>
        <time>2018-05-31T09:25:46Z</time>
      </trkpt>
      <trkpt lat="47.79299" lon="-3.40247">
        <ele>24.78</ele>
        <time>2018-05-31T09:25:50Z</time>
      </trkpt>
      <trkpt lat="47.79288" lon="-3.40277">
        <ele>24.44</ele>
        <time>2018-05-31T09:26:03Z</time>
      </trkpt>
      <trkpt lat="47.79276" lon="-3.40298">
        <ele>24.08</ele>
        <time>2018-05-31T09:26:13Z</time>
      </trkpt>
      <trkpt lat="47.79276" lon="-3.403">
        <ele>24.04</ele>
        <time>2018-05-31T09:26:14Z</time>
      </trkpt>
      <trkpt lat="47.7927" lon="-3.40314">
        <ele>23.55</ele>
        <time>2018-05-31T09:26:24Z</time>
      </trkpt>
      <trkpt lat="47.79266" lon="-3.40321">
        <ele>23.56</ele>
        <time>2018-05-31T09:26:27Z</time>
      </trkpt>
      <trkpt lat="47.79265" lon="-3.40324">
        <ele>23.57</ele>
        <time>2018-05-31T09:26:28Z</time>
      </trkpt>
      <trkpt lat="47.79264" lon="-3.40327">
        <ele>23.58</ele>
        <time>2018-05-31T09:26:29Z</time>
      </trkpt>
      <trkpt lat="47.79263" lon="-3.4033">
        <ele>23.57</ele>
        <time>2018-05-31T09:26:30Z</time>
      </trkpt>
      <trkpt lat="47.79262" lon="-3.40332">
        <ele>23.56</ele>
        <time>2018-05-31T09:26:31Z</time>
      </trkpt>
      <trkpt lat="47.79262" lon="-3.40335">
        <ele>23.55</ele>
        <time>2018-05-31T09:26:32Z</time>
      </trkpt>
      <trkpt lat="47.79261" lon="-3.40337">
        <ele>23.52</ele>
        <time>2018-05-31T09:26:33Z</time>
      </trkpt>
      <trkpt lat="47.7926" lon="-3.40339">
        <ele>23.49</ele>
        <time>2018-05-31T09:26:34Z</time>
      </trkpt>
      <trkpt lat="47.79254" lon="-3.4036">
        <ele>23.16</ele>
        <time>2018-05-31T09:26:44Z</time>
      </trkpt>
      <trkpt lat="47.79254" lon="-3.40362">
        <ele>23.16</ele>
        <time>2018-05-31T09:26:45Z</time>
      </trkpt>
      <trkpt lat="47.79253" lon="-3.40366">
        <ele>23.16</ele>
        <time>2018-05-31T09:26:46Z</time>
      </trkpt>
      <trkpt lat="47.7925" lon="-3.40383">
        <ele>23.1</ele>
        <time>2018-05-31T09:26:53Z</time>
      </trkpt>
      <trkpt lat="47.79249" lon="-3.40386">
        <ele>23.1</ele>
        <time>2018-05-31T09:26:54Z</time>
      </trkpt>
      <trkpt lat="47.79248" lon="-3.40389">
        <ele>23.1</ele>
        <time>2018-05-31T09:26:55Z</time>
      </trkpt>
      <trkpt lat="47.79248" lon="-3.40392">
        <ele>23.08</ele>
        <time>2018-05-31T09:26:56Z</time>
      </trkpt>
      <trkpt lat="47.79247" lon="-3.40395">
        <ele>23.07</ele>
        <time>2018-05-31T09:26:57Z</time>
      </trkpt>
      <trkpt lat="47.79247" lon="-3.40398">
        <ele>23.06</ele>
        <time>2018-05-31T09:26:58Z</time>
      </trkpt>
      <trkpt lat="47.79241" lon="-3.40421">
        <ele>22.63</ele>
        <time>2018-05-31T09:27:08Z</time>
      </trkpt>
      <trkpt lat="47.79241" lon="-3.40423">
        <ele>22.58</ele>
        <time>2018-05-31T09:27:09Z</time>
      </trkpt>
      <trkpt lat="47.79234" lon="-3.40457">
        <ele>21.88</ele>
        <time>2018-05-31T09:27:23Z</time>
      </trkpt>
      <trkpt lat="47.79226" lon="-3.40483">
        <ele>21.33</ele>
        <time>2018-05-31T09:27:33Z</time>
      </trkpt>
      <trkpt lat="47.79225" lon="-3.40486">
        <ele>21.31</ele>
        <time>2018-05-31T09:27:34Z</time>
      </trkpt>
      <trkpt lat="47.79224" lon="-3.4049">
        <ele>21.29</ele>
        <time>2018-05-31T09:27:35Z</time>
      </trkpt>
      <trkpt lat="47.79224" lon="-3.40493">
        <ele>21.25</ele>
        <time>2018-05-31T09:27:36Z</time>
      </trkpt>
      <trkpt lat="47.79223" lon="-3.40495">
        <ele>21.19</ele>
        <time>2018-05-31T09:27:37Z</time>
      </trkpt>
      <trkpt lat="47.79223" lon="-3.40498">
        <ele>21.15</ele>
        <time>2018-05-31T09:27:38Z</time>
      </trkpt>
      <trkpt lat="47.79222" lon="-3.40501">
        <ele>21.1</ele>
        <time>2018-05-31T09:27:39Z</time>
      </trkpt>
      <trkpt lat="47.79215" lon="-3.40553">
        <ele>20.56</ele>
        <time>2018-05-31T09:27:58Z</time>
      </trkpt>
      <trkpt lat="47.79211" lon="-3.40599">
        <ele>20.95</ele>
        <time>2018-05-31T09:28:16Z</time>
      </trkpt>
      <trkpt lat="47.79211" lon="-3.40601">
        <ele>20.94</ele>
        <time>2018-05-31T09:28:17Z</time>
      </trkpt>
      <trkpt lat="47.79211" lon="-3.40604">
        <ele>20.95</ele>
        <time>2018-05-31T09:28:18Z</time>
      </trkpt>
      <trkpt lat="47.79208" lon="-3.40647">
        <ele>21.56</ele>
        <time>2018-05-31T09:28:35Z</time>
      </trkpt>
      <trkpt lat="47.79203" lon="-3.40687">
        <ele>22.03</ele>
        <time>2018-05-31T09:28:53Z</time>
      </trkpt>
      <trkpt lat="47.79202" lon="-3.40724">
        <ele>22.86</ele>
        <time>2018-05-31T09:29:09Z</time>
      </trkpt>
      <trkpt lat="47.79205" lon="-3.40758">
        <ele>23.5</ele>
        <time>2018-05-31T09:29:23Z</time>
      </trkpt>
      <trkpt lat="47.79208" lon="-3.40797">
        <ele>23.86</ele>
        <time>2018-05-31T09:29:39Z</time>
      </trkpt>
      <trkpt lat="47.79214" lon="-3.40841">
        <ele>25.3</ele>
        <time>2018-05-31T09:29:57Z</time>
      </trkpt>
      <trkpt lat="47.79221" lon="-3.40879">
        <ele>26.78</ele>
        <time>2018-05-31T09:30:13Z</time>
      </trkpt>
      <trkpt lat="47.79227" lon="-3.40914">
        <ele>27.95</ele>
        <time>2018-05-31T09:30:29Z</time>
      </trkpt>
      <trkpt lat="47.79214" lon="-3.40946">
        <ele>28.61</ele>
        <time>2018-05-31T09:30:44Z</time>
      </trkpt>
      <trkpt lat="47.79198" lon="-3.40976">
        <ele>28.99</ele>
        <time>2018-05-31T09:31:00Z</time>
      </trkpt>
      <trkpt lat="47.79178" lon="-3.41014">
        <ele>30.21</ele>
        <time>2018-05-31T09:31:20Z</time>
      </trkpt>
      <trkpt lat="47.79179" lon="-3.41024">
        <ele>30.64</ele>
        <time>2018-05-31T09:31:25Z</time>
      </trkpt>
      <trkpt lat="47.79205" lon="-3.41033">
        <ele>32.14</ele>
        <time>2018-05-31T09:31:42Z</time>
      </trkpt>
      <trkpt lat="47.79229" lon="-3.41042">
        <ele>32.57</ele>
        <time>2018-05-31T09:31:58Z</time>
      </trkpt>
      <trkpt lat="47.79248" lon="-3.41051">
        <ele>33.02</ele>
        <time>2018-05-31T09:32:12Z</time>
      </trkpt>
      <trkpt lat="47.7927" lon="-3.41059">
        <ele>33.4</ele>
        <time>2018-05-31T09:32:26Z</time>
      </trkpt>
      <trkpt lat="47.79298" lon="-3.4107">
        <ele>33.29</ele>
        <time>2018-05-31T09:32:45Z</time>
      </trkpt>
      <trkpt lat="47.79319" lon="-3.41084">
        <ele>32.34</ele>
        <time>2018-05-31T09:33:00Z</time>
      </trkpt>
      <trkpt lat="47.79349" lon="-3.41096">
        <ele>29.83</ele>
        <time>2018-05-31T09:33:19Z</time>
      </trkpt>
      <trkpt lat="47.79377" lon="-3.41105">
        <ele>27.89</ele>
        <time>2018-05-31T09:33:38Z</time>
      </trkpt>
      <trkpt lat="47.79402" lon="-3.41112">
        <ele>26.9</ele>
        <time>2018-05-31T09:33:54Z</time>
      </trkpt>
      <trkpt lat="47.79427" lon="-3.41127">
        <ele>26.3</ele>
        <time>2018-05-31T09:34:11Z</time>
      </trkpt>
      <trkpt lat="47.79438" lon="-3.41148">
        <ele>25.55</ele>
        <time>2018-05-31T09:34:23Z</time>
      </trkpt>
      <trkpt lat="47.79441" lon="-3.41178">
        <ele>24.49</ele>
        <time>2018-05-31T09:34:37Z</time>
      </trkpt>
      <trkpt lat="47.79442" lon="-3.41213">
        <ele>23.09</ele>
        <time>2018-05-31T09:34:52Z</time>
      </trkpt>
      <trkpt lat="47.79441" lon="-3.41245">
        <ele>23.02</ele>
        <time>2018-05-31T09:35:04Z</time>
      </trkpt>
      <trkpt lat="47.79441" lon="-3.41289">
        <ele>24.28</ele>
        <time>2018-05-31T09:35:23Z</time>
      </trkpt>
      <trkpt lat="47.7944" lon="-3.41313">
        <ele>25.08</ele>
        <time>2018-05-31T09:35:35Z</time>
      </trkpt>
      <trkpt lat="47.79441" lon="-3.41316">
        <ele>25.2</ele>
        <time>2018-05-31T09:35:37Z</time>
      </trkpt>
      <trkpt lat="47.79465" lon="-3.41309">
        <ele>25.92</ele>
        <time>2018-05-31T09:35:55Z</time>
      </trkpt>
      <trkpt lat="47.79489" lon="-3.41294">
        <ele>25.73</ele>
        <time>2018-05-31T09:36:10Z</time>
      </trkpt>
      <trkpt lat="47.79508" lon="-3.41284">
        <ele>25.39</ele>
        <time>2018-05-31T09:36:23Z</time>
      </trkpt>
      <trkpt lat="47.79521" lon="-3.41276">
        <ele>25.24</ele>
        <time>2018-05-31T09:36:35Z</time>
      </trkpt>
      <trkpt lat="47.79524" lon="-3.41273">
        <ele>25.16</ele>
        <time>2018-05-31T09:36:38Z</time>
      </trkpt>
      <trkpt lat="47.79528" lon="-3.41271">
        <ele>25.09</ele>
        <time>2018-05-31T09:36:41Z</time>
      </trkpt>
      <trkpt lat="47.79553" lon="-3.41256">
        <ele>24.62</ele>
        <time>2018-05-31T09:36:55Z</time>
      </trkpt>
      <trkpt lat="47.79576" lon="-3.41244">
        <ele>24.23</ele>
        <time>2018-05-31T09:37:08Z</time>
      </trkpt>
      <trkpt lat="47.79601" lon="-3.41233">
        <ele>24.23</ele>
        <time>2018-05-31T09:37:23Z</time>
      </trkpt>
      <trkpt lat="47.7962" lon="-3.41223">
        <ele>24.21</ele>
        <time>2018-05-31T09:37:34Z</time>
      </trkpt>
      <trkpt lat="47.79643" lon="-3.41212">
        <ele>23.92</ele>
        <time>2018-05-31T09:37:48Z</time>
      </trkpt>
      <trkpt lat="47.7968" lon="-3.41192">
        <ele>23.88</ele>
        <time>2018-05-31T09:38:09Z</time>
      </trkpt>
      <trkpt lat="47.79706" lon="-3.41184">
        <ele>24.66</ele>
        <time>2018-05-31T09:38:27Z</time>
      </trkpt>
      <trkpt lat="47.79736" lon="-3.41181">
        <ele>25.65</ele>
        <time>2018-05-31T09:38:47Z</time>
      </trkpt>
      <trkpt lat="47.79765" lon="-3.41182">
        <ele>25.99</ele>
        <time>2018-05-31T09:39:05Z</time>
      </trkpt>
      <trkpt lat="47.79797" lon="-3.41184">
        <ele>25.42</ele>
        <time>2018-05-31T09:39:25Z</time>
      </trkpt>
      <trkpt lat="47.79821" lon="-3.41185">
        <ele>24.7</ele>
        <time>2018-05-31T09:39:42Z</time>
      </trkpt>
      <trkpt lat="47.79841" lon="-3.41187">
        <ele>24</ele>
        <time>2018-05-31T09:39:56Z</time>
      </trkpt>
      <trkpt lat="47.79874" lon="-3.41187">
        <ele>23.18</ele>
        <time>2018-05-31T09:40:13Z</time>
      </trkpt>
      <trkpt lat="47.799" lon="-3.41187">
        <ele>21.73</ele>
        <time>2018-05-31T09:40:30Z</time>
      </trkpt>
      <trkpt lat="47.7991" lon="-3.41188">
        <ele>21.52</ele>
        <time>2018-05-31T09:40:36Z</time>
      </trkpt>
      <trkpt lat="47.79931" lon="-3.41187">
        <ele>20.84</ele>
        <time>2018-05-31T09:40:49Z</time>
      </trkpt>
      <trkpt lat="47.79957" lon="-3.41187">
        <ele>20.77</ele>
        <time>2018-05-31T09:41:03Z</time>
      </trkpt>
      <trkpt lat="47.79964" lon="-3.41192">
        <ele>20.77</ele>
        <time>2018-05-31T09:41:09Z</time>
      </trkpt>
      <trkpt lat="47.79966" lon="-3.41203">
        <ele>20.88</ele>
        <time>2018-05-31T09:41:14Z</time>
      </trkpt>
      <trkpt lat="47.79959" lon="-3.41248">
        <ele>20.94</ele>
        <time>2018-05-31T09:41:34Z</time>
      </trkpt>
      <trkpt lat="47.7996" lon="-3.4129">
        <ele>21.36</ele>
        <time>2018-05-31T09:41:52Z</time>
      </trkpt>
      <trkpt lat="47.79956" lon="-3.41327">
        <ele>21.41</ele>
        <time>2018-05-31T09:42:09Z</time>
      </trkpt>
      <trkpt lat="47.79945" lon="-3.41372">
        <ele>20.59</ele>
        <time>2018-05-31T09:42:28Z</time>
      </trkpt>
      <trkpt lat="47.7994" lon="-3.41405">
        <ele>20.87</ele>
        <time>2018-05-31T09:42:41Z</time>
      </trkpt>
      <trkpt lat="47.79935" lon="-3.41441">
        <ele>22.43</ele>
        <time>2018-05-31T09:42:58Z</time>
      </trkpt>
      <trkpt lat="47.79934" lon="-3.41444">
        <ele>22.88</ele>
        <time>2018-05-31T09:43:04Z</time>
      </trkpt>
      <trkpt lat="47.79933" lon="-3.41456">
        <ele>23.05</ele>
        <time>2018-05-31T09:43:13Z</time>
      </trkpt>
      <trkpt lat="47.79933" lon="-3.41458">
        <ele>23.05</ele>
        <time>2018-05-31T09:43:14Z</time>
      </trkpt>
      <trkpt lat="47.79918" lon="-3.41488">
        <ele>22.88</ele>
        <time>2018-05-31T09:43:32Z</time>
      </trkpt>
      <trkpt lat="47.79899" lon="-3.41508">
        <ele>21.05</ele>
        <time>2018-05-31T09:43:46Z</time>
      </trkpt>
      <trkpt lat="47.79875" lon="-3.41526">
        <ele>21.45</ele>
        <time>2018-05-31T09:44:02Z</time>
      </trkpt>
      <trkpt lat="47.79849" lon="-3.41548">
        <ele>21.76</ele>
        <time>2018-05-31T09:44:19Z</time>
      </trkpt>
      <trkpt lat="47.7982" lon="-3.41573">
        <ele>22.27</ele>
        <time>2018-05-31T09:44:39Z</time>
      </trkpt>
      <trkpt lat="47.79802" lon="-3.41587">
        <ele>22.32</ele>
        <time>2018-05-31T09:44:52Z</time>
      </trkpt>
      <trkpt lat="47.798" lon="-3.41594">
        <ele>22.32</ele>
        <time>2018-05-31T09:44:56Z</time>
      </trkpt>
      <trkpt lat="47.79783" lon="-3.41624">
        <ele>22.6</ele>
        <time>2018-05-31T09:45:15Z</time>
      </trkpt>
      <trkpt lat="47.79766" lon="-3.41653">
        <ele>23.83</ele>
        <time>2018-05-31T09:45:34Z</time>
      </trkpt>
      <trkpt lat="47.79758" lon="-3.41687">
        <ele>25.58</ele>
        <time>2018-05-31T09:45:52Z</time>
      </trkpt>
      <trkpt lat="47.79756" lon="-3.41725">
        <ele>28.14</ele>
        <time>2018-05-31T09:46:10Z</time>
      </trkpt>
      <trkpt lat="47.79755" lon="-3.41745">
        <ele>29.1</ele>
        <time>2018-05-31T09:46:22Z</time>
      </trkpt>
      <trkpt lat="47.79754" lon="-3.4176">
        <ele>29.81</ele>
        <time>2018-05-31T09:46:34Z</time>
      </trkpt>
      <trkpt lat="47.79754" lon="-3.41761">
        <ele>29.97</ele>
        <time>2018-05-31T09:46:39Z</time>
      </trkpt>
      <trkpt lat="47.79753" lon="-3.41771">
        <ele>30.16</ele>
        <time>2018-05-31T09:46:43Z</time>
      </trkpt>
      <trkpt lat="47.79755" lon="-3.41814">
        <ele>31.65</ele>
        <time>2018-05-31T09:46:59Z</time>
      </trkpt>
      <trkpt lat="47.7976" lon="-3.41835">
        <ele>32.37</ele>
        <time>2018-05-31T09:47:13Z</time>
      </trkpt>
      <trkpt lat="47.7975" lon="-3.4187">
        <ele>34.14</ele>
        <time>2018-05-31T09:47:27Z</time>
      </trkpt>
      <trkpt lat="47.79747" lon="-3.41897">
        <ele>35.14</ele>
        <time>2018-05-31T09:47:37Z</time>
      </trkpt>
      <trkpt lat="47.79745" lon="-3.41903">
        <ele>35.34</ele>
        <time>2018-05-31T09:47:40Z</time>
      </trkpt>
      <trkpt lat="47.79742" lon="-3.41936">
        <ele>34.96</ele>
        <time>2018-05-31T09:47:53Z</time>
      </trkpt>
      <trkpt lat="47.79741" lon="-3.41942">
        <ele>34.64</ele>
        <time>2018-05-31T09:47:57Z</time>
      </trkpt>
      <trkpt lat="47.79739" lon="-3.41966">
        <ele>33.2</ele>
        <time>2018-05-31T09:48:10Z</time>
      </trkpt>
      <trkpt lat="47.79744" lon="-3.4199">
        <ele>29.96</ele>
        <time>2018-05-31T09:48:23Z</time>
      </trkpt>
      <trkpt lat="47.79745" lon="-3.42014">
        <ele>26.76</ele>
        <time>2018-05-31T09:48:33Z</time>
      </trkpt>
      <trkpt lat="47.79746" lon="-3.42027">
        <ele>23.89</ele>
        <time>2018-05-31T09:48:40Z</time>
      </trkpt>
      <trkpt lat="47.79746" lon="-3.42038">
        <ele>22.03</ele>
        <time>2018-05-31T09:48:44Z</time>
      </trkpt>
      <trkpt lat="47.79747" lon="-3.42043">
        <ele>21.29</ele>
        <time>2018-05-31T09:48:46Z</time>
      </trkpt>
      <trkpt lat="47.79746" lon="-3.42066">
        <ele>19.93</ele>
        <time>2018-05-31T09:48:51Z</time>
      </trkpt>
      <trkpt lat="47.79751" lon="-3.42096">
        <ele>18.24</ele>
        <time>2018-05-31T09:49:02Z</time>
      </trkpt>
      <trkpt lat="47.79754" lon="-3.42132">
        <ele>17.48</ele>
        <time>2018-05-31T09:49:16Z</time>
      </trkpt>
      <trkpt lat="47.79757" lon="-3.4217">
        <ele>17.52</ele>
        <time>2018-05-31T09:49:30Z</time>
      </trkpt>
      <trkpt lat="47.79759" lon="-3.42204">
        <ele>17.85</ele>
        <time>2018-05-31T09:49:43Z</time>
      </trkpt>
      <trkpt lat="47.79757" lon="-3.42235">
        <ele>17.85</ele>
        <time>2018-05-31T09:49:55Z</time>
      </trkpt>
      <trkpt lat="47.79758" lon="-3.42257">
        <ele>18.05</ele>
        <time>2018-05-31T09:50:03Z</time>
      </trkpt>
      <trkpt lat="47.79768" lon="-3.42299">
        <ele>19.45</ele>
        <time>2018-05-31T09:50:21Z</time>
      </trkpt>
      <trkpt lat="47.79792" lon="-3.42305">
        <ele>20.37</ele>
        <time>2018-05-31T09:50:35Z</time>
      </trkpt>
      <trkpt lat="47.7982" lon="-3.42309">
        <ele>21.15</ele>
        <time>2018-05-31T09:50:51Z</time>
      </trkpt>
      <trkpt lat="47.79844" lon="-3.42311">
        <ele>21.75</ele>
        <time>2018-05-31T09:51:06Z</time>
      </trkpt>
      <trkpt lat="47.79875" lon="-3.42313">
        <ele>22.94</ele>
        <time>2018-05-31T09:51:25Z</time>
      </trkpt>
      <trkpt lat="47.79908" lon="-3.42317">
        <ele>24.03</ele>
        <time>2018-05-31T09:51:45Z</time>
      </trkpt>
      <trkpt lat="47.79932" lon="-3.4232">
        <ele>23.97</ele>
        <time>2018-05-31T09:52:00Z</time>
      </trkpt>
      <trkpt lat="47.79951" lon="-3.42335">
        <ele>23.68</ele>
        <time>2018-05-31T09:52:14Z</time>
      </trkpt>
      <trkpt lat="47.79963" lon="-3.42366">
        <ele>24.72</ele>
        <time>2018-05-31T09:52:27Z</time>
      </trkpt>
      <trkpt lat="47.79978" lon="-3.42402">
        <ele>25.73</ele>
        <time>2018-05-31T09:52:43Z</time>
      </trkpt>
      <trkpt lat="47.79983" lon="-3.42413">
        <ele>26.37</ele>
        <time>2018-05-31T09:52:49Z</time>
      </trkpt>
      <trkpt lat="47.79984" lon="-3.42415">
        <ele>26.55</ele>
        <time>2018-05-31T09:52:51Z</time>
      </trkpt>
      <trkpt lat="47.79986" lon="-3.42419">
        <ele>26.91</ele>
        <time>2018-05-31T09:52:55Z</time>
      </trkpt>
      <trkpt lat="47.79989" lon="-3.42427">
        <ele>27.14</ele>
        <time>2018-05-31T09:53:01Z</time>
      </trkpt>
      <trkpt lat="47.79989" lon="-3.42433">
        <ele>27.32</ele>
        <time>2018-05-31T09:53:04Z</time>
      </trkpt>
      <trkpt lat="47.79996" lon="-3.42458">
        <ele>28.11</ele>
        <time>2018-05-31T09:53:18Z</time>
      </trkpt>
      <trkpt lat="47.79996" lon="-3.4246">
        <ele>28.2</ele>
        <time>2018-05-31T09:53:19Z</time>
      </trkpt>
      <trkpt lat="47.80007" lon="-3.42482">
        <ele>29.38</ele>
        <time>2018-05-31T09:53:35Z</time>
      </trkpt>
      <trkpt lat="47.80011" lon="-3.42481">
        <ele>29.39</ele>
        <time>2018-05-31T09:53:38Z</time>
      </trkpt>
      <trkpt lat="47.80013" lon="-3.4248">
        <ele>29.28</ele>
        <time>2018-05-31T09:53:40Z</time>
      </trkpt>
      <trkpt lat="47.80024" lon="-3.42457">
        <ele>27.35</ele>
        <time>2018-05-31T09:53:54Z</time>
      </trkpt>
      <trkpt lat="47.80024" lon="-3.42454">
        <ele>27.1</ele>
        <time>2018-05-31T09:53:56Z</time>
      </trkpt>
      <trkpt lat="47.8004" lon="-3.42449">
        <ele>24.15</ele>
        <time>2018-05-31T09:54:11Z</time>
      </trkpt>
      <trkpt lat="47.8006" lon="-3.42465">
        <ele>21.07</ele>
        <time>2018-05-31T09:54:27Z</time>
      </trkpt>
      <trkpt lat="47.8008" lon="-3.42479">
        <ele>18.66</ele>
        <time>2018-05-31T09:54:39Z</time>
      </trkpt>
      <trkpt lat="47.80104" lon="-3.42504">
        <ele>16.93</ele>
        <time>2018-05-31T09:54:54Z</time>
      </trkpt>
      <trkpt lat="47.80112" lon="-3.42516">
        <ele>17.66</ele>
        <time>2018-05-31T09:55:05Z</time>
      </trkpt>
      <trkpt lat="47.8015" lon="-3.42552">
        <ele>21.19</ele>
        <time>2018-05-31T09:55:20Z</time>
      </trkpt>
      <trkpt lat="47.80159" lon="-3.42559">
        <ele>22.22</ele>
        <time>2018-05-31T09:55:23Z</time>
      </trkpt>
      <trkpt lat="47.80189" lon="-3.42579">
        <ele>25.79</ele>
        <time>2018-05-31T09:55:34Z</time>
      </trkpt>
      <trkpt lat="47.80203" lon="-3.42587">
        <ele>27.17</ele>
        <time>2018-05-31T09:55:38Z</time>
      </trkpt>
      <trkpt lat="47.80241" lon="-3.42634">
        <ele>30.53</ele>
        <time>2018-05-31T09:55:49Z</time>
      </trkpt>
      <trkpt lat="47.80281" lon="-3.42641">
        <ele>31.81</ele>
        <time>2018-05-31T09:56:03Z</time>
      </trkpt>
      <trkpt lat="47.80311" lon="-3.42637">
        <ele>31.35</ele>
        <time>2018-05-31T09:56:18Z</time>
      </trkpt>
      <trkpt lat="47.80338" lon="-3.42649">
        <ele>30.66</ele>
        <time>2018-05-31T09:56:34Z</time>
      </trkpt>
      <trkpt lat="47.80347" lon="-3.42677">
        <ele>30.82</ele>
        <time>2018-05-31T09:56:47Z</time>
      </trkpt>
      <trkpt lat="47.80349" lon="-3.42687">
        <ele>30.99</ele>
        <time>2018-05-31T09:56:51Z</time>
      </trkpt>
      <trkpt lat="47.80349" lon="-3.42693">
        <ele>31.08</ele>
        <time>2018-05-31T09:56:53Z</time>
      </trkpt>
      <trkpt lat="47.80351" lon="-3.42709">
        <ele>31.71</ele>
        <time>2018-05-31T09:56:59Z</time>
      </trkpt>
      <trkpt lat="47.80351" lon="-3.42721">
        <ele>32.07</ele>
        <time>2018-05-31T09:57:05Z</time>
      </trkpt>
      <trkpt lat="47.80354" lon="-3.42726">
        <ele>32.14</ele>
        <time>2018-05-31T09:57:07Z</time>
      </trkpt>
      <trkpt lat="47.80373" lon="-3.42726">
        <ele>32.07</ele>
        <time>2018-05-31T09:57:19Z</time>
      </trkpt>
      <trkpt lat="47.80377" lon="-3.42725">
        <ele>31.75</ele>
        <time>2018-05-31T09:57:22Z</time>
      </trkpt>
      <trkpt lat="47.80397" lon="-3.42722">
        <ele>30.05</ele>
        <time>2018-05-31T09:57:35Z</time>
      </trkpt>
      <trkpt lat="47.80399" lon="-3.42721">
        <ele>29.69</ele>
        <time>2018-05-31T09:57:37Z</time>
      </trkpt>
      <trkpt lat="47.80406" lon="-3.42718">
        <ele>28.35</ele>
        <time>2018-05-31T09:57:43Z</time>
      </trkpt>
      <trkpt lat="47.80422" lon="-3.42716">
        <ele>27.65</ele>
        <time>2018-05-31T09:57:51Z</time>
      </trkpt>
      <trkpt lat="47.80437" lon="-3.42716">
        <ele>26.43</ele>
        <time>2018-05-31T09:57:59Z</time>
      </trkpt>
      <trkpt lat="47.80463" lon="-3.42721">
        <ele>24.18</ele>
        <time>2018-05-31T09:58:14Z</time>
      </trkpt>
      <trkpt lat="47.80471" lon="-3.4272">
        <ele>23.81</ele>
        <time>2018-05-31T09:58:18Z</time>
      </trkpt>
      <trkpt lat="47.80502" lon="-3.42719">
        <ele>22.98</ele>
        <time>2018-05-31T09:58:32Z</time>
      </trkpt>
      <trkpt lat="47.80516" lon="-3.42694">
        <ele>22.3</ele>
        <time>2018-05-31T09:58:45Z</time>
      </trkpt>
      <trkpt lat="47.80521" lon="-3.42664">
        <ele>21.19</ele>
        <time>2018-05-31T09:58:58Z</time>
      </trkpt>
      <trkpt lat="47.80536" lon="-3.42628">
        <ele>20.52</ele>
        <time>2018-05-31T09:59:14Z</time>
      </trkpt>
      <trkpt lat="47.8055" lon="-3.42584">
        <ele>21.12</ele>
        <time>2018-05-31T09:59:34Z</time>
      </trkpt>
      <trkpt lat="47.80554" lon="-3.4254">
        <ele>21.01</ele>
        <time>2018-05-31T09:59:51Z</time>
      </trkpt>
      <trkpt lat="47.80559" lon="-3.42507">
        <ele>20.23</ele>
        <time>2018-05-31T10:00:05Z</time>
      </trkpt>
      <trkpt lat="47.80566" lon="-3.42499">
        <ele>19.42</ele>
        <time>2018-05-31T10:00:11Z</time>
      </trkpt>
      <trkpt lat="47.80573" lon="-3.42482">
        <ele>16.39</ele>
        <time>2018-05-31T10:00:25Z</time>
      </trkpt>
      <trkpt lat="47.80584" lon="-3.42475">
        <ele>13.55</ele>
        <time>2018-05-31T10:00:34Z</time>
      </trkpt>
      <trkpt lat="47.80594" lon="-3.42479">
        <ele>12.91</ele>
        <time>2018-05-31T10:00:43Z</time>
      </trkpt>
      <trkpt lat="47.80596" lon="-3.42482">
        <ele>12.95</ele>
        <time>2018-05-31T10:00:44Z</time>
      </trkpt>
      <trkpt lat="47.80601" lon="-3.42488">
        <ele>13.08</ele>
        <time>2018-05-31T10:00:46Z</time>
      </trkpt>
      <trkpt lat="47.80605" lon="-3.425">
        <ele>13.45</ele>
        <time>2018-05-31T10:00:49Z</time>
      </trkpt>
      <trkpt lat="47.80611" lon="-3.42534">
        <ele>16.65</ele>
        <time>2018-05-31T10:00:59Z</time>
      </trkpt>
      <trkpt lat="47.80613" lon="-3.42558">
        <ele>19.17</ele>
        <time>2018-05-31T10:01:10Z</time>
      </trkpt>
      <trkpt lat="47.80613" lon="-3.42558">
        <ele>19.28</ele>
        <time>2018-05-31T10:01:11Z</time>
      </trkpt>
      <trkpt lat="47.80624" lon="-3.42544">
        <ele>18.79</ele>
        <time>2018-05-31T10:01:30Z</time>
      </trkpt>
      <trkpt lat="47.80635" lon="-3.42552">
        <ele>16.21</ele>
        <time>2018-05-31T10:01:43Z</time>
      </trkpt>
      <trkpt lat="47.80637" lon="-3.42581">
        <ele>14.47</ele>
        <time>2018-05-31T10:02:03Z</time>
      </trkpt>
      <trkpt lat="47.80635" lon="-3.42593">
        <ele>14.56</ele>
        <time>2018-05-31T10:02:09Z</time>
      </trkpt>
      <trkpt lat="47.80633" lon="-3.42627">
        <ele>14.91</ele>
        <time>2018-05-31T10:02:22Z</time>
      </trkpt>
      <trkpt lat="47.80637" lon="-3.42651">
        <ele>15.36</ele>
        <time>2018-05-31T10:02:34Z</time>
      </trkpt>
      <trkpt lat="47.80633" lon="-3.42684">
        <ele>16.06</ele>
        <time>2018-05-31T10:02:47Z</time>
      </trkpt>
      <trkpt lat="47.80618" lon="-3.42713">
        <ele>17.35</ele>
        <time>2018-05-31T10:03:00Z</time>
      </trkpt>
      <trkpt lat="47.80612" lon="-3.42722">
        <ele>18.12</ele>
        <time>2018-05-31T10:03:11Z</time>
      </trkpt>
      <trkpt lat="47.80603" lon="-3.42739">
        <ele>18.25</ele>
        <time>2018-05-31T10:03:29Z</time>
      </trkpt>
      <trkpt lat="47.80593" lon="-3.42743">
        <ele>18.72</ele>
        <time>2018-05-31T10:03:52Z</time>
      </trkpt>
      <trkpt lat="47.80587" lon="-3.42745">
        <ele>20.09</ele>
        <time>2018-05-31T10:04:11Z</time>
      </trkpt>
      <trkpt lat="47.80582" lon="-3.42744">
        <ele>21</ele>
        <time>2018-05-31T10:04:27Z</time>
      </trkpt>
      <trkpt lat="47.80578" lon="-3.4275">
        <ele>21.23</ele>
        <time>2018-05-31T10:04:44Z</time>
      </trkpt>
      <trkpt lat="47.80576" lon="-3.42753">
        <ele>21.26</ele>
        <time>2018-05-31T10:04:48Z</time>
      </trkpt>
      <trkpt lat="47.80571" lon="-3.42762">
        <ele>21.1</ele>
        <time>2018-05-31T10:05:07Z</time>
      </trkpt>
      <trkpt lat="47.80571" lon="-3.42762">
        <ele>20.38</ele>
        <time>2018-05-31T10:05:26Z</time>
      </trkpt>
      <trkpt lat="47.80576" lon="-3.42769">
        <ele>19.27</ele>
        <time>2018-05-31T10:05:44Z</time>
      </trkpt>
      <trkpt lat="47.80578" lon="-3.42768">
        <ele>16.95</ele>
        <time>2018-05-31T10:05:59Z</time>
      </trkpt>
      <trkpt lat="47.80577" lon="-3.42772">
        <ele>16.66</ele>
        <time>2018-05-31T10:06:16Z</time>
      </trkpt>
      <trkpt lat="47.80575" lon="-3.42781">
        <ele>17.07</ele>
        <time>2018-05-31T10:06:37Z</time>
      </trkpt>
      <trkpt lat="47.80574" lon="-3.42786">
        <ele>17.09</ele>
        <time>2018-05-31T10:07:07Z</time>
      </trkpt>
      <trkpt lat="47.80572" lon="-3.42788">
        <ele>17.33</ele>
        <time>2018-05-31T10:07:38Z</time>
      </trkpt>
      <trkpt lat="47.80571" lon="-3.42789">
        <ele>17.21</ele>
        <time>2018-05-31T10:08:02Z</time>
      </trkpt>
      <trkpt lat="47.80562" lon="-3.42806">
        <ele>17.3</ele>
        <time>2018-05-31T10:08:20Z</time>
      </trkpt>
      <trkpt lat="47.80561" lon="-3.4281">
        <ele>17.34</ele>
        <time>2018-05-31T10:08:22Z</time>
      </trkpt>
      <trkpt lat="47.8056" lon="-3.42817">
        <ele>17.31</ele>
        <time>2018-05-31T10:08:26Z</time>
      </trkpt>
      <trkpt lat="47.8056" lon="-3.42835">
        <ele>17.27</ele>
        <time>2018-05-31T10:08:39Z</time>
      </trkpt>
      <trkpt lat="47.80562" lon="-3.42851">
        <ele>17.22</ele>
        <time>2018-05-31T10:08:47Z</time>
      </trkpt>
      <trkpt lat="47.8057" lon="-3.42881">
        <ele>16.94</ele>
        <time>2018-05-31T10:09:00Z</time>
      </trkpt>
      <trkpt lat="47.80572" lon="-3.42891">
        <ele>16.83</ele>
        <time>2018-05-31T10:09:05Z</time>
      </trkpt>
      <trkpt lat="47.80572" lon="-3.42913">
        <ele>16.7</ele>
        <time>2018-05-31T10:09:13Z</time>
      </trkpt>
      <trkpt lat="47.80566" lon="-3.42943">
        <ele>16.6</ele>
        <time>2018-05-31T10:09:27Z</time>
      </trkpt>
      <trkpt lat="47.80559" lon="-3.42977">
        <ele>17.04</ele>
        <time>2018-05-31T10:09:41Z</time>
      </trkpt>
      <trkpt lat="47.80546" lon="-3.42997">
        <ele>17.77</ele>
        <time>2018-05-31T10:09:54Z</time>
      </trkpt>
      <trkpt lat="47.8053" lon="-3.43012">
        <ele>17.89</ele>
        <time>2018-05-31T10:10:08Z</time>
      </trkpt>
      <trkpt lat="47.80524" lon="-3.43019">
        <ele>17.37</ele>
        <time>2018-05-31T10:10:16Z</time>
      </trkpt>
      <trkpt lat="47.80525" lon="-3.43034">
        <ele>17.46</ele>
        <time>2018-05-31T10:10:38Z</time>
      </trkpt>
      <trkpt lat="47.80525" lon="-3.43037">
        <ele>17.41</ele>
        <time>2018-05-31T10:10:40Z</time>
      </trkpt>
      <trkpt lat="47.80524" lon="-3.4305">
        <ele>16.65</ele>
        <time>2018-05-31T10:10:54Z</time>
      </trkpt>
      <trkpt lat="47.80502" lon="-3.43053">
        <ele>16.63</ele>
        <time>2018-05-31T10:11:08Z</time>
      </trkpt>
      <trkpt lat="47.80477" lon="-3.4305">
        <ele>16.76</ele>
        <time>2018-05-31T10:11:24Z</time>
      </trkpt>
      <trkpt lat="47.80458" lon="-3.43044">
        <ele>16.59</ele>
        <time>2018-05-31T10:11:37Z</time>
      </trkpt>
      <trkpt lat="47.80454" lon="-3.43043">
        <ele>16.6</ele>
        <time>2018-05-31T10:11:41Z</time>
      </trkpt>
      <trkpt lat="47.80448" lon="-3.4305">
        <ele>16.67</ele>
        <time>2018-05-31T10:11:48Z</time>
      </trkpt>
      <trkpt lat="47.80441" lon="-3.43051">
        <ele>16.82</ele>
        <time>2018-05-31T10:11:54Z</time>
      </trkpt>
      <trkpt lat="47.80427" lon="-3.43051">
        <ele>17.09</ele>
        <time>2018-05-31T10:12:01Z</time>
      </trkpt>
      <trkpt lat="47.80415" lon="-3.43059">
        <ele>17.14</ele>
        <time>2018-05-31T10:12:06Z</time>
      </trkpt>
      <trkpt lat="47.80408" lon="-3.43065">
        <ele>17.19</ele>
        <time>2018-05-31T10:12:08Z</time>
      </trkpt>
      <trkpt lat="47.80376" lon="-3.43118">
        <ele>17.19</ele>
        <time>2018-05-31T10:12:17Z</time>
      </trkpt>
      <trkpt lat="47.80361" lon="-3.43154">
        <ele>17.54</ele>
        <time>2018-05-31T10:12:26Z</time>
      </trkpt>
      <trkpt lat="47.80355" lon="-3.43177">
        <ele>17.7</ele>
        <time>2018-05-31T10:12:30Z</time>
      </trkpt>
      <trkpt lat="47.80333" lon="-3.43226">
        <ele>17.87</ele>
        <time>2018-05-31T10:12:39Z</time>
      </trkpt>
      <trkpt lat="47.80316" lon="-3.43257">
        <ele>17.75</ele>
        <time>2018-05-31T10:12:45Z</time>
      </trkpt>
      <trkpt lat="47.80283" lon="-3.43299">
        <ele>18.35</ele>
        <time>2018-05-31T10:12:57Z</time>
      </trkpt>
      <trkpt lat="47.80273" lon="-3.4332">
        <ele>18.58</ele>
        <time>2018-05-31T10:13:07Z</time>
      </trkpt>
      <trkpt lat="47.80274" lon="-3.43333">
        <ele>18.68</ele>
        <time>2018-05-31T10:13:11Z</time>
      </trkpt>
      <trkpt lat="47.80292" lon="-3.43362">
        <ele>19.93</ele>
        <time>2018-05-31T10:13:26Z</time>
      </trkpt>
      <trkpt lat="47.80303" lon="-3.43382">
        <ele>20.57</ele>
        <time>2018-05-31T10:13:37Z</time>
      </trkpt>
      <trkpt lat="47.80298" lon="-3.43414">
        <ele>22.06</ele>
        <time>2018-05-31T10:13:52Z</time>
      </trkpt>
      <trkpt lat="47.80296" lon="-3.43425">
        <ele>22.7</ele>
        <time>2018-05-31T10:13:58Z</time>
      </trkpt>
      <trkpt lat="47.80293" lon="-3.43435">
        <ele>23.22</ele>
        <time>2018-05-31T10:14:03Z</time>
      </trkpt>
      <trkpt lat="47.80286" lon="-3.43465">
        <ele>24.53</ele>
        <time>2018-05-31T10:14:17Z</time>
      </trkpt>
      <trkpt lat="47.80287" lon="-3.43491">
        <ele>25.47</ele>
        <time>2018-05-31T10:14:33Z</time>
      </trkpt>
      <trkpt lat="47.8029" lon="-3.43495">
        <ele>25.57</ele>
        <time>2018-05-31T10:14:37Z</time>
      </trkpt>
      <trkpt lat="47.80305" lon="-3.43504">
        <ele>25.87</ele>
        <time>2018-05-31T10:14:47Z</time>
      </trkpt>
      <trkpt lat="47.80306" lon="-3.43506">
        <ele>25.89</ele>
        <time>2018-05-31T10:14:50Z</time>
      </trkpt>
      <trkpt lat="47.80307" lon="-3.43512">
        <ele>26.01</ele>
        <time>2018-05-31T10:14:54Z</time>
      </trkpt>
      <trkpt lat="47.80309" lon="-3.43526">
        <ele>26.26</ele>
        <time>2018-05-31T10:15:03Z</time>
      </trkpt>
      <trkpt lat="47.80315" lon="-3.43529">
        <ele>26.21</ele>
        <time>2018-05-31T10:15:06Z</time>
      </trkpt>
      <trkpt lat="47.80319" lon="-3.43536">
        <ele>26.32</ele>
        <time>2018-05-31T10:15:11Z</time>
      </trkpt>
      <trkpt lat="47.80337" lon="-3.43538">
        <ele>26.48</ele>
        <time>2018-05-31T10:15:25Z</time>
      </trkpt>
      <trkpt lat="47.80341" lon="-3.43539">
        <ele>26.45</ele>
        <time>2018-05-31T10:15:28Z</time>
      </trkpt>
      <trkpt lat="47.8036" lon="-3.43542">
        <ele>26.38</ele>
        <time>2018-05-31T10:15:39Z</time>
      </trkpt>
      <trkpt lat="47.80366" lon="-3.43548">
        <ele>26.27</ele>
        <time>2018-05-31T10:15:43Z</time>
      </trkpt>
      <trkpt lat="47.80369" lon="-3.43556">
        <ele>26.14</ele>
        <time>2018-05-31T10:15:49Z</time>
      </trkpt>
      <trkpt lat="47.80372" lon="-3.43582">
        <ele>26.54</ele>
        <time>2018-05-31T10:16:02Z</time>
      </trkpt>
      <trkpt lat="47.80375" lon="-3.43593">
        <ele>26.75</ele>
        <time>2018-05-31T10:16:09Z</time>
      </trkpt>
      <trkpt lat="47.80377" lon="-3.43597">
        <ele>26.8</ele>
        <time>2018-05-31T10:16:11Z</time>
      </trkpt>
      <trkpt lat="47.80381" lon="-3.43606">
        <ele>26.96</ele>
        <time>2018-05-31T10:16:15Z</time>
      </trkpt>
      <trkpt lat="47.80382" lon="-3.43603">
        <ele>27.16</ele>
        <time>2018-05-31T10:16:20Z</time>
      </trkpt>
      <trkpt lat="47.80412" lon="-3.43606">
        <ele>26.56</ele>
        <time>2018-05-31T10:16:37Z</time>
      </trkpt>
      <trkpt lat="47.80435" lon="-3.43616">
        <ele>25.63</ele>
        <time>2018-05-31T10:16:53Z</time>
      </trkpt>
      <trkpt lat="47.80454" lon="-3.43624">
        <ele>25.19</ele>
        <time>2018-05-31T10:17:08Z</time>
      </trkpt>
      <trkpt lat="47.80472" lon="-3.43631">
        <ele>24.53</ele>
        <time>2018-05-31T10:17:24Z</time>
      </trkpt>
      <trkpt lat="47.80473" lon="-3.43631">
        <ele>24.47</ele>
        <time>2018-05-31T10:17:25Z</time>
      </trkpt>
      <trkpt lat="47.80492" lon="-3.43636">
        <ele>23.5</ele>
        <time>2018-05-31T10:17:38Z</time>
      </trkpt>
      <trkpt lat="47.80518" lon="-3.43647">
        <ele>23</ele>
        <time>2018-05-31T10:17:53Z</time>
      </trkpt>
      <trkpt lat="47.80521" lon="-3.43657">
        <ele>22.99</ele>
        <time>2018-05-31T10:17:58Z</time>
      </trkpt>
      <trkpt lat="47.80542" lon="-3.4369">
        <ele>7.7</ele>
        <time>2018-05-31T11:10:45Z</time>
      </trkpt>
      <trkpt lat="47.80548" lon="-3.43673">
        <ele>7.48</ele>
        <time>2018-05-31T11:11:04Z</time>
      </trkpt>
      <trkpt lat="47.80548" lon="-3.43672">
        <ele>7.48</ele>
        <time>2018-05-31T11:11:05Z</time>
      </trkpt>
      <trkpt lat="47.80547" lon="-3.43666">
        <ele>7.47</ele>
        <time>2018-05-31T11:11:12Z</time>
      </trkpt>
      <trkpt lat="47.80548" lon="-3.43661">
        <ele>8.08</ele>
        <time>2018-05-31T11:11:38Z</time>
      </trkpt>
      <trkpt lat="47.8055" lon="-3.43667">
        <ele>7.87</ele>
        <time>2018-05-31T11:11:51Z</time>
      </trkpt>
      <trkpt lat="47.80554" lon="-3.43664">
        <ele>8.27</ele>
        <time>2018-05-31T11:12:17Z</time>
      </trkpt>
      <trkpt lat="47.8055" lon="-3.43661">
        <ele>7.94</ele>
        <time>2018-05-31T11:12:44Z</time>
      </trkpt>
      <trkpt lat="47.80549" lon="-3.43666">
        <ele>8.15</ele>
        <time>2018-05-31T11:13:15Z</time>
      </trkpt>
      <trkpt lat="47.80548" lon="-3.43663">
        <ele>8.13</ele>
        <time>2018-05-31T11:13:40Z</time>
      </trkpt>
      <trkpt lat="47.80558" lon="-3.43648">
        <ele>8</ele>
        <time>2018-05-31T11:14:02Z</time>
      </trkpt>
      <trkpt lat="47.80573" lon="-3.43619">
        <ele>8.37</ele>
        <time>2018-05-31T11:14:25Z</time>
      </trkpt>
      <trkpt lat="47.8059" lon="-3.43588">
        <ele>7.87</ele>
        <time>2018-05-31T11:14:44Z</time>
      </trkpt>
      <trkpt lat="47.80605" lon="-3.43559">
        <ele>6.96</ele>
        <time>2018-05-31T11:15:04Z</time>
      </trkpt>
      <trkpt lat="47.80623" lon="-3.43542">
        <ele>6.27</ele>
        <time>2018-05-31T11:15:23Z</time>
      </trkpt>
      <trkpt lat="47.80648" lon="-3.4352">
        <ele>5.27</ele>
        <time>2018-05-31T11:15:43Z</time>
      </trkpt>
      <trkpt lat="47.80669" lon="-3.43497">
        <ele>4.85</ele>
        <time>2018-05-31T11:16:01Z</time>
      </trkpt>
      <trkpt lat="47.80686" lon="-3.43479">
        <ele>4.73</ele>
        <time>2018-05-31T11:16:18Z</time>
      </trkpt>
      <trkpt lat="47.80705" lon="-3.43458">
        <ele>4.36</ele>
        <time>2018-05-31T11:16:41Z</time>
      </trkpt>
      <trkpt lat="47.80707" lon="-3.43458">
        <ele>4.32</ele>
        <time>2018-05-31T11:16:43Z</time>
      </trkpt>
      <trkpt lat="47.80712" lon="-3.43455">
        <ele>4.25</ele>
        <time>2018-05-31T11:16:45Z</time>
      </trkpt>
      <trkpt lat="47.8072" lon="-3.43448">
        <ele>4.05</ele>
        <time>2018-05-31T11:16:49Z</time>
      </trkpt>
      <trkpt lat="47.80737" lon="-3.43435">
        <ele>4.31</ele>
        <time>2018-05-31T11:16:59Z</time>
      </trkpt>
      <trkpt lat="47.80754" lon="-3.43414">
        <ele>4.02</ele>
        <time>2018-05-31T11:21:00Z</time>
      </trkpt>
      <trkpt lat="47.80767" lon="-3.43401">
        <ele>4.68</ele>
        <time>2018-05-31T11:21:13Z</time>
      </trkpt>
      <trkpt lat="47.80775" lon="-3.43385">
        <ele>5.37</ele>
        <time>2018-05-31T11:21:24Z</time>
      </trkpt>
      <trkpt lat="47.80781" lon="-3.43368">
        <ele>6.49</ele>
        <time>2018-05-31T11:21:36Z</time>
      </trkpt>
      <trkpt lat="47.80794" lon="-3.43337">
        <ele>7.33</ele>
        <time>2018-05-31T11:21:52Z</time>
      </trkpt>
      <trkpt lat="47.80803" lon="-3.43303">
        <ele>7.84</ele>
        <time>2018-05-31T11:22:05Z</time>
      </trkpt>
      <trkpt lat="47.80812" lon="-3.43275">
        <ele>8.72</ele>
        <time>2018-05-31T11:22:19Z</time>
      </trkpt>
      <trkpt lat="47.80813" lon="-3.43271">
        <ele>8.82</ele>
        <time>2018-05-31T11:22:21Z</time>
      </trkpt>
      <trkpt lat="47.80822" lon="-3.4325">
        <ele>9.39</ele>
        <time>2018-05-31T11:22:32Z</time>
      </trkpt>
      <trkpt lat="47.80836" lon="-3.43225">
        <ele>9.51</ele>
        <time>2018-05-31T11:22:45Z</time>
      </trkpt>
      <trkpt lat="47.80854" lon="-3.43199">
        <ele>9.12</ele>
        <time>2018-05-31T11:22:59Z</time>
      </trkpt>
      <trkpt lat="47.80879" lon="-3.43177">
        <ele>7.76</ele>
        <time>2018-05-31T11:23:15Z</time>
      </trkpt>
      <trkpt lat="47.80895" lon="-3.43167">
        <ele>6.48</ele>
        <time>2018-05-31T11:23:28Z</time>
      </trkpt>
      <trkpt lat="47.80914" lon="-3.43154">
        <ele>5.17</ele>
        <time>2018-05-31T11:23:44Z</time>
      </trkpt>
      <trkpt lat="47.8093" lon="-3.43142">
        <ele>4.73</ele>
        <time>2018-05-31T11:23:56Z</time>
      </trkpt>
      <trkpt lat="47.80948" lon="-3.43123">
        <ele>4.35</ele>
        <time>2018-05-31T11:24:11Z</time>
      </trkpt>
      <trkpt lat="47.80961" lon="-3.43102">
        <ele>4.08</ele>
        <time>2018-05-31T11:24:23Z</time>
      </trkpt>
      <trkpt lat="47.80968" lon="-3.43077">
        <ele>4.25</ele>
        <time>2018-05-31T11:24:37Z</time>
      </trkpt>
      <trkpt lat="47.8097" lon="-3.43072">
        <ele>4.24</ele>
        <time>2018-05-31T11:24:39Z</time>
      </trkpt>
      <trkpt lat="47.80976" lon="-3.43045">
        <ele>4.3</ele>
        <time>2018-05-31T11:24:49Z</time>
      </trkpt>
      <trkpt lat="47.80975" lon="-3.43036">
        <ele>4.39</ele>
        <time>2018-05-31T11:24:53Z</time>
      </trkpt>
      <trkpt lat="47.80979" lon="-3.43026">
        <ele>4.37</ele>
        <time>2018-05-31T11:24:58Z</time>
      </trkpt>
      <trkpt lat="47.80983" lon="-3.43">
        <ele>4.34</ele>
        <time>2018-05-31T11:25:10Z</time>
      </trkpt>
      <trkpt lat="47.80989" lon="-3.42956">
        <ele>4.01</ele>
        <time>2018-05-31T11:25:26Z</time>
      </trkpt>
      <trkpt lat="47.80988" lon="-3.42929">
        <ele>3.59</ele>
        <time>2018-05-31T11:25:38Z</time>
      </trkpt>
      <trkpt lat="47.80992" lon="-3.42891">
        <ele>2.36</ele>
        <time>2018-05-31T11:25:53Z</time>
      </trkpt>
      <trkpt lat="47.81003" lon="-3.42851">
        <ele>0.59</ele>
        <time>2018-05-31T11:26:10Z</time>
      </trkpt>
      <trkpt lat="47.81012" lon="-3.42817">
        <ele>-0.15</ele>
        <time>2018-05-31T11:26:24Z</time>
      </trkpt>
      <trkpt lat="47.81014" lon="-3.42806">
        <ele>-0.21</ele>
        <time>2018-05-31T11:26:29Z</time>
      </trkpt>
      <trkpt lat="47.81018" lon="-3.42798">
        <ele>-0.21</ele>
        <time>2018-05-31T11:26:33Z</time>
      </trkpt>
      <trkpt lat="47.81029" lon="-3.42766">
        <ele>-0.48</ele>
        <time>2018-05-31T11:26:49Z</time>
      </trkpt>
      <trkpt lat="47.8103" lon="-3.42765">
        <ele>-0.52</ele>
        <time>2018-05-31T11:26:50Z</time>
      </trkpt>
      <trkpt lat="47.8103" lon="-3.42755">
        <ele>-0.68</ele>
        <time>2018-05-31T11:26:56Z</time>
      </trkpt>
      <trkpt lat="47.81019" lon="-3.42746">
        <ele>-1.49</ele>
        <time>2018-05-31T11:27:10Z</time>
      </trkpt>
      <trkpt lat="47.81006" lon="-3.42737">
        <ele>-2.14</ele>
        <time>2018-05-31T11:27:23Z</time>
      </trkpt>
      <trkpt lat="47.80983" lon="-3.42714">
        <ele>-2.25</ele>
        <time>2018-05-31T11:27:43Z</time>
      </trkpt>
      <trkpt lat="47.80962" lon="-3.42695">
        <ele>-2.38</ele>
        <time>2018-05-31T11:28:00Z</time>
      </trkpt>
      <trkpt lat="47.80939" lon="-3.42669">
        <ele>-2.02</ele>
        <time>2018-05-31T11:28:17Z</time>
      </trkpt>
      <trkpt lat="47.809" lon="-3.42633">
        <ele>-2.59</ele>
        <time>2018-05-31T11:28:42Z</time>
      </trkpt>
      <trkpt lat="47.80887" lon="-3.4261">
        <ele>-3.66</ele>
        <time>2018-05-31T11:28:55Z</time>
      </trkpt>
      <trkpt lat="47.8088" lon="-3.42594">
        <ele>-3.97</ele>
        <time>2018-05-31T11:29:03Z</time>
      </trkpt>
      <trkpt lat="47.80861" lon="-3.42557">
        <ele>-3.49</ele>
        <time>2018-05-31T11:29:21Z</time>
      </trkpt>
      <trkpt lat="47.80848" lon="-3.42511">
        <ele>-5.09</ele>
        <time>2018-05-31T11:29:42Z</time>
      </trkpt>
      <trkpt lat="47.80847" lon="-3.42499">
        <ele>-4.51</ele>
        <time>2018-05-31T11:29:50Z</time>
      </trkpt>
      <trkpt lat="47.80842" lon="-3.42474">
        <ele>-5.64</ele>
        <time>2018-05-31T11:30:11Z</time>
      </trkpt>
      <trkpt lat="47.80844" lon="-3.42432">
        <ele>-7.24</ele>
        <time>2018-05-31T11:30:34Z</time>
      </trkpt>
      <trkpt lat="47.80847" lon="-3.42423">
        <ele>-7.58</ele>
        <time>2018-05-31T11:30:39Z</time>
      </trkpt>
      <trkpt lat="47.80853" lon="-3.42384">
        <ele>-7.51</ele>
        <time>2018-05-31T11:30:55Z</time>
      </trkpt>
      <trkpt lat="47.80861" lon="-3.42353">
        <ele>-8.69</ele>
        <time>2018-05-31T11:31:12Z</time>
      </trkpt>
      <trkpt lat="47.80861" lon="-3.42341">
        <ele>-8.92</ele>
        <time>2018-05-31T11:31:16Z</time>
      </trkpt>
      <trkpt lat="47.80867" lon="-3.42292">
        <ele>-9.52</ele>
        <time>2018-05-31T11:31:36Z</time>
      </trkpt>
      <trkpt lat="47.80872" lon="-3.42255">
        <ele>-10.16</ele>
        <time>2018-05-31T11:31:50Z</time>
      </trkpt>
      <trkpt lat="47.80874" lon="-3.42248">
        <ele>-10.27</ele>
        <time>2018-05-31T11:31:54Z</time>
      </trkpt>
      <trkpt lat="47.8088" lon="-3.42235">
        <ele>-10.42</ele>
        <time>2018-05-31T11:31:59Z</time>
      </trkpt>
      <trkpt lat="47.80885" lon="-3.4223">
        <ele>-10.47</ele>
        <time>2018-05-31T11:32:04Z</time>
      </trkpt>
      <trkpt lat="47.80889" lon="-3.42222">
        <ele>-10.38</ele>
        <time>2018-05-31T11:32:09Z</time>
      </trkpt>
      <trkpt lat="47.80892" lon="-3.42218">
        <ele>-10.41</ele>
        <time>2018-05-31T11:32:11Z</time>
      </trkpt>
      <trkpt lat="47.80903" lon="-3.42192">
        <ele>-10.86</ele>
        <time>2018-05-31T11:32:24Z</time>
      </trkpt>
      <trkpt lat="47.80931" lon="-3.42156">
        <ele>-10.88</ele>
        <time>2018-05-31T11:32:44Z</time>
      </trkpt>
      <trkpt lat="47.80937" lon="-3.4215">
        <ele>-11.01</ele>
        <time>2018-05-31T11:32:48Z</time>
      </trkpt>
      <trkpt lat="47.80958" lon="-3.42146">
        <ele>-11.06</ele>
        <time>2018-05-31T11:33:04Z</time>
      </trkpt>
      <trkpt lat="47.80963" lon="-3.42139">
        <ele>-9.74</ele>
        <time>2018-05-31T11:33:16Z</time>
      </trkpt>
      <trkpt lat="47.80965" lon="-3.42132">
        <ele>-10.21</ele>
        <time>2018-05-31T11:33:19Z</time>
      </trkpt>
      <trkpt lat="47.8097" lon="-3.42125">
        <ele>-10.56</ele>
        <time>2018-05-31T11:33:24Z</time>
      </trkpt>
      <trkpt lat="47.80978" lon="-3.42118">
        <ele>-10.55</ele>
        <time>2018-05-31T11:33:30Z</time>
      </trkpt>
      <trkpt lat="47.80984" lon="-3.42107">
        <ele>-10.35</ele>
        <time>2018-05-31T11:33:37Z</time>
      </trkpt>
      <trkpt lat="47.80992" lon="-3.42089">
        <ele>-10.31</ele>
        <time>2018-05-31T11:33:48Z</time>
      </trkpt>
      <trkpt lat="47.80996" lon="-3.42078">
        <ele>-10.6</ele>
        <time>2018-05-31T11:33:54Z</time>
      </trkpt>
      <trkpt lat="47.81001" lon="-3.42062">
        <ele>-10.8</ele>
        <time>2018-05-31T11:34:03Z</time>
      </trkpt>
      <trkpt lat="47.81009" lon="-3.42038">
        <ele>-10.82</ele>
        <time>2018-05-31T11:34:14Z</time>
      </trkpt>
      <trkpt lat="47.8101" lon="-3.42035">
        <ele>-10.82</ele>
        <time>2018-05-31T11:34:15Z</time>
      </trkpt>
      <trkpt lat="47.81012" lon="-3.42024">
        <ele>-10.95</ele>
        <time>2018-05-31T11:34:19Z</time>
      </trkpt>
      <trkpt lat="47.81013" lon="-3.42013">
        <ele>-11.01</ele>
        <time>2018-05-31T11:34:23Z</time>
      </trkpt>
      <trkpt lat="47.81016" lon="-3.42">
        <ele>-10.8</ele>
        <time>2018-05-31T11:34:28Z</time>
      </trkpt>
      <trkpt lat="47.81017" lon="-3.41991">
        <ele>-10.73</ele>
        <time>2018-05-31T11:34:34Z</time>
      </trkpt>
      <trkpt lat="47.8102" lon="-3.41987">
        <ele>-10.89</ele>
        <time>2018-05-31T11:34:37Z</time>
      </trkpt>
      <trkpt lat="47.81024" lon="-3.41976">
        <ele>-11.14</ele>
        <time>2018-05-31T11:34:45Z</time>
      </trkpt>
      <trkpt lat="47.81027" lon="-3.4196">
        <ele>-11.17</ele>
        <time>2018-05-31T11:34:52Z</time>
      </trkpt>
      <trkpt lat="47.81027" lon="-3.41955">
        <ele>-11.21</ele>
        <time>2018-05-31T11:34:54Z</time>
      </trkpt>
      <trkpt lat="47.81029" lon="-3.41952">
        <ele>-11.18</ele>
        <time>2018-05-31T11:34:56Z</time>
      </trkpt>
      <trkpt lat="47.81036" lon="-3.41941">
        <ele>-11.03</ele>
        <time>2018-05-31T11:35:02Z</time>
      </trkpt>
      <trkpt lat="47.81038" lon="-3.41936">
        <ele>-11.17</ele>
        <time>2018-05-31T11:35:06Z</time>
      </trkpt>
      <trkpt lat="47.81046" lon="-3.41915">
        <ele>-12.58</ele>
        <time>2018-05-31T11:35:16Z</time>
      </trkpt>
      <trkpt lat="47.81051" lon="-3.41907">
        <ele>-14.12</ele>
        <time>2018-05-31T11:35:23Z</time>
      </trkpt>
      <trkpt lat="47.81065" lon="-3.41858">
        <ele>-16.22</ele>
        <time>2018-05-31T11:35:40Z</time>
      </trkpt>
      <trkpt lat="47.81075" lon="-3.41849">
        <ele>-17.42</ele>
        <time>2018-05-31T11:36:00Z</time>
      </trkpt>
      <trkpt lat="47.81073" lon="-3.41838">
        <ele>-17.7</ele>
        <time>2018-05-31T11:36:23Z</time>
      </trkpt>
      <trkpt lat="47.8109" lon="-3.41835">
        <ele>-16.84</ele>
        <time>2018-05-31T11:36:34Z</time>
      </trkpt>
      <trkpt lat="47.81128" lon="-3.41819">
        <ele>-17.03</ele>
        <time>2018-05-31T11:36:54Z</time>
      </trkpt>
      <trkpt lat="47.81146" lon="-3.41818">
        <ele>-17.31</ele>
        <time>2018-05-31T11:37:06Z</time>
      </trkpt>
      <trkpt lat="47.81166" lon="-3.41814">
        <ele>-17.32</ele>
        <time>2018-05-31T11:37:18Z</time>
      </trkpt>
      <trkpt lat="47.81168" lon="-3.41813">
        <ele>-17.39</ele>
        <time>2018-05-31T11:37:20Z</time>
      </trkpt>
      <trkpt lat="47.81188" lon="-3.41814">
        <ele>-17.2</ele>
        <time>2018-05-31T11:37:32Z</time>
      </trkpt>
      <trkpt lat="47.81203" lon="-3.41822">
        <ele>-16.6</ele>
        <time>2018-05-31T11:37:43Z</time>
      </trkpt>
      <trkpt lat="47.81208" lon="-3.41826">
        <ele>-16.69</ele>
        <time>2018-05-31T11:37:47Z</time>
      </trkpt>
      <trkpt lat="47.81211" lon="-3.41827">
        <ele>-16.97</ele>
        <time>2018-05-31T11:37:49Z</time>
      </trkpt>
      <trkpt lat="47.81218" lon="-3.41835">
        <ele>-17.85</ele>
        <time>2018-05-31T11:37:56Z</time>
      </trkpt>
      <trkpt lat="47.81229" lon="-3.41854">
        <ele>-19.76</ele>
        <time>2018-05-31T11:38:08Z</time>
      </trkpt>
      <trkpt lat="47.81241" lon="-3.41865">
        <ele>-20.98</ele>
        <time>2018-05-31T11:38:21Z</time>
      </trkpt>
      <trkpt lat="47.81251" lon="-3.41873">
        <ele>-21.34</ele>
        <time>2018-05-31T11:38:32Z</time>
      </trkpt>
      <trkpt lat="47.81264" lon="-3.41887">
        <ele>-21.53</ele>
        <time>2018-05-31T11:38:45Z</time>
      </trkpt>
      <trkpt lat="47.81289" lon="-3.41908">
        <ele>-21.57</ele>
        <time>2018-05-31T11:39:04Z</time>
      </trkpt>
      <trkpt lat="47.81307" lon="-3.41932">
        <ele>-21.74</ele>
        <time>2018-05-31T11:39:21Z</time>
      </trkpt>
      <trkpt lat="47.81341" lon="-3.41962">
        <ele>-21.53</ele>
        <time>2018-05-31T11:39:43Z</time>
      </trkpt>
      <trkpt lat="47.81361" lon="-3.41978">
        <ele>-21.43</ele>
        <time>2018-05-31T11:39:52Z</time>
      </trkpt>
      <trkpt lat="47.81376" lon="-3.41995">
        <ele>-21.4</ele>
        <time>2018-05-31T11:40:01Z</time>
      </trkpt>
      <trkpt lat="47.81384" lon="-3.41999">
        <ele>-21.28</ele>
        <time>2018-05-31T11:40:07Z</time>
      </trkpt>
      <trkpt lat="47.81395" lon="-3.42012">
        <ele>-20.96</ele>
        <time>2018-05-31T11:40:15Z</time>
      </trkpt>
      <trkpt lat="47.81399" lon="-3.42017">
        <ele>-20.89</ele>
        <time>2018-05-31T11:40:18Z</time>
      </trkpt>
      <trkpt lat="47.81408" lon="-3.42034">
        <ele>-20.49</ele>
        <time>2018-05-31T11:40:26Z</time>
      </trkpt>
      <trkpt lat="47.8141" lon="-3.42043">
        <ele>-20.33</ele>
        <time>2018-05-31T11:40:30Z</time>
      </trkpt>
      <trkpt lat="47.81417" lon="-3.42061">
        <ele>-19.65</ele>
        <time>2018-05-31T11:40:40Z</time>
      </trkpt>
      <trkpt lat="47.81423" lon="-3.4209">
        <ele>-18.7</ele>
        <time>2018-05-31T11:40:52Z</time>
      </trkpt>
      <trkpt lat="47.81428" lon="-3.42102">
        <ele>-18.11</ele>
        <time>2018-05-31T11:40:57Z</time>
      </trkpt>
      <trkpt lat="47.81441" lon="-3.42117">
        <ele>-15.97</ele>
        <time>2018-05-31T11:41:08Z</time>
      </trkpt>
      <trkpt lat="47.81467" lon="-3.42112">
        <ele>-16.97</ele>
        <time>2018-05-31T11:41:21Z</time>
      </trkpt>
      <trkpt lat="47.8149" lon="-3.42122">
        <ele>-18.25</ele>
        <time>2018-05-31T11:41:35Z</time>
      </trkpt>
      <trkpt lat="47.81492" lon="-3.42123">
        <ele>-18.28</ele>
        <time>2018-05-31T11:41:36Z</time>
      </trkpt>
      <trkpt lat="47.81493" lon="-3.42124">
        <ele>-18.31</ele>
        <time>2018-05-31T11:41:37Z</time>
      </trkpt>
      <trkpt lat="47.81494" lon="-3.42125">
        <ele>-18.33</ele>
        <time>2018-05-31T11:41:38Z</time>
      </trkpt>
      <trkpt lat="47.81495" lon="-3.42127">
        <ele>-18.34</ele>
        <time>2018-05-31T11:41:39Z</time>
      </trkpt>
      <trkpt lat="47.81497" lon="-3.42128">
        <ele>-18.35</ele>
        <time>2018-05-31T11:41:40Z</time>
      </trkpt>
      <trkpt lat="47.81498" lon="-3.42129">
        <ele>-18.35</ele>
        <time>2018-05-31T11:41:41Z</time>
      </trkpt>
      <trkpt lat="47.815" lon="-3.4213">
        <ele>-18.34</ele>
        <time>2018-05-31T11:41:42Z</time>
      </trkpt>
      <trkpt lat="47.81507" lon="-3.42143">
        <ele>-17.76</ele>
        <time>2018-05-31T11:41:52Z</time>
      </trkpt>
      <trkpt lat="47.81526" lon="-3.42168">
        <ele>-17.35</ele>
        <time>2018-05-31T11:42:08Z</time>
      </trkpt>
      <trkpt lat="47.81526" lon="-3.4217">
        <ele>-17.4</ele>
        <time>2018-05-31T11:42:09Z</time>
      </trkpt>
      <trkpt lat="47.81533" lon="-3.42189">
        <ele>-17.36</ele>
        <time>2018-05-31T11:42:20Z</time>
      </trkpt>
      <trkpt lat="47.81547" lon="-3.4222">
        <ele>-16.95</ele>
        <time>2018-05-31T11:42:34Z</time>
      </trkpt>
      <trkpt lat="47.8155" lon="-3.42223">
        <ele>-16.88</ele>
        <time>2018-05-31T11:42:36Z</time>
      </trkpt>
      <trkpt lat="47.81559" lon="-3.42243">
        <ele>-16.65</ele>
        <time>2018-05-31T11:42:47Z</time>
      </trkpt>
      <trkpt lat="47.81559" lon="-3.42245">
        <ele>-16.67</ele>
        <time>2018-05-31T11:42:48Z</time>
      </trkpt>
      <trkpt lat="47.81563" lon="-3.42255">
        <ele>-16.8</ele>
        <time>2018-05-31T11:42:53Z</time>
      </trkpt>
      <trkpt lat="47.81569" lon="-3.42273">
        <ele>-16.67</ele>
        <time>2018-05-31T11:43:03Z</time>
      </trkpt>
      <trkpt lat="47.81573" lon="-3.42278">
        <ele>-16.62</ele>
        <time>2018-05-31T11:43:06Z</time>
      </trkpt>
      <trkpt lat="47.81584" lon="-3.42303">
        <ele>-17.23</ele>
        <time>2018-05-31T11:43:19Z</time>
      </trkpt>
      <trkpt lat="47.81599" lon="-3.42329">
        <ele>-17.79</ele>
        <time>2018-05-31T11:43:31Z</time>
      </trkpt>
      <trkpt lat="47.81604" lon="-3.42344">
        <ele>-17.82</ele>
        <time>2018-05-31T11:43:39Z</time>
      </trkpt>
      <trkpt lat="47.81605" lon="-3.42348">
        <ele>-17.84</ele>
        <time>2018-05-31T11:43:41Z</time>
      </trkpt>
      <trkpt lat="47.81613" lon="-3.42372">
        <ele>-17.84</ele>
        <time>2018-05-31T11:43:52Z</time>
      </trkpt>
      <trkpt lat="47.8162" lon="-3.42403">
        <ele>-17.43</ele>
        <time>2018-05-31T11:44:06Z</time>
      </trkpt>
      <trkpt lat="47.8163" lon="-3.42428">
        <ele>-17.97</ele>
        <time>2018-05-31T11:44:19Z</time>
      </trkpt>
      <trkpt lat="47.81646" lon="-3.42463">
        <ele>-18.48</ele>
        <time>2018-05-31T11:44:39Z</time>
      </trkpt>
      <trkpt lat="47.81656" lon="-3.42484">
        <ele>-18.54</ele>
        <time>2018-05-31T11:44:50Z</time>
      </trkpt>
      <trkpt lat="47.81662" lon="-3.42497">
        <ele>-18.26</ele>
        <time>2018-05-31T11:44:56Z</time>
      </trkpt>
      <trkpt lat="47.81664" lon="-3.42503">
        <ele>-18.12</ele>
        <time>2018-05-31T11:44:59Z</time>
      </trkpt>
      <trkpt lat="47.81664" lon="-3.42507">
        <ele>-18.03</ele>
        <time>2018-05-31T11:45:01Z</time>
      </trkpt>
      <trkpt lat="47.81664" lon="-3.42512">
        <ele>-17.85</ele>
        <time>2018-05-31T11:45:04Z</time>
      </trkpt>
      <trkpt lat="47.81667" lon="-3.42519">
        <ele>-17.79</ele>
        <time>2018-05-31T11:45:08Z</time>
      </trkpt>
      <trkpt lat="47.81675" lon="-3.42531">
        <ele>-18.74</ele>
        <time>2018-05-31T11:45:18Z</time>
      </trkpt>
      <trkpt lat="47.81677" lon="-3.42534">
        <ele>-18.94</ele>
        <time>2018-05-31T11:45:21Z</time>
      </trkpt>
      <trkpt lat="47.81678" lon="-3.4254">
        <ele>-19.18</ele>
        <time>2018-05-31T11:45:41Z</time>
      </trkpt>
      <trkpt lat="47.81687" lon="-3.42545">
        <ele>-18.81</ele>
        <time>2018-05-31T11:46:05Z</time>
      </trkpt>
      <trkpt lat="47.81686" lon="-3.42544">
        <ele>-18.82</ele>
        <time>2018-05-31T11:46:08Z</time>
      </trkpt>
      <trkpt lat="47.81682" lon="-3.42542">
        <ele>-18.8</ele>
        <time>2018-05-31T11:46:33Z</time>
      </trkpt>
      <trkpt lat="47.81686" lon="-3.42541">
        <ele>-19.15</ele>
        <time>2018-05-31T11:47:01Z</time>
      </trkpt>
      <trkpt lat="47.81696" lon="-3.42549">
        <ele>-20.02</ele>
        <time>2018-05-31T11:47:19Z</time>
      </trkpt>
      <trkpt lat="47.81697" lon="-3.4255">
        <ele>-19.82</ele>
        <time>2018-05-31T11:47:35Z</time>
      </trkpt>
      <trkpt lat="47.81696" lon="-3.4255">
        <ele>-19.81</ele>
        <time>2018-05-31T11:47:36Z</time>
      </trkpt>
      <trkpt lat="47.81695" lon="-3.42557">
        <ele>-19.43</ele>
        <time>2018-05-31T11:47:56Z</time>
      </trkpt>
      <trkpt lat="47.81705" lon="-3.42569">
        <ele>-19.15</ele>
        <time>2018-05-31T11:48:14Z</time>
      </trkpt>
      <trkpt lat="47.81708" lon="-3.42572">
        <ele>-19.15</ele>
        <time>2018-05-31T11:48:17Z</time>
      </trkpt>
      <trkpt lat="47.81714" lon="-3.42576">
        <ele>-19.28</ele>
        <time>2018-05-31T11:48:24Z</time>
      </trkpt>
      <trkpt lat="47.81716" lon="-3.42581">
        <ele>-19.28</ele>
        <time>2018-05-31T11:48:32Z</time>
      </trkpt>
      <trkpt lat="47.81719" lon="-3.42583">
        <ele>-19.26</ele>
        <time>2018-05-31T11:48:35Z</time>
      </trkpt>
      <trkpt lat="47.8172" lon="-3.42584">
        <ele>-19.29</ele>
        <time>2018-05-31T11:48:37Z</time>
      </trkpt>
      <trkpt lat="47.81724" lon="-3.42587">
        <ele>-19.25</ele>
        <time>2018-05-31T11:48:45Z</time>
      </trkpt>
      <trkpt lat="47.81727" lon="-3.42595">
        <ele>-19.31</ele>
        <time>2018-05-31T11:49:15Z</time>
      </trkpt>
      <trkpt lat="47.81728" lon="-3.426">
        <ele>-19.17</ele>
        <time>2018-05-31T11:49:27Z</time>
      </trkpt>
      <trkpt lat="47.8173" lon="-3.426">
        <ele>-19.15</ele>
        <time>2018-05-31T11:49:29Z</time>
      </trkpt>
      <trkpt lat="47.81731" lon="-3.42599">
        <ele>-19.13</ele>
        <time>2018-05-31T11:49:59Z</time>
      </trkpt>
      <trkpt lat="47.81731" lon="-3.426">
        <ele>-19.09</ele>
        <time>2018-05-31T11:50:04Z</time>
      </trkpt>
      <trkpt lat="47.81734" lon="-3.42607">
        <ele>-19.29</ele>
        <time>2018-05-31T11:50:31Z</time>
      </trkpt>
      <trkpt lat="47.81738" lon="-3.42625">
        <ele>-19.48</ele>
        <time>2018-05-31T11:50:43Z</time>
      </trkpt>
      <trkpt lat="47.81748" lon="-3.42667">
        <ele>-19.41</ele>
        <time>2018-05-31T11:51:02Z</time>
      </trkpt>
      <trkpt lat="47.81749" lon="-3.42677">
        <ele>-19.43</ele>
        <time>2018-05-31T11:51:06Z</time>
      </trkpt>
      <trkpt lat="47.81754" lon="-3.42693">
        <ele>-19.41</ele>
        <time>2018-05-31T11:51:13Z</time>
      </trkpt>
      <trkpt lat="47.81755" lon="-3.42696">
        <ele>-19.35</ele>
        <time>2018-05-31T11:51:16Z</time>
      </trkpt>
      <trkpt lat="47.81754" lon="-3.42722">
        <ele>-19.05</ele>
        <time>2018-05-31T11:51:28Z</time>
      </trkpt>
      <trkpt lat="47.81751" lon="-3.42731">
        <ele>-19.09</ele>
        <time>2018-05-31T11:51:32Z</time>
      </trkpt>
      <trkpt lat="47.8175" lon="-3.42742">
        <ele>-19.04</ele>
        <time>2018-05-31T11:51:37Z</time>
      </trkpt>
      <trkpt lat="47.81755" lon="-3.42755">
        <ele>-19.3</ele>
        <time>2018-05-31T11:51:51Z</time>
      </trkpt>
      <trkpt lat="47.8175" lon="-3.42783">
        <ele>-20.02</ele>
        <time>2018-05-31T11:52:09Z</time>
      </trkpt>
      <trkpt lat="47.81746" lon="-3.42795">
        <ele>-18.9</ele>
        <time>2018-05-31T11:52:24Z</time>
      </trkpt>
      <trkpt lat="47.81742" lon="-3.42795">
        <ele>-18.14</ele>
        <time>2018-05-31T11:52:42Z</time>
      </trkpt>
      <trkpt lat="47.81741" lon="-3.42794">
        <ele>-18.26</ele>
        <time>2018-05-31T11:53:06Z</time>
      </trkpt>
      <trkpt lat="47.81733" lon="-3.42795">
        <ele>-15.4</ele>
        <time>2018-05-31T11:53:24Z</time>
      </trkpt>
      <trkpt lat="47.81729" lon="-3.42799">
        <ele>-12.24</ele>
        <time>2018-05-31T11:53:36Z</time>
      </trkpt>
      <trkpt lat="47.81729" lon="-3.428">
        <ele>-12.04</ele>
        <time>2018-05-31T11:53:37Z</time>
      </trkpt>
      <trkpt lat="47.81725" lon="-3.42808">
        <ele>-10.63</ele>
        <time>2018-05-31T11:53:46Z</time>
      </trkpt>
      <trkpt lat="47.81715" lon="-3.42821">
        <ele>-9.66</ele>
        <time>2018-05-31T11:54:15Z</time>
      </trkpt>
      <trkpt lat="47.81707" lon="-3.42843">
        <ele>-9.22</ele>
        <time>2018-05-31T11:54:35Z</time>
      </trkpt>
      <trkpt lat="47.81704" lon="-3.42847">
        <ele>-9.3</ele>
        <time>2018-05-31T11:54:41Z</time>
      </trkpt>
      <trkpt lat="47.81691" lon="-3.42873">
        <ele>-11.29</ele>
        <time>2018-05-31T11:55:00Z</time>
      </trkpt>
      <trkpt lat="47.81686" lon="-3.42884">
        <ele>-12.44</ele>
        <time>2018-05-31T11:55:11Z</time>
      </trkpt>
      <trkpt lat="47.81678" lon="-3.42899">
        <ele>-12.45</ele>
        <time>2018-05-31T11:55:24Z</time>
      </trkpt>
      <trkpt lat="47.81675" lon="-3.42899">
        <ele>-12.34</ele>
        <time>2018-05-31T11:55:27Z</time>
      </trkpt>
      <trkpt lat="47.81673" lon="-3.42904">
        <ele>-11.94</ele>
        <time>2018-05-31T11:55:31Z</time>
      </trkpt>
      <trkpt lat="47.81667" lon="-3.42918">
        <ele>-12.92</ele>
        <time>2018-05-31T11:55:43Z</time>
      </trkpt>
      <trkpt lat="47.81662" lon="-3.42951">
        <ele>-13.93</ele>
        <time>2018-05-31T11:55:58Z</time>
      </trkpt>
      <trkpt lat="47.81662" lon="-3.42953">
        <ele>-13.89</ele>
        <time>2018-05-31T11:55:59Z</time>
      </trkpt>
      <trkpt lat="47.81662" lon="-3.42988">
        <ele>-13.02</ele>
        <time>2018-05-31T11:56:16Z</time>
      </trkpt>
      <trkpt lat="47.81659" lon="-3.43005">
        <ele>-14.29</ele>
        <time>2018-05-31T11:56:23Z</time>
      </trkpt>
      <trkpt lat="47.81658" lon="-3.43032">
        <ele>-16.21</ele>
        <time>2018-05-31T11:56:36Z</time>
      </trkpt>
      <trkpt lat="47.81658" lon="-3.43059">
        <ele>-18.43</ele>
        <time>2018-05-31T11:56:53Z</time>
      </trkpt>
      <trkpt lat="47.81659" lon="-3.43062">
        <ele>-18.56</ele>
        <time>2018-05-31T11:56:55Z</time>
      </trkpt>
      <trkpt lat="47.81661" lon="-3.43075">
        <ele>-18.84</ele>
        <time>2018-05-31T11:56:59Z</time>
      </trkpt>
      <trkpt lat="47.81664" lon="-3.43087">
        <ele>-19.19</ele>
        <time>2018-05-31T11:57:05Z</time>
      </trkpt>
      <trkpt lat="47.81668" lon="-3.43091">
        <ele>-19.34</ele>
        <time>2018-05-31T11:57:08Z</time>
      </trkpt>
      <trkpt lat="47.81671" lon="-3.43097">
        <ele>-19.4</ele>
        <time>2018-05-31T11:57:12Z</time>
      </trkpt>
      <trkpt lat="47.81672" lon="-3.43101">
        <ele>-19.35</ele>
        <time>2018-05-31T11:57:15Z</time>
      </trkpt>
      <trkpt lat="47.81672" lon="-3.43113">
        <ele>-19.5</ele>
        <time>2018-05-31T11:57:26Z</time>
      </trkpt>
      <trkpt lat="47.81665" lon="-3.43113">
        <ele>-19.55</ele>
        <time>2018-05-31T11:57:34Z</time>
      </trkpt>
      <trkpt lat="47.81665" lon="-3.4312">
        <ele>-20.09</ele>
        <time>2018-05-31T11:57:48Z</time>
      </trkpt>
      <trkpt lat="47.81666" lon="-3.43121">
        <ele>-19.81</ele>
        <time>2018-05-31T11:57:56Z</time>
      </trkpt>
      <trkpt lat="47.81664" lon="-3.4312">
        <ele>-19.51</ele>
        <time>2018-05-31T11:58:03Z</time>
      </trkpt>
      <trkpt lat="47.81668" lon="-3.43119">
        <ele>-19.2</ele>
        <time>2018-05-31T11:58:11Z</time>
      </trkpt>
      <trkpt lat="47.81677" lon="-3.43119">
        <ele>-18.85</ele>
        <time>2018-05-31T11:58:18Z</time>
      </trkpt>
      <trkpt lat="47.8169" lon="-3.43121">
        <ele>-18.97</ele>
        <time>2018-05-31T11:58:28Z</time>
      </trkpt>
      <trkpt lat="47.81706" lon="-3.43117">
        <ele>-19.4</ele>
        <time>2018-05-31T11:58:38Z</time>
      </trkpt>
      <trkpt lat="47.81715" lon="-3.43116">
        <ele>-19.46</ele>
        <time>2018-05-31T11:58:46Z</time>
      </trkpt>
      <trkpt lat="47.81723" lon="-3.43119">
        <ele>-19.51</ele>
        <time>2018-05-31T11:58:56Z</time>
      </trkpt>
      <trkpt lat="47.81729" lon="-3.43124">
        <ele>-19.79</ele>
        <time>2018-05-31T11:59:01Z</time>
      </trkpt>
      <trkpt lat="47.81751" lon="-3.4313">
        <ele>-19.5</ele>
        <time>2018-05-31T11:59:15Z</time>
      </trkpt>
      <trkpt lat="47.81771" lon="-3.43125">
        <ele>-19.23</ele>
        <time>2018-05-31T11:59:26Z</time>
      </trkpt>
      <trkpt lat="47.81796" lon="-3.43105">
        <ele>-19.1</ele>
        <time>2018-05-31T11:59:43Z</time>
      </trkpt>
      <trkpt lat="47.81814" lon="-3.43096">
        <ele>-19.28</ele>
        <time>2018-05-31T11:59:55Z</time>
      </trkpt>
      <trkpt lat="47.81824" lon="-3.43093">
        <ele>-19.37</ele>
        <time>2018-05-31T12:00:02Z</time>
      </trkpt>
      <trkpt lat="47.81843" lon="-3.43086">
        <ele>-19.36</ele>
        <time>2018-05-31T12:00:15Z</time>
      </trkpt>
      <trkpt lat="47.81857" lon="-3.43082">
        <ele>-19.32</ele>
        <time>2018-05-31T12:00:27Z</time>
      </trkpt>
      <trkpt lat="47.81872" lon="-3.43085">
        <ele>-19.41</ele>
        <time>2018-05-31T12:00:36Z</time>
      </trkpt>
      <trkpt lat="47.81884" lon="-3.43089">
        <ele>-19.54</ele>
        <time>2018-05-31T12:00:41Z</time>
      </trkpt>
      <trkpt lat="47.81917" lon="-3.43101">
        <ele>-19.41</ele>
        <time>2018-05-31T12:01:04Z</time>
      </trkpt>
      <trkpt lat="47.81923" lon="-3.43108">
        <ele>-19.37</ele>
        <time>2018-05-31T12:01:11Z</time>
      </trkpt>
      <trkpt lat="47.8194" lon="-3.43125">
        <ele>-19.02</ele>
        <time>2018-05-31T12:01:25Z</time>
      </trkpt>
      <trkpt lat="47.81972" lon="-3.4315">
        <ele>-18.77</ele>
        <time>2018-05-31T12:01:44Z</time>
      </trkpt>
      <trkpt lat="47.81978" lon="-3.43158">
        <ele>-18.68</ele>
        <time>2018-05-31T12:01:49Z</time>
      </trkpt>
      <trkpt lat="47.81989" lon="-3.4317">
        <ele>-18.87</ele>
        <time>2018-05-31T12:01:59Z</time>
      </trkpt>
      <trkpt lat="47.82034" lon="-3.43164">
        <ele>-18.91</ele>
        <time>2018-05-31T12:02:20Z</time>
      </trkpt>
      <trkpt lat="47.82039" lon="-3.43161">
        <ele>-18.76</ele>
        <time>2018-05-31T12:02:23Z</time>
      </trkpt>
      <trkpt lat="47.82053" lon="-3.43156">
        <ele>-18.8</ele>
        <time>2018-05-31T12:02:30Z</time>
      </trkpt>
      <trkpt lat="47.82062" lon="-3.43161">
        <ele>-18.82</ele>
        <time>2018-05-31T12:02:35Z</time>
      </trkpt>
      <trkpt lat="47.82071" lon="-3.43167">
        <ele>-18.91</ele>
        <time>2018-05-31T12:02:42Z</time>
      </trkpt>
      <trkpt lat="47.82077" lon="-3.43177">
        <ele>-18.74</ele>
        <time>2018-05-31T12:02:48Z</time>
      </trkpt>
      <trkpt lat="47.82078" lon="-3.43179">
        <ele>-18.69</ele>
        <time>2018-05-31T12:02:49Z</time>
      </trkpt>
      <trkpt lat="47.82079" lon="-3.43181">
        <ele>-18.66</ele>
        <time>2018-05-31T12:02:50Z</time>
      </trkpt>
      <trkpt lat="47.82091" lon="-3.43216">
        <ele>-18.56</ele>
        <time>2018-05-31T12:03:08Z</time>
      </trkpt>
      <trkpt lat="47.82101" lon="-3.43227">
        <ele>-18.38</ele>
        <time>2018-05-31T12:03:13Z</time>
      </trkpt>
      <trkpt lat="47.82113" lon="-3.43242">
        <ele>-18.41</ele>
        <time>2018-05-31T12:03:23Z</time>
      </trkpt>
      <trkpt lat="47.82115" lon="-3.43245">
        <ele>-18.39</ele>
        <time>2018-05-31T12:03:24Z</time>
      </trkpt>
      <trkpt lat="47.8212" lon="-3.43255">
        <ele>-18</ele>
        <time>2018-05-31T12:03:30Z</time>
      </trkpt>
      <trkpt lat="47.82122" lon="-3.43256">
        <ele>-17.94</ele>
        <time>2018-05-31T12:03:31Z</time>
      </trkpt>
      <trkpt lat="47.82126" lon="-3.43257">
        <ele>-17.88</ele>
        <time>2018-05-31T12:03:32Z</time>
      </trkpt>
      <trkpt lat="47.8213" lon="-3.43258">
        <ele>-17.84</ele>
        <time>2018-05-31T12:03:33Z</time>
      </trkpt>
      <trkpt lat="47.82132" lon="-3.43258">
        <ele>-17.8</ele>
        <time>2018-05-31T12:03:34Z</time>
      </trkpt>
      <trkpt lat="47.82137" lon="-3.4326">
        <ele>-17.66</ele>
        <time>2018-05-31T12:03:38Z</time>
      </trkpt>
      <trkpt lat="47.82138" lon="-3.4326">
        <ele>-17.63</ele>
        <time>2018-05-31T12:03:39Z</time>
      </trkpt>
      <trkpt lat="47.82139" lon="-3.4326">
        <ele>-17.61</ele>
        <time>2018-05-31T12:03:40Z</time>
      </trkpt>
      <trkpt lat="47.82151" lon="-3.43249">
        <ele>-17.31</ele>
        <time>2018-05-31T12:03:53Z</time>
      </trkpt>
      <trkpt lat="47.82156" lon="-3.43241">
        <ele>-17.25</ele>
        <time>2018-05-31T12:03:58Z</time>
      </trkpt>
      <trkpt lat="47.82157" lon="-3.43239">
        <ele>-17.25</ele>
        <time>2018-05-31T12:03:59Z</time>
      </trkpt>
      <trkpt lat="47.82158" lon="-3.43237">
        <ele>-17.27</ele>
        <time>2018-05-31T12:04:00Z</time>
      </trkpt>
      <trkpt lat="47.82159" lon="-3.43235">
        <ele>-17.3</ele>
        <time>2018-05-31T12:04:01Z</time>
      </trkpt>
      <trkpt lat="47.82161" lon="-3.43233">
        <ele>-17.33</ele>
        <time>2018-05-31T12:04:02Z</time>
      </trkpt>
      <trkpt lat="47.82162" lon="-3.43231">
        <ele>-17.37</ele>
        <time>2018-05-31T12:04:03Z</time>
      </trkpt>
      <trkpt lat="47.82162" lon="-3.43229">
        <ele>-17.4</ele>
        <time>2018-05-31T12:04:04Z</time>
      </trkpt>
      <trkpt lat="47.82178" lon="-3.43209">
        <ele>-17.56</ele>
        <time>2018-05-31T12:04:15Z</time>
      </trkpt>
      <trkpt lat="47.82181" lon="-3.43204">
        <ele>-17.69</ele>
        <time>2018-05-31T12:04:18Z</time>
      </trkpt>
      <trkpt lat="47.82182" lon="-3.43203">
        <ele>-17.76</ele>
        <time>2018-05-31T12:04:19Z</time>
      </trkpt>
      <trkpt lat="47.82194" lon="-3.4319">
        <ele>-18.14</ele>
        <time>2018-05-31T12:04:27Z</time>
      </trkpt>
      <trkpt lat="47.82195" lon="-3.43188">
        <ele>-18.18</ele>
        <time>2018-05-31T12:04:28Z</time>
      </trkpt>
      <trkpt lat="47.82197" lon="-3.43186">
        <ele>-18.23</ele>
        <time>2018-05-31T12:04:29Z</time>
      </trkpt>
      <trkpt lat="47.82205" lon="-3.43163">
        <ele>-18.54</ele>
        <time>2018-05-31T12:04:41Z</time>
      </trkpt>
      <trkpt lat="47.82199" lon="-3.43147">
        <ele>-19.32</ele>
        <time>2018-05-31T12:04:57Z</time>
      </trkpt>
      <trkpt lat="47.82202" lon="-3.43144">
        <ele>-19.34</ele>
        <time>2018-05-31T12:05:04Z</time>
      </trkpt>
      <trkpt lat="47.82189" lon="-3.43114">
        <ele>-19.54</ele>
        <time>2018-05-31T12:05:21Z</time>
      </trkpt>
      <trkpt lat="47.82177" lon="-3.43112">
        <ele>-19.3</ele>
        <time>2018-05-31T12:05:31Z</time>
      </trkpt>
      <trkpt lat="47.82161" lon="-3.43118">
        <ele>-19.07</ele>
        <time>2018-05-31T12:05:43Z</time>
      </trkpt>
      <trkpt lat="47.82159" lon="-3.43117">
        <ele>-19.07</ele>
        <time>2018-05-31T12:05:44Z</time>
      </trkpt>
      <trkpt lat="47.82157" lon="-3.43117">
        <ele>-19.09</ele>
        <time>2018-05-31T12:05:45Z</time>
      </trkpt>
      <trkpt lat="47.82154" lon="-3.43117">
        <ele>-19.1</ele>
        <time>2018-05-31T12:05:46Z</time>
      </trkpt>
      <trkpt lat="47.82152" lon="-3.43118">
        <ele>-19.12</ele>
        <time>2018-05-31T12:05:47Z</time>
      </trkpt>
      <trkpt lat="47.82152" lon="-3.43118">
        <ele>-19.18</ele>
        <time>2018-05-31T12:05:48Z</time>
      </trkpt>
      <trkpt lat="47.8214" lon="-3.4312">
        <ele>-19.41</ele>
        <time>2018-05-31T12:05:59Z</time>
      </trkpt>
      <trkpt lat="47.82138" lon="-3.43119">
        <ele>-19.34</ele>
        <time>2018-05-31T12:06:01Z</time>
      </trkpt>
      <trkpt lat="47.82134" lon="-3.43116">
        <ele>-19.31</ele>
        <time>2018-05-31T12:06:07Z</time>
      </trkpt>
      <trkpt lat="47.82133" lon="-3.43115">
        <ele>-19.31</ele>
        <time>2018-05-31T12:06:08Z</time>
      </trkpt>
      <trkpt lat="47.82131" lon="-3.43116">
        <ele>-19.32</ele>
        <time>2018-05-31T12:06:09Z</time>
      </trkpt>
      <trkpt lat="47.8213" lon="-3.43115">
        <ele>-19.33</ele>
        <time>2018-05-31T12:06:10Z</time>
      </trkpt>
      <trkpt lat="47.8212" lon="-3.43111">
        <ele>-19.37</ele>
        <time>2018-05-31T12:06:20Z</time>
      </trkpt>
      <trkpt lat="47.82112" lon="-3.43105">
        <ele>-19.19</ele>
        <time>2018-05-31T12:06:30Z</time>
      </trkpt>
      <trkpt lat="47.82104" lon="-3.43104">
        <ele>-19.23</ele>
        <time>2018-05-31T12:06:32Z</time>
      </trkpt>
      <trkpt lat="47.82099" lon="-3.43103">
        <ele>-19.34</ele>
        <time>2018-05-31T12:06:35Z</time>
      </trkpt>
      <trkpt lat="47.82096" lon="-3.43102">
        <ele>-19.37</ele>
        <time>2018-05-31T12:06:36Z</time>
      </trkpt>
      <trkpt lat="47.82091" lon="-3.43099">
        <ele>-19.45</ele>
        <time>2018-05-31T12:06:39Z</time>
      </trkpt>
      <trkpt lat="47.82086" lon="-3.43099">
        <ele>-19.45</ele>
        <time>2018-05-31T12:06:44Z</time>
      </trkpt>
      <trkpt lat="47.82085" lon="-3.43098">
        <ele>-19.4</ele>
        <time>2018-05-31T12:06:45Z</time>
      </trkpt>
      <trkpt lat="47.82078" lon="-3.43091">
        <ele>-18.45</ele>
        <time>2018-05-31T12:06:55Z</time>
      </trkpt>
      <trkpt lat="47.82072" lon="-3.43082">
        <ele>-18.14</ele>
        <time>2018-05-31T12:07:05Z</time>
      </trkpt>
      <trkpt lat="47.82064" lon="-3.43076">
        <ele>-18.03</ele>
        <time>2018-05-31T12:07:12Z</time>
      </trkpt>
      <trkpt lat="47.82063" lon="-3.43075">
        <ele>-18.03</ele>
        <time>2018-05-31T12:07:13Z</time>
      </trkpt>
      <trkpt lat="47.82062" lon="-3.43074">
        <ele>-18.01</ele>
        <time>2018-05-31T12:07:14Z</time>
      </trkpt>
      <trkpt lat="47.82059" lon="-3.43072">
        <ele>-17.8</ele>
        <time>2018-05-31T12:07:18Z</time>
      </trkpt>
      <trkpt lat="47.82036" lon="-3.43045">
        <ele>-16.45</ele>
        <time>2018-05-31T12:07:36Z</time>
      </trkpt>
      <trkpt lat="47.82017" lon="-3.43022">
        <ele>-15.64</ele>
        <time>2018-05-31T12:07:50Z</time>
      </trkpt>
      <trkpt lat="47.82004" lon="-3.43009">
        <ele>-14.76</ele>
        <time>2018-05-31T12:08:01Z</time>
      </trkpt>
      <trkpt lat="47.82001" lon="-3.43006">
        <ele>-14.63</ele>
        <time>2018-05-31T12:08:04Z</time>
      </trkpt>
      <trkpt lat="47.81996" lon="-3.43001">
        <ele>-14.47</ele>
        <time>2018-05-31T12:08:08Z</time>
      </trkpt>
      <trkpt lat="47.81993" lon="-3.42998">
        <ele>-14.14</ele>
        <time>2018-05-31T12:08:11Z</time>
      </trkpt>
      <trkpt lat="47.81968" lon="-3.42997">
        <ele>-14.14</ele>
        <time>2018-05-31T12:08:32Z</time>
      </trkpt>
      <trkpt lat="47.81964" lon="-3.42998">
        <ele>-14.32</ele>
        <time>2018-05-31T12:08:37Z</time>
      </trkpt>
      <trkpt lat="47.81942" lon="-3.43003">
        <ele>-14.62</ele>
        <time>2018-05-31T12:08:49Z</time>
      </trkpt>
      <trkpt lat="47.81938" lon="-3.43004">
        <ele>-14.47</ele>
        <time>2018-05-31T12:08:52Z</time>
      </trkpt>
      <trkpt lat="47.81915" lon="-3.43007">
        <ele>-14.4</ele>
        <time>2018-05-31T12:09:07Z</time>
      </trkpt>
      <trkpt lat="47.81894" lon="-3.43012">
        <ele>-14.36</ele>
        <time>2018-05-31T12:09:23Z</time>
      </trkpt>
      <trkpt lat="47.81886" lon="-3.43016">
        <ele>-14.25</ele>
        <time>2018-05-31T12:09:28Z</time>
      </trkpt>
      <trkpt lat="47.81882" lon="-3.43018">
        <ele>-14.09</ele>
        <time>2018-05-31T12:09:33Z</time>
      </trkpt>
      <trkpt lat="47.81866" lon="-3.43026">
        <ele>-15.42</ele>
        <time>2018-05-31T12:09:46Z</time>
      </trkpt>
      <trkpt lat="47.81851" lon="-3.43028">
        <ele>-17.03</ele>
        <time>2018-05-31T12:09:57Z</time>
      </trkpt>
      <trkpt lat="47.81838" lon="-3.43025">
        <ele>-19.35</ele>
        <time>2018-05-31T12:10:12Z</time>
      </trkpt>
      <trkpt lat="47.81831" lon="-3.43015">
        <ele>-19.67</ele>
        <time>2018-05-31T12:10:19Z</time>
      </trkpt>
      <trkpt lat="47.81831" lon="-3.43012">
        <ele>-19.75</ele>
        <time>2018-05-31T12:10:21Z</time>
      </trkpt>
      <trkpt lat="47.81831" lon="-3.42999">
        <ele>-20.04</ele>
        <time>2018-05-31T12:10:27Z</time>
      </trkpt>
      <trkpt lat="47.81821" lon="-3.42966">
        <ele>-20.05</ele>
        <time>2018-05-31T12:10:43Z</time>
      </trkpt>
      <trkpt lat="47.81815" lon="-3.42946">
        <ele>-20.12</ele>
        <time>2018-05-31T12:10:50Z</time>
      </trkpt>
      <trkpt lat="47.81815" lon="-3.42941">
        <ele>-20.08</ele>
        <time>2018-05-31T12:10:52Z</time>
      </trkpt>
      <trkpt lat="47.81816" lon="-3.42936">
        <ele>-20</ele>
        <time>2018-05-31T12:10:55Z</time>
      </trkpt>
      <trkpt lat="47.81816" lon="-3.42931">
        <ele>-19.92</ele>
        <time>2018-05-31T12:10:57Z</time>
      </trkpt>
      <trkpt lat="47.81815" lon="-3.42921">
        <ele>-19.71</ele>
        <time>2018-05-31T12:11:04Z</time>
      </trkpt>
      <trkpt lat="47.81814" lon="-3.42911">
        <ele>-19.49</ele>
        <time>2018-05-31T12:11:09Z</time>
      </trkpt>
      <trkpt lat="47.81813" lon="-3.42903">
        <ele>-19.39</ele>
        <time>2018-05-31T12:11:13Z</time>
      </trkpt>
      <trkpt lat="47.81815" lon="-3.42898">
        <ele>-19.35</ele>
        <time>2018-05-31T12:11:16Z</time>
      </trkpt>
      <trkpt lat="47.8182" lon="-3.42894">
        <ele>-19.28</ele>
        <time>2018-05-31T12:11:19Z</time>
      </trkpt>
      <trkpt lat="47.81823" lon="-3.42889">
        <ele>-18.88</ele>
        <time>2018-05-31T12:11:23Z</time>
      </trkpt>
      <trkpt lat="47.81828" lon="-3.42879">
        <ele>-16.95</ele>
        <time>2018-05-31T12:11:31Z</time>
      </trkpt>
      <trkpt lat="47.8183" lon="-3.42872">
        <ele>-15.89</ele>
        <time>2018-05-31T12:11:34Z</time>
      </trkpt>
      <trkpt lat="47.81836" lon="-3.42842">
        <ele>-14.63</ele>
        <time>2018-05-31T12:11:46Z</time>
      </trkpt>
      <trkpt lat="47.81837" lon="-3.42837">
        <ele>-14.63</ele>
        <time>2018-05-31T12:11:48Z</time>
      </trkpt>
      <trkpt lat="47.81842" lon="-3.42819">
        <ele>-14.63</ele>
        <time>2018-05-31T12:11:57Z</time>
      </trkpt>
      <trkpt lat="47.81843" lon="-3.42808">
        <ele>-14.85</ele>
        <time>2018-05-31T12:12:02Z</time>
      </trkpt>
      <trkpt lat="47.81848" lon="-3.42776">
        <ele>-14.68</ele>
        <time>2018-05-31T12:12:14Z</time>
      </trkpt>
      <trkpt lat="47.8185" lon="-3.42771">
        <ele>-14.56</ele>
        <time>2018-05-31T12:12:17Z</time>
      </trkpt>
      <trkpt lat="47.81854" lon="-3.4276">
        <ele>-14.82</ele>
        <time>2018-05-31T12:12:24Z</time>
      </trkpt>
      <trkpt lat="47.81857" lon="-3.42751">
        <ele>-14.74</ele>
        <time>2018-05-31T12:12:28Z</time>
      </trkpt>
      <trkpt lat="47.81865" lon="-3.42737">
        <ele>-14.66</ele>
        <time>2018-05-31T12:12:33Z</time>
      </trkpt>
      <trkpt lat="47.81872" lon="-3.42727">
        <ele>-14.71</ele>
        <time>2018-05-31T12:12:38Z</time>
      </trkpt>
      <trkpt lat="47.8188" lon="-3.42712">
        <ele>-14.73</ele>
        <time>2018-05-31T12:12:45Z</time>
      </trkpt>
      <trkpt lat="47.81884" lon="-3.42689">
        <ele>-15.38</ele>
        <time>2018-05-31T12:12:57Z</time>
      </trkpt>
      <trkpt lat="47.8188" lon="-3.42666">
        <ele>-15.28</ele>
        <time>2018-05-31T12:13:08Z</time>
      </trkpt>
      <trkpt lat="47.81883" lon="-3.42652">
        <ele>-15.42</ele>
        <time>2018-05-31T12:13:17Z</time>
      </trkpt>
      <trkpt lat="47.81887" lon="-3.42642">
        <ele>-15.6</ele>
        <time>2018-05-31T12:13:28Z</time>
      </trkpt>
      <trkpt lat="47.81884" lon="-3.42632">
        <ele>-15.77</ele>
        <time>2018-05-31T12:13:34Z</time>
      </trkpt>
      <trkpt lat="47.81883" lon="-3.42627">
        <ele>-16.01</ele>
        <time>2018-05-31T12:13:37Z</time>
      </trkpt>
      <trkpt lat="47.81883" lon="-3.42622">
        <ele>-16.14</ele>
        <time>2018-05-31T12:13:40Z</time>
      </trkpt>
      <trkpt lat="47.8188" lon="-3.42612">
        <ele>-16.13</ele>
        <time>2018-05-31T12:13:45Z</time>
      </trkpt>
      <trkpt lat="47.81876" lon="-3.42602">
        <ele>-15.83</ele>
        <time>2018-05-31T12:13:51Z</time>
      </trkpt>
      <trkpt lat="47.81876" lon="-3.42592">
        <ele>-15.74</ele>
        <time>2018-05-31T12:13:56Z</time>
      </trkpt>
      <trkpt lat="47.81873" lon="-3.42584">
        <ele>-15.61</ele>
        <time>2018-05-31T12:14:00Z</time>
      </trkpt>
      <trkpt lat="47.81873" lon="-3.42573">
        <ele>-15.73</ele>
        <time>2018-05-31T12:14:07Z</time>
      </trkpt>
      <trkpt lat="47.81872" lon="-3.42554">
        <ele>-15.95</ele>
        <time>2018-05-31T12:14:19Z</time>
      </trkpt>
      <trkpt lat="47.8187" lon="-3.42549">
        <ele>-15.87</ele>
        <time>2018-05-31T12:14:23Z</time>
      </trkpt>
      <trkpt lat="47.81869" lon="-3.42536">
        <ele>-15.14</ele>
        <time>2018-05-31T12:14:30Z</time>
      </trkpt>
      <trkpt lat="47.81868" lon="-3.42529">
        <ele>-14.86</ele>
        <time>2018-05-31T12:14:33Z</time>
      </trkpt>
      <trkpt lat="47.81868" lon="-3.42524">
        <ele>-14.68</ele>
        <time>2018-05-31T12:14:36Z</time>
      </trkpt>
      <trkpt lat="47.81868" lon="-3.42519">
        <ele>-14.55</ele>
        <time>2018-05-31T12:14:38Z</time>
      </trkpt>
      <trkpt lat="47.81863" lon="-3.42502">
        <ele>-14.21</ele>
        <time>2018-05-31T12:14:47Z</time>
      </trkpt>
      <trkpt lat="47.81862" lon="-3.42498">
        <ele>-14.64</ele>
        <time>2018-05-31T12:14:54Z</time>
      </trkpt>
      <trkpt lat="47.81853" lon="-3.42485">
        <ele>-16.49</ele>
        <time>2018-05-31T12:15:07Z</time>
      </trkpt>
      <trkpt lat="47.81855" lon="-3.42483">
        <ele>-16.73</ele>
        <time>2018-05-31T12:15:13Z</time>
      </trkpt>
      <trkpt lat="47.8185" lon="-3.42478">
        <ele>-16.73</ele>
        <time>2018-05-31T12:15:20Z</time>
      </trkpt>
      <trkpt lat="47.81846" lon="-3.42471">
        <ele>-16.59</ele>
        <time>2018-05-31T12:15:26Z</time>
      </trkpt>
      <trkpt lat="47.8184" lon="-3.42466">
        <ele>-14.91</ele>
        <time>2018-05-31T12:15:43Z</time>
      </trkpt>
      <trkpt lat="47.81839" lon="-3.42459">
        <ele>-13.84</ele>
        <time>2018-05-31T12:15:54Z</time>
      </trkpt>
      <trkpt lat="47.81838" lon="-3.4245">
        <ele>-14.19</ele>
        <time>2018-05-31T12:16:03Z</time>
      </trkpt>
      <trkpt lat="47.81835" lon="-3.4244">
        <ele>-14.46</ele>
        <time>2018-05-31T12:16:13Z</time>
      </trkpt>
      <trkpt lat="47.81836" lon="-3.42431">
        <ele>-14.55</ele>
        <time>2018-05-31T12:16:18Z</time>
      </trkpt>
      <trkpt lat="47.81828" lon="-3.42414">
        <ele>-14.72</ele>
        <time>2018-05-31T12:16:28Z</time>
      </trkpt>
      <trkpt lat="47.81828" lon="-3.42413">
        <ele>-14.7</ele>
        <time>2018-05-31T12:16:29Z</time>
      </trkpt>
      <trkpt lat="47.81826" lon="-3.42396">
        <ele>-14.34</ele>
        <time>2018-05-31T12:16:41Z</time>
      </trkpt>
      <trkpt lat="47.81814" lon="-3.42381">
        <ele>-14.5</ele>
        <time>2018-05-31T12:16:52Z</time>
      </trkpt>
      <trkpt lat="47.81778" lon="-3.42353">
        <ele>-15.04</ele>
        <time>2018-05-31T12:17:03Z</time>
      </trkpt>
      <trkpt lat="47.81768" lon="-3.42342">
        <ele>-14.92</ele>
        <time>2018-05-31T12:17:06Z</time>
      </trkpt>
      <trkpt lat="47.81745" lon="-3.42327">
        <ele>-14.85</ele>
        <time>2018-05-31T12:17:10Z</time>
      </trkpt>
      <trkpt lat="47.81728" lon="-3.42313">
        <ele>-14.83</ele>
        <time>2018-05-31T12:17:15Z</time>
      </trkpt>
      <trkpt lat="47.81704" lon="-3.42285">
        <ele>-14.71</ele>
        <time>2018-05-31T12:17:26Z</time>
      </trkpt>
      <trkpt lat="47.81698" lon="-3.42266">
        <ele>-14.8</ele>
        <time>2018-05-31T12:17:34Z</time>
      </trkpt>
      <trkpt lat="47.81691" lon="-3.42246">
        <ele>-14.62</ele>
        <time>2018-05-31T12:17:44Z</time>
      </trkpt>
      <trkpt lat="47.81691" lon="-3.4224">
        <ele>-14.54</ele>
        <time>2018-05-31T12:17:47Z</time>
      </trkpt>
      <trkpt lat="47.81691" lon="-3.42228">
        <ele>-14.63</ele>
        <time>2018-05-31T12:17:53Z</time>
      </trkpt>
      <trkpt lat="47.8169" lon="-3.42222">
        <ele>-14.7</ele>
        <time>2018-05-31T12:17:55Z</time>
      </trkpt>
      <trkpt lat="47.81688" lon="-3.42213">
        <ele>-14.81</ele>
        <time>2018-05-31T12:18:00Z</time>
      </trkpt>
      <trkpt lat="47.81688" lon="-3.42209">
        <ele>-14.7</ele>
        <time>2018-05-31T12:18:02Z</time>
      </trkpt>
      <trkpt lat="47.81692" lon="-3.42197">
        <ele>-14.06</ele>
        <time>2018-05-31T12:18:18Z</time>
      </trkpt>
      <trkpt lat="47.81695" lon="-3.42196">
        <ele>-14.08</ele>
        <time>2018-05-31T12:18:25Z</time>
      </trkpt>
      <trkpt lat="47.81696" lon="-3.42197">
        <ele>-14.05</ele>
        <time>2018-05-31T12:18:46Z</time>
      </trkpt>
      <trkpt lat="47.81689" lon="-3.42192">
        <ele>-14.16</ele>
        <time>2018-05-31T12:19:02Z</time>
      </trkpt>
      <trkpt lat="47.81685" lon="-3.42189">
        <ele>-14.47</ele>
        <time>2018-05-31T12:19:15Z</time>
      </trkpt>
      <trkpt lat="47.81679" lon="-3.42184">
        <ele>-14.41</ele>
        <time>2018-05-31T12:19:27Z</time>
      </trkpt>
      <trkpt lat="47.81674" lon="-3.42182">
        <ele>-14.2</ele>
        <time>2018-05-31T12:19:43Z</time>
      </trkpt>
      <trkpt lat="47.81671" lon="-3.42178">
        <ele>-14.18</ele>
        <time>2018-05-31T12:19:50Z</time>
      </trkpt>
      <trkpt lat="47.81667" lon="-3.42173">
        <ele>-14.46</ele>
        <time>2018-05-31T12:19:58Z</time>
      </trkpt>
      <trkpt lat="47.8166" lon="-3.42159">
        <ele>-15.04</ele>
        <time>2018-05-31T12:20:05Z</time>
      </trkpt>
      <trkpt lat="47.8166" lon="-3.42154">
        <ele>-15.05</ele>
        <time>2018-05-31T12:20:08Z</time>
      </trkpt>
      <trkpt lat="47.81656" lon="-3.42143">
        <ele>-14.97</ele>
        <time>2018-05-31T12:20:16Z</time>
      </trkpt>
      <trkpt lat="47.8165" lon="-3.42139">
        <ele>-15.05</ele>
        <time>2018-05-31T12:20:19Z</time>
      </trkpt>
      <trkpt lat="47.81644" lon="-3.42127">
        <ele>-15.59</ele>
        <time>2018-05-31T12:20:31Z</time>
      </trkpt>
      <trkpt lat="47.81638" lon="-3.42121">
        <ele>-15.81</ele>
        <time>2018-05-31T12:20:37Z</time>
      </trkpt>
      <trkpt lat="47.81629" lon="-3.42113">
        <ele>-15.58</ele>
        <time>2018-05-31T12:20:47Z</time>
      </trkpt>
      <trkpt lat="47.81625" lon="-3.42111">
        <ele>-15.7</ele>
        <time>2018-05-31T12:20:50Z</time>
      </trkpt>
      <trkpt lat="47.81617" lon="-3.42102">
        <ele>-15.58</ele>
        <time>2018-05-31T12:20:58Z</time>
      </trkpt>
      <trkpt lat="47.81614" lon="-3.42099">
        <ele>-15.5</ele>
        <time>2018-05-31T12:21:01Z</time>
      </trkpt>
      <trkpt lat="47.81608" lon="-3.42091">
        <ele>-15.7</ele>
        <time>2018-05-31T12:21:07Z</time>
      </trkpt>
      <trkpt lat="47.81602" lon="-3.42086">
        <ele>-15.95</ele>
        <time>2018-05-31T12:21:10Z</time>
      </trkpt>
      <trkpt lat="47.81598" lon="-3.42079">
        <ele>-16.17</ele>
        <time>2018-05-31T12:21:14Z</time>
      </trkpt>
      <trkpt lat="47.81585" lon="-3.42067">
        <ele>-15.78</ele>
        <time>2018-05-31T12:21:25Z</time>
      </trkpt>
      <trkpt lat="47.81575" lon="-3.4206">
        <ele>-16.17</ele>
        <time>2018-05-31T12:21:32Z</time>
      </trkpt>
      <trkpt lat="47.81565" lon="-3.42049">
        <ele>-16.06</ele>
        <time>2018-05-31T12:21:41Z</time>
      </trkpt>
      <trkpt lat="47.81565" lon="-3.42049">
        <ele>-16.06</ele>
        <time>2018-05-31T12:21:42Z</time>
      </trkpt>
      <trkpt lat="47.81559" lon="-3.42044">
        <ele>-16.08</ele>
        <time>2018-05-31T12:21:46Z</time>
      </trkpt>
      <trkpt lat="47.81554" lon="-3.42035">
        <ele>-16.04</ele>
        <time>2018-05-31T12:21:52Z</time>
      </trkpt>
      <trkpt lat="47.81546" lon="-3.42028">
        <ele>-16.13</ele>
        <time>2018-05-31T12:21:58Z</time>
      </trkpt>
      <trkpt lat="47.81535" lon="-3.42015">
        <ele>-18.13</ele>
        <time>2018-05-31T12:22:09Z</time>
      </trkpt>
      <trkpt lat="47.81527" lon="-3.42009">
        <ele>-18.83</ele>
        <time>2018-05-31T12:22:13Z</time>
      </trkpt>
      <trkpt lat="47.81523" lon="-3.42006">
        <ele>-19.15</ele>
        <time>2018-05-31T12:22:16Z</time>
      </trkpt>
      <trkpt lat="47.81512" lon="-3.41999">
        <ele>-20.43</ele>
        <time>2018-05-31T12:22:24Z</time>
      </trkpt>
      <trkpt lat="47.81505" lon="-3.41994">
        <ele>-21.79</ele>
        <time>2018-05-31T12:22:34Z</time>
      </trkpt>
      <trkpt lat="47.81499" lon="-3.41991">
        <ele>-21.96</ele>
        <time>2018-05-31T12:22:41Z</time>
      </trkpt>
      <trkpt lat="47.81496" lon="-3.41989">
        <ele>-21.88</ele>
        <time>2018-05-31T12:22:44Z</time>
      </trkpt>
      <trkpt lat="47.81485" lon="-3.41982">
        <ele>-19.98</ele>
        <time>2018-05-31T12:22:51Z</time>
      </trkpt>
      <trkpt lat="47.81476" lon="-3.41981">
        <ele>-19.49</ele>
        <time>2018-05-31T12:23:06Z</time>
      </trkpt>
      <trkpt lat="47.81462" lon="-3.41984">
        <ele>-21.82</ele>
        <time>2018-05-31T12:23:16Z</time>
      </trkpt>
      <trkpt lat="47.81466" lon="-3.41984">
        <ele>-22.36</ele>
        <time>2018-05-31T12:23:26Z</time>
      </trkpt>
      <trkpt lat="47.81458" lon="-3.41977">
        <ele>-22.58</ele>
        <time>2018-05-31T12:23:35Z</time>
      </trkpt>
      <trkpt lat="47.81447" lon="-3.41965">
        <ele>-22.64</ele>
        <time>2018-05-31T12:23:47Z</time>
      </trkpt>
      <trkpt lat="47.81444" lon="-3.41963">
        <ele>-22.64</ele>
        <time>2018-05-31T12:23:49Z</time>
      </trkpt>
      <trkpt lat="47.81419" lon="-3.41943">
        <ele>-22.79</ele>
        <time>2018-05-31T12:24:04Z</time>
      </trkpt>
      <trkpt lat="47.81417" lon="-3.41941">
        <ele>-22.78</ele>
        <time>2018-05-31T12:24:06Z</time>
      </trkpt>
      <trkpt lat="47.81399" lon="-3.41924">
        <ele>-22.4</ele>
        <time>2018-05-31T12:24:17Z</time>
      </trkpt>
      <trkpt lat="47.81386" lon="-3.41913">
        <ele>-22.19</ele>
        <time>2018-05-31T12:24:23Z</time>
      </trkpt>
      <trkpt lat="47.81381" lon="-3.4191">
        <ele>-22.27</ele>
        <time>2018-05-31T12:24:27Z</time>
      </trkpt>
      <trkpt lat="47.81379" lon="-3.41908">
        <ele>-22.24</ele>
        <time>2018-05-31T12:24:29Z</time>
      </trkpt>
      <trkpt lat="47.81366" lon="-3.41893">
        <ele>-22.16</ele>
        <time>2018-05-31T12:24:38Z</time>
      </trkpt>
      <trkpt lat="47.81363" lon="-3.4189">
        <ele>-22.17</ele>
        <time>2018-05-31T12:24:40Z</time>
      </trkpt>
      <trkpt lat="47.8136" lon="-3.41888">
        <ele>-22.25</ele>
        <time>2018-05-31T12:24:45Z</time>
      </trkpt>
      <trkpt lat="47.81346" lon="-3.41879">
        <ele>-22.62</ele>
        <time>2018-05-31T12:24:55Z</time>
      </trkpt>
      <trkpt lat="47.81342" lon="-3.41876">
        <ele>-22.69</ele>
        <time>2018-05-31T12:24:58Z</time>
      </trkpt>
      <trkpt lat="47.81336" lon="-3.41873">
        <ele>-22.76</ele>
        <time>2018-05-31T12:25:01Z</time>
      </trkpt>
      <trkpt lat="47.81328" lon="-3.41868">
        <ele>-22.96</ele>
        <time>2018-05-31T12:25:05Z</time>
      </trkpt>
      <trkpt lat="47.81323" lon="-3.41863">
        <ele>-23.03</ele>
        <time>2018-05-31T12:25:10Z</time>
      </trkpt>
      <trkpt lat="47.81321" lon="-3.41861">
        <ele>-22.97</ele>
        <time>2018-05-31T12:25:12Z</time>
      </trkpt>
      <trkpt lat="47.81317" lon="-3.41857">
        <ele>-22.92</ele>
        <time>2018-05-31T12:25:15Z</time>
      </trkpt>
      <trkpt lat="47.81298" lon="-3.41841">
        <ele>-23.04</ele>
        <time>2018-05-31T12:25:25Z</time>
      </trkpt>
      <trkpt lat="47.81293" lon="-3.41829">
        <ele>-22.87</ele>
        <time>2018-05-31T12:25:31Z</time>
      </trkpt>
      <trkpt lat="47.81295" lon="-3.41824">
        <ele>-22.66</ele>
        <time>2018-05-31T12:25:34Z</time>
      </trkpt>
      <trkpt lat="47.81294" lon="-3.41816">
        <ele>-22.48</ele>
        <time>2018-05-31T12:25:38Z</time>
      </trkpt>
      <trkpt lat="47.81298" lon="-3.41797">
        <ele>-22.02</ele>
        <time>2018-05-31T12:25:49Z</time>
      </trkpt>
      <trkpt lat="47.81301" lon="-3.41787">
        <ele>-21.73</ele>
        <time>2018-05-31T12:25:55Z</time>
      </trkpt>
      <trkpt lat="47.813" lon="-3.41762">
        <ele>-21.92</ele>
        <time>2018-05-31T12:26:09Z</time>
      </trkpt>
      <trkpt lat="47.81304" lon="-3.41739">
        <ele>-22.59</ele>
        <time>2018-05-31T12:26:21Z</time>
      </trkpt>
      <trkpt lat="47.81304" lon="-3.4173">
        <ele>-22.74</ele>
        <time>2018-05-31T12:26:24Z</time>
      </trkpt>
      <trkpt lat="47.81304" lon="-3.41725">
        <ele>-22.8</ele>
        <time>2018-05-31T12:26:26Z</time>
      </trkpt>
      <trkpt lat="47.81307" lon="-3.41713">
        <ele>-22.92</ele>
        <time>2018-05-31T12:26:33Z</time>
      </trkpt>
      <trkpt lat="47.81313" lon="-3.41694">
        <ele>-23.15</ele>
        <time>2018-05-31T12:26:40Z</time>
      </trkpt>
      <trkpt lat="47.8132" lon="-3.41675">
        <ele>-23.54</ele>
        <time>2018-05-31T12:26:47Z</time>
      </trkpt>
      <trkpt lat="47.81323" lon="-3.41668">
        <ele>-23.72</ele>
        <time>2018-05-31T12:26:50Z</time>
      </trkpt>
      <trkpt lat="47.81324" lon="-3.4166">
        <ele>-24.01</ele>
        <time>2018-05-31T12:26:53Z</time>
      </trkpt>
      <trkpt lat="47.8133" lon="-3.41638">
        <ele>-24.18</ele>
        <time>2018-05-31T12:27:00Z</time>
      </trkpt>
      <trkpt lat="47.81335" lon="-3.41609">
        <ele>-24.02</ele>
        <time>2018-05-31T12:27:12Z</time>
      </trkpt>
      <trkpt lat="47.81334" lon="-3.41607">
        <ele>-24.01</ele>
        <time>2018-05-31T12:27:13Z</time>
      </trkpt>
      <trkpt lat="47.81336" lon="-3.41607">
        <ele>-24.03</ele>
        <time>2018-05-31T12:27:15Z</time>
      </trkpt>
      <trkpt lat="47.81337" lon="-3.41601">
        <ele>-24.04</ele>
        <time>2018-05-31T12:27:18Z</time>
      </trkpt>
      <trkpt lat="47.81337" lon="-3.41598">
        <ele>-24.03</ele>
        <time>2018-05-31T12:27:20Z</time>
      </trkpt>
      <trkpt lat="47.81338" lon="-3.41591">
        <ele>-23.94</ele>
        <time>2018-05-31T12:27:24Z</time>
      </trkpt>
      <trkpt lat="47.81335" lon="-3.41586">
        <ele>-23.84</ele>
        <time>2018-05-31T12:27:27Z</time>
      </trkpt>
      <trkpt lat="47.81338" lon="-3.41579">
        <ele>-23.99</ele>
        <time>2018-05-31T12:27:33Z</time>
      </trkpt>
      <trkpt lat="47.81333" lon="-3.4157">
        <ele>-24.03</ele>
        <time>2018-05-31T12:27:42Z</time>
      </trkpt>
      <trkpt lat="47.8133" lon="-3.41566">
        <ele>-23.99</ele>
        <time>2018-05-31T12:27:44Z</time>
      </trkpt>
      <trkpt lat="47.81324" lon="-3.41557">
        <ele>-24.13</ele>
        <time>2018-05-31T12:27:49Z</time>
      </trkpt>
      <trkpt lat="47.81317" lon="-3.41547">
        <ele>-24.32</ele>
        <time>2018-05-31T12:27:56Z</time>
      </trkpt>
      <trkpt lat="47.81312" lon="-3.41539">
        <ele>-24.35</ele>
        <time>2018-05-31T12:28:00Z</time>
      </trkpt>
      <trkpt lat="47.81307" lon="-3.41534">
        <ele>-24.25</ele>
        <time>2018-05-31T12:28:04Z</time>
      </trkpt>
      <trkpt lat="47.81307" lon="-3.41525">
        <ele>-23.83</ele>
        <time>2018-05-31T12:28:09Z</time>
      </trkpt>
      <trkpt lat="47.81308" lon="-3.41516">
        <ele>-23.42</ele>
        <time>2018-05-31T12:28:13Z</time>
      </trkpt>
      <trkpt lat="47.81305" lon="-3.41505">
        <ele>-22.85</ele>
        <time>2018-05-31T12:28:17Z</time>
      </trkpt>
      <trkpt lat="47.81304" lon="-3.41497">
        <ele>-22.2</ele>
        <time>2018-05-31T12:28:21Z</time>
      </trkpt>
      <trkpt lat="47.81318" lon="-3.41483">
        <ele>-19.77</ele>
        <time>2018-05-31T12:28:33Z</time>
      </trkpt>
      <trkpt lat="47.81314" lon="-3.41475">
        <ele>-17.55</ele>
        <time>2018-05-31T12:28:44Z</time>
      </trkpt>
      <trkpt lat="47.81313" lon="-3.41467">
        <ele>-17.1</ele>
        <time>2018-05-31T12:28:47Z</time>
      </trkpt>
      <trkpt lat="47.81305" lon="-3.4146">
        <ele>-15.5</ele>
        <time>2018-05-31T12:28:53Z</time>
      </trkpt>
      <trkpt lat="47.81299" lon="-3.41454">
        <ele>-15.08</ele>
        <time>2018-05-31T12:29:02Z</time>
      </trkpt>
      <trkpt lat="47.81288" lon="-3.4145">
        <ele>-16.49</ele>
        <time>2018-05-31T12:29:12Z</time>
      </trkpt>
      <trkpt lat="47.81285" lon="-3.41452">
        <ele>-17.21</ele>
        <time>2018-05-31T12:29:15Z</time>
      </trkpt>
      <trkpt lat="47.81278" lon="-3.4145">
        <ele>-18.61</ele>
        <time>2018-05-31T12:29:21Z</time>
      </trkpt>
      <trkpt lat="47.81274" lon="-3.41453">
        <ele>-19.27</ele>
        <time>2018-05-31T12:29:24Z</time>
      </trkpt>
      <trkpt lat="47.81272" lon="-3.41456">
        <ele>-19.8</ele>
        <time>2018-05-31T12:29:27Z</time>
      </trkpt>
      <trkpt lat="47.81268" lon="-3.41458">
        <ele>-20.7</ele>
        <time>2018-05-31T12:29:31Z</time>
      </trkpt>
      <trkpt lat="47.81265" lon="-3.41461">
        <ele>-21.17</ele>
        <time>2018-05-31T12:29:34Z</time>
      </trkpt>
      <trkpt lat="47.81259" lon="-3.41459">
        <ele>-22.49</ele>
        <time>2018-05-31T12:29:41Z</time>
      </trkpt>
      <trkpt lat="47.81248" lon="-3.4146">
        <ele>-23.58</ele>
        <time>2018-05-31T12:29:48Z</time>
      </trkpt>
      <trkpt lat="47.81229" lon="-3.41463">
        <ele>-23.96</ele>
        <time>2018-05-31T12:30:01Z</time>
      </trkpt>
      <trkpt lat="47.81222" lon="-3.41461">
        <ele>-24.3</ele>
        <time>2018-05-31T12:30:08Z</time>
      </trkpt>
      <trkpt lat="47.8121" lon="-3.41455">
        <ele>-23.19</ele>
        <time>2018-05-31T12:30:18Z</time>
      </trkpt>
      <trkpt lat="47.81205" lon="-3.41453">
        <ele>-22.7</ele>
        <time>2018-05-31T12:30:22Z</time>
      </trkpt>
      <trkpt lat="47.81195" lon="-3.41447">
        <ele>-23.06</ele>
        <time>2018-05-31T12:30:34Z</time>
      </trkpt>
      <trkpt lat="47.81189" lon="-3.41446">
        <ele>-22.78</ele>
        <time>2018-05-31T12:30:40Z</time>
      </trkpt>
      <trkpt lat="47.81181" lon="-3.41438">
        <ele>-22.99</ele>
        <time>2018-05-31T12:30:49Z</time>
      </trkpt>
      <trkpt lat="47.8118" lon="-3.41436">
        <ele>-22.69</ele>
        <time>2018-05-31T12:30:51Z</time>
      </trkpt>
      <trkpt lat="47.81174" lon="-3.41432">
        <ele>-21.71</ele>
        <time>2018-05-31T12:30:56Z</time>
      </trkpt>
      <trkpt lat="47.81171" lon="-3.41429">
        <ele>-21.59</ele>
        <time>2018-05-31T12:30:58Z</time>
      </trkpt>
      <trkpt lat="47.81167" lon="-3.41427">
        <ele>-21.56</ele>
        <time>2018-05-31T12:31:00Z</time>
      </trkpt>
      <trkpt lat="47.81156" lon="-3.4142">
        <ele>-21.66</ele>
        <time>2018-05-31T12:31:04Z</time>
      </trkpt>
      <trkpt lat="47.81147" lon="-3.41413">
        <ele>-22.16</ele>
        <time>2018-05-31T12:31:10Z</time>
      </trkpt>
      <trkpt lat="47.81136" lon="-3.41401">
        <ele>-22.93</ele>
        <time>2018-05-31T12:31:18Z</time>
      </trkpt>
      <trkpt lat="47.81128" lon="-3.41385">
        <ele>-23.58</ele>
        <time>2018-05-31T12:31:25Z</time>
      </trkpt>
      <trkpt lat="47.81123" lon="-3.41372">
        <ele>-23.95</ele>
        <time>2018-05-31T12:31:30Z</time>
      </trkpt>
      <trkpt lat="47.81121" lon="-3.41367">
        <ele>-24.11</ele>
        <time>2018-05-31T12:31:32Z</time>
      </trkpt>
      <trkpt lat="47.81118" lon="-3.41358">
        <ele>-24.07</ele>
        <time>2018-05-31T12:31:36Z</time>
      </trkpt>
      <trkpt lat="47.81118" lon="-3.41355">
        <ele>-23.95</ele>
        <time>2018-05-31T12:31:38Z</time>
      </trkpt>
      <trkpt lat="47.81119" lon="-3.41346">
        <ele>-23.59</ele>
        <time>2018-05-31T12:31:42Z</time>
      </trkpt>
      <trkpt lat="47.81119" lon="-3.4134">
        <ele>-23.29</ele>
        <time>2018-05-31T12:31:45Z</time>
      </trkpt>
      <trkpt lat="47.81123" lon="-3.41328">
        <ele>-22.29</ele>
        <time>2018-05-31T12:31:55Z</time>
      </trkpt>
      <trkpt lat="47.81125" lon="-3.41325">
        <ele>-21.86</ele>
        <time>2018-05-31T12:31:58Z</time>
      </trkpt>
      <trkpt lat="47.81127" lon="-3.41323">
        <ele>-21.58</ele>
        <time>2018-05-31T12:32:00Z</time>
      </trkpt>
      <trkpt lat="47.8113" lon="-3.41321">
        <ele>-21.19</ele>
        <time>2018-05-31T12:32:02Z</time>
      </trkpt>
      <trkpt lat="47.81137" lon="-3.41315">
        <ele>-20.47</ele>
        <time>2018-05-31T12:32:08Z</time>
      </trkpt>
      <trkpt lat="47.81138" lon="-3.41313">
        <ele>-20.22</ele>
        <time>2018-05-31T12:32:10Z</time>
      </trkpt>
      <trkpt lat="47.81141" lon="-3.41304">
        <ele>-19.62</ele>
        <time>2018-05-31T12:32:14Z</time>
      </trkpt>
      <trkpt lat="47.81143" lon="-3.41281">
        <ele>-19.05</ele>
        <time>2018-05-31T12:32:23Z</time>
      </trkpt>
      <trkpt lat="47.81143" lon="-3.41258">
        <ele>-18.44</ele>
        <time>2018-05-31T12:32:34Z</time>
      </trkpt>
      <trkpt lat="47.81134" lon="-3.4123">
        <ele>-17.52</ele>
        <time>2018-05-31T12:32:46Z</time>
      </trkpt>
      <trkpt lat="47.81129" lon="-3.41201">
        <ele>-16.18</ele>
        <time>2018-05-31T12:32:59Z</time>
      </trkpt>
      <trkpt lat="47.8112" lon="-3.41169">
        <ele>-14.74</ele>
        <time>2018-05-31T12:33:13Z</time>
      </trkpt>
      <trkpt lat="47.81117" lon="-3.41134">
        <ele>-13.13</ele>
        <time>2018-05-31T12:33:32Z</time>
      </trkpt>
      <trkpt lat="47.81114" lon="-3.41124">
        <ele>-12.96</ele>
        <time>2018-05-31T12:33:38Z</time>
      </trkpt>
      <trkpt lat="47.81118" lon="-3.41074">
        <ele>-12.57</ele>
        <time>2018-05-31T12:33:57Z</time>
      </trkpt>
      <trkpt lat="47.81129" lon="-3.41032">
        <ele>-12.75</ele>
        <time>2018-05-31T12:34:13Z</time>
      </trkpt>
      <trkpt lat="47.81129" lon="-3.41015">
        <ele>-12.68</ele>
        <time>2018-05-31T12:34:20Z</time>
      </trkpt>
      <trkpt lat="47.81132" lon="-3.40997">
        <ele>-12.67</ele>
        <time>2018-05-31T12:34:30Z</time>
      </trkpt>
      <trkpt lat="47.8113" lon="-3.4097">
        <ele>-12.67</ele>
        <time>2018-05-31T12:34:44Z</time>
      </trkpt>
      <trkpt lat="47.81134" lon="-3.40962">
        <ele>-12.91</ele>
        <time>2018-05-31T12:34:53Z</time>
      </trkpt>
      <trkpt lat="47.81137" lon="-3.40961">
        <ele>-12.82</ele>
        <time>2018-05-31T12:34:57Z</time>
      </trkpt>
      <trkpt lat="47.81132" lon="-3.40955">
        <ele>-12.78</ele>
        <time>2018-05-31T12:35:00Z</time>
      </trkpt>
      <trkpt lat="47.81133" lon="-3.40933">
        <ele>-12.11</ele>
        <time>2018-05-31T12:35:14Z</time>
      </trkpt>
      <trkpt lat="47.81135" lon="-3.40931">
        <ele>-11.94</ele>
        <time>2018-05-31T12:35:16Z</time>
      </trkpt>
      <trkpt lat="47.81185" lon="-3.40895">
        <ele>-10.2</ele>
        <time>2018-05-31T12:35:51Z</time>
      </trkpt>
      <trkpt lat="47.81197" lon="-3.40881">
        <ele>-9.58</ele>
        <time>2018-05-31T12:36:01Z</time>
      </trkpt>
      <trkpt lat="47.8124" lon="-3.40826">
        <ele>-7.99</ele>
        <time>2018-05-31T12:36:37Z</time>
      </trkpt>
      <trkpt lat="47.81243" lon="-3.40821">
        <ele>-7.8</ele>
        <time>2018-05-31T12:36:40Z</time>
      </trkpt>
      <trkpt lat="47.81246" lon="-3.40813">
        <ele>-7.6</ele>
        <time>2018-05-31T12:36:44Z</time>
      </trkpt>
      <trkpt lat="47.81247" lon="-3.40808">
        <ele>-7.5</ele>
        <time>2018-05-31T12:36:47Z</time>
      </trkpt>
      <trkpt lat="47.81256" lon="-3.40793">
        <ele>-6.72</ele>
        <time>2018-05-31T12:36:57Z</time>
      </trkpt>
      <trkpt lat="47.81268" lon="-3.40785">
        <ele>-6.66</ele>
        <time>2018-05-31T12:37:05Z</time>
      </trkpt>
      <trkpt lat="47.81278" lon="-3.40779">
        <ele>-6.41</ele>
        <time>2018-05-31T12:37:22Z</time>
      </trkpt>
      <trkpt lat="47.81286" lon="-3.4078">
        <ele>-6.2</ele>
        <time>2018-05-31T12:37:33Z</time>
      </trkpt>
      <trkpt lat="47.81291" lon="-3.40779">
        <ele>-5.98</ele>
        <time>2018-05-31T12:37:44Z</time>
      </trkpt>
      <trkpt lat="47.81307" lon="-3.40775">
        <ele>-6.08</ele>
        <time>2018-05-31T12:37:55Z</time>
      </trkpt>
      <trkpt lat="47.8131" lon="-3.40776">
        <ele>-6.13</ele>
        <time>2018-05-31T12:37:57Z</time>
      </trkpt>
      <trkpt lat="47.81328" lon="-3.40777">
        <ele>-6.13</ele>
        <time>2018-05-31T12:38:08Z</time>
      </trkpt>
      <trkpt lat="47.81363" lon="-3.40774">
        <ele>-5.1</ele>
        <time>2018-05-31T12:38:31Z</time>
      </trkpt>
      <trkpt lat="47.81371" lon="-3.40768">
        <ele>-4.51</ele>
        <time>2018-05-31T12:38:35Z</time>
      </trkpt>
      <trkpt lat="47.81384" lon="-3.40768">
        <ele>-3.66</ele>
        <time>2018-05-31T12:38:44Z</time>
      </trkpt>
      <trkpt lat="47.81394" lon="-3.4077">
        <ele>-3.34</ele>
        <time>2018-05-31T12:38:50Z</time>
      </trkpt>
      <trkpt lat="47.81406" lon="-3.40768">
        <ele>-3.29</ele>
        <time>2018-05-31T12:38:57Z</time>
      </trkpt>
      <trkpt lat="47.81409" lon="-3.40767">
        <ele>-3.3</ele>
        <time>2018-05-31T12:39:00Z</time>
      </trkpt>
      <trkpt lat="47.81414" lon="-3.40768">
        <ele>-3.31</ele>
        <time>2018-05-31T12:39:02Z</time>
      </trkpt>
      <trkpt lat="47.81416" lon="-3.40766">
        <ele>-3.3</ele>
        <time>2018-05-31T12:39:04Z</time>
      </trkpt>
      <trkpt lat="47.81421" lon="-3.40766">
        <ele>-3.2</ele>
        <time>2018-05-31T12:39:06Z</time>
      </trkpt>
      <trkpt lat="47.81434" lon="-3.40763">
        <ele>-2.78</ele>
        <time>2018-05-31T12:39:15Z</time>
      </trkpt>
      <trkpt lat="47.81437" lon="-3.40761">
        <ele>-2.77</ele>
        <time>2018-05-31T12:39:18Z</time>
      </trkpt>
      <trkpt lat="47.81452" lon="-3.40756">
        <ele>-2.59</ele>
        <time>2018-05-31T12:39:27Z</time>
      </trkpt>
      <trkpt lat="47.81458" lon="-3.4075">
        <ele>-2.34</ele>
        <time>2018-05-31T12:39:34Z</time>
      </trkpt>
      <trkpt lat="47.81468" lon="-3.40747">
        <ele>-1.99</ele>
        <time>2018-05-31T12:39:40Z</time>
      </trkpt>
      <trkpt lat="47.81472" lon="-3.40745">
        <ele>-1.94</ele>
        <time>2018-05-31T12:39:43Z</time>
      </trkpt>
      <trkpt lat="47.81496" lon="-3.40739">
        <ele>-1.25</ele>
        <time>2018-05-31T12:40:00Z</time>
      </trkpt>
      <trkpt lat="47.81509" lon="-3.40727">
        <ele>-0.67</ele>
        <time>2018-05-31T12:40:11Z</time>
      </trkpt>
      <trkpt lat="47.81534" lon="-3.40719">
        <ele>-0.16</ele>
        <time>2018-05-31T12:40:25Z</time>
      </trkpt>
      <trkpt lat="47.81536" lon="-3.40718">
        <ele>-0.13</ele>
        <time>2018-05-31T12:40:26Z</time>
      </trkpt>
      <trkpt lat="47.81556" lon="-3.40714">
        <ele>0.29</ele>
        <time>2018-05-31T12:40:35Z</time>
      </trkpt>
      <trkpt lat="47.81567" lon="-3.40712">
        <ele>0.7</ele>
        <time>2018-05-31T12:40:42Z</time>
      </trkpt>
      <trkpt lat="47.81574" lon="-3.40711">
        <ele>0.76</ele>
        <time>2018-05-31T12:40:45Z</time>
      </trkpt>
      <trkpt lat="47.81586" lon="-3.40706">
        <ele>0.63</ele>
        <time>2018-05-31T12:40:53Z</time>
      </trkpt>
      <trkpt lat="47.81589" lon="-3.40706">
        <ele>0.67</ele>
        <time>2018-05-31T12:40:55Z</time>
      </trkpt>
      <trkpt lat="47.81599" lon="-3.40696">
        <ele>0.93</ele>
        <time>2018-05-31T12:41:02Z</time>
      </trkpt>
      <trkpt lat="47.81607" lon="-3.40694">
        <ele>0.98</ele>
        <time>2018-05-31T12:41:06Z</time>
      </trkpt>
      <trkpt lat="47.81612" lon="-3.40693">
        <ele>0.95</ele>
        <time>2018-05-31T12:41:10Z</time>
      </trkpt>
      <trkpt lat="47.81619" lon="-3.40692">
        <ele>0.94</ele>
        <time>2018-05-31T12:41:13Z</time>
      </trkpt>
      <trkpt lat="47.81628" lon="-3.40693">
        <ele>0.91</ele>
        <time>2018-05-31T12:41:18Z</time>
      </trkpt>
      <trkpt lat="47.81636" lon="-3.40691">
        <ele>0.95</ele>
        <time>2018-05-31T12:41:23Z</time>
      </trkpt>
      <trkpt lat="47.81651" lon="-3.40683">
        <ele>0.44</ele>
        <time>2018-05-31T12:41:34Z</time>
      </trkpt>
      <trkpt lat="47.81653" lon="-3.40679">
        <ele>0.36</ele>
        <time>2018-05-31T12:41:38Z</time>
      </trkpt>
      <trkpt lat="47.81658" lon="-3.40679">
        <ele>0.31</ele>
        <time>2018-05-31T12:41:40Z</time>
      </trkpt>
      <trkpt lat="47.81672" lon="-3.40679">
        <ele>0.02</ele>
        <time>2018-05-31T12:41:46Z</time>
      </trkpt>
      <trkpt lat="47.81683" lon="-3.40679">
        <ele>-0.07</ele>
        <time>2018-05-31T12:41:50Z</time>
      </trkpt>
      <trkpt lat="47.81687" lon="-3.40676">
        <ele>-0.2</ele>
        <time>2018-05-31T12:41:54Z</time>
      </trkpt>
      <trkpt lat="47.81704" lon="-3.40668">
        <ele>-0.84</ele>
        <time>2018-05-31T12:42:08Z</time>
      </trkpt>
      <trkpt lat="47.81736" lon="-3.40668">
        <ele>-1.75</ele>
        <time>2018-05-31T12:42:26Z</time>
      </trkpt>
      <trkpt lat="47.81761" lon="-3.40673">
        <ele>-2.43</ele>
        <time>2018-05-31T12:42:39Z</time>
      </trkpt>
      <trkpt lat="47.81779" lon="-3.40673">
        <ele>-2.81</ele>
        <time>2018-05-31T12:42:47Z</time>
      </trkpt>
      <trkpt lat="47.81791" lon="-3.40671">
        <ele>-3.27</ele>
        <time>2018-05-31T12:42:55Z</time>
      </trkpt>
      <trkpt lat="47.81816" lon="-3.40671">
        <ele>-5.04</ele>
        <time>2018-05-31T12:43:14Z</time>
      </trkpt>
      <trkpt lat="47.81827" lon="-3.40678">
        <ele>-6.41</ele>
        <time>2018-05-31T12:43:28Z</time>
      </trkpt>
      <trkpt lat="47.81897" lon="-3.40715">
        <ele>-5.87</ele>
        <time>2018-05-31T12:43:57Z</time>
      </trkpt>
      <trkpt lat="47.81904" lon="-3.40716">
        <ele>-5.72</ele>
        <time>2018-05-31T12:44:04Z</time>
      </trkpt>
      <trkpt lat="47.81909" lon="-3.40718">
        <ele>-5.68</ele>
        <time>2018-05-31T12:44:07Z</time>
      </trkpt>
      <trkpt lat="47.81911" lon="-3.40719">
        <ele>-5.67</ele>
        <time>2018-05-31T12:44:08Z</time>
      </trkpt>
      <trkpt lat="47.81914" lon="-3.4072">
        <ele>-5.7</ele>
        <time>2018-05-31T12:44:10Z</time>
      </trkpt>
      <trkpt lat="47.81915" lon="-3.4072">
        <ele>-5.73</ele>
        <time>2018-05-31T12:44:11Z</time>
      </trkpt>
      <trkpt lat="47.81917" lon="-3.4072">
        <ele>-5.82</ele>
        <time>2018-05-31T12:44:13Z</time>
      </trkpt>
      <trkpt lat="47.81919" lon="-3.40721">
        <ele>-5.85</ele>
        <time>2018-05-31T12:44:14Z</time>
      </trkpt>
      <trkpt lat="47.81921" lon="-3.40721">
        <ele>-5.89</ele>
        <time>2018-05-31T12:44:15Z</time>
      </trkpt>
      <trkpt lat="47.81923" lon="-3.40722">
        <ele>-5.96</ele>
        <time>2018-05-31T12:44:16Z</time>
      </trkpt>
      <trkpt lat="47.81925" lon="-3.40722">
        <ele>-6.03</ele>
        <time>2018-05-31T12:44:17Z</time>
      </trkpt>
      <trkpt lat="47.81932" lon="-3.40721">
        <ele>-6.31</ele>
        <time>2018-05-31T12:44:21Z</time>
      </trkpt>
      <trkpt lat="47.81935" lon="-3.40723">
        <ele>-6.4</ele>
        <time>2018-05-31T12:44:23Z</time>
      </trkpt>
      <trkpt lat="47.81937" lon="-3.40724">
        <ele>-6.45</ele>
        <time>2018-05-31T12:44:24Z</time>
      </trkpt>
      <trkpt lat="47.81952" lon="-3.40722">
        <ele>-7.05</ele>
        <time>2018-05-31T12:44:36Z</time>
      </trkpt>
      <trkpt lat="47.81953" lon="-3.40722">
        <ele>-7.05</ele>
        <time>2018-05-31T12:44:38Z</time>
      </trkpt>
      <trkpt lat="47.81958" lon="-3.40723">
        <ele>-7.01</ele>
        <time>2018-05-31T12:44:41Z</time>
      </trkpt>
      <trkpt lat="47.81969" lon="-3.40722">
        <ele>-7.88</ele>
        <time>2018-05-31T12:44:48Z</time>
      </trkpt>
      <trkpt lat="47.8197" lon="-3.40723">
        <ele>-8.01</ele>
        <time>2018-05-31T12:44:49Z</time>
      </trkpt>
      <trkpt lat="47.81972" lon="-3.40723">
        <ele>-8.08</ele>
        <time>2018-05-31T12:44:50Z</time>
      </trkpt>
      <trkpt lat="47.81974" lon="-3.40724">
        <ele>-8.15</ele>
        <time>2018-05-31T12:44:51Z</time>
      </trkpt>
      <trkpt lat="47.81975" lon="-3.40724">
        <ele>-8.25</ele>
        <time>2018-05-31T12:44:52Z</time>
      </trkpt>
      <trkpt lat="47.81978" lon="-3.40727">
        <ele>-8.29</ele>
        <time>2018-05-31T12:44:55Z</time>
      </trkpt>
      <trkpt lat="47.81982" lon="-3.40724">
        <ele>-8.31</ele>
        <time>2018-05-31T12:44:56Z</time>
      </trkpt>
      <trkpt lat="47.81986" lon="-3.40725">
        <ele>-8.48</ele>
        <time>2018-05-31T12:44:59Z</time>
      </trkpt>
      <trkpt lat="47.8199" lon="-3.40729">
        <ele>-8.64</ele>
        <time>2018-05-31T12:45:02Z</time>
      </trkpt>
      <trkpt lat="47.81991" lon="-3.40729">
        <ele>-8.68</ele>
        <time>2018-05-31T12:45:03Z</time>
      </trkpt>
      <trkpt lat="47.81992" lon="-3.4073">
        <ele>-8.72</ele>
        <time>2018-05-31T12:45:04Z</time>
      </trkpt>
      <trkpt lat="47.82008" lon="-3.40743">
        <ele>-9.34</ele>
        <time>2018-05-31T12:45:14Z</time>
      </trkpt>
      <trkpt lat="47.8201" lon="-3.40745">
        <ele>-9.41</ele>
        <time>2018-05-31T12:45:15Z</time>
      </trkpt>
      <trkpt lat="47.82011" lon="-3.40747">
        <ele>-9.53</ele>
        <time>2018-05-31T12:45:16Z</time>
      </trkpt>
      <trkpt lat="47.82014" lon="-3.40748">
        <ele>-9.62</ele>
        <time>2018-05-31T12:45:18Z</time>
      </trkpt>
      <trkpt lat="47.82017" lon="-3.40751">
        <ele>-9.75</ele>
        <time>2018-05-31T12:45:20Z</time>
      </trkpt>
      <trkpt lat="47.82018" lon="-3.40752">
        <ele>-9.84</ele>
        <time>2018-05-31T12:45:21Z</time>
      </trkpt>
      <trkpt lat="47.8202" lon="-3.40753">
        <ele>-9.91</ele>
        <time>2018-05-31T12:45:22Z</time>
      </trkpt>
      <trkpt lat="47.82021" lon="-3.40753">
        <ele>-10.05</ele>
        <time>2018-05-31T12:45:24Z</time>
      </trkpt>
      <trkpt lat="47.82023" lon="-3.40753">
        <ele>-10.12</ele>
        <time>2018-05-31T12:45:25Z</time>
      </trkpt>
      <trkpt lat="47.82025" lon="-3.40754">
        <ele>-10.16</ele>
        <time>2018-05-31T12:45:26Z</time>
      </trkpt>
      <trkpt lat="47.82026" lon="-3.40753">
        <ele>-10.18</ele>
        <time>2018-05-31T12:45:27Z</time>
      </trkpt>
      <trkpt lat="47.82033" lon="-3.40756">
        <ele>-10.41</ele>
        <time>2018-05-31T12:45:32Z</time>
      </trkpt>
      <trkpt lat="47.82037" lon="-3.40759">
        <ele>-10.46</ele>
        <time>2018-05-31T12:45:34Z</time>
      </trkpt>
      <trkpt lat="47.82039" lon="-3.40762">
        <ele>-10.51</ele>
        <time>2018-05-31T12:45:35Z</time>
      </trkpt>
      <trkpt lat="47.82041" lon="-3.40764">
        <ele>-10.55</ele>
        <time>2018-05-31T12:45:36Z</time>
      </trkpt>
      <trkpt lat="47.82043" lon="-3.40766">
        <ele>-10.59</ele>
        <time>2018-05-31T12:45:37Z</time>
      </trkpt>
      <trkpt lat="47.82045" lon="-3.40767">
        <ele>-10.65</ele>
        <time>2018-05-31T12:45:38Z</time>
      </trkpt>
      <trkpt lat="47.82053" lon="-3.40774">
        <ele>-10.92</ele>
        <time>2018-05-31T12:45:43Z</time>
      </trkpt>
      <trkpt lat="47.82058" lon="-3.40778">
        <ele>-11.08</ele>
        <time>2018-05-31T12:45:46Z</time>
      </trkpt>
      <trkpt lat="47.8206" lon="-3.40779">
        <ele>-11.12</ele>
        <time>2018-05-31T12:45:47Z</time>
      </trkpt>
      <trkpt lat="47.82061" lon="-3.4078">
        <ele>-11.15</ele>
        <time>2018-05-31T12:45:48Z</time>
      </trkpt>
      <trkpt lat="47.82063" lon="-3.40781">
        <ele>-11.19</ele>
        <time>2018-05-31T12:45:49Z</time>
      </trkpt>
      <trkpt lat="47.82064" lon="-3.40782">
        <ele>-11.23</ele>
        <time>2018-05-31T12:45:50Z</time>
      </trkpt>
      <trkpt lat="47.82067" lon="-3.40784">
        <ele>-11.35</ele>
        <time>2018-05-31T12:45:52Z</time>
      </trkpt>
      <trkpt lat="47.82069" lon="-3.40785">
        <ele>-11.4</ele>
        <time>2018-05-31T12:45:53Z</time>
      </trkpt>
      <trkpt lat="47.82081" lon="-3.40798">
        <ele>-11.69</ele>
        <time>2018-05-31T12:46:00Z</time>
      </trkpt>
      <trkpt lat="47.82084" lon="-3.40798">
        <ele>-11.77</ele>
        <time>2018-05-31T12:46:03Z</time>
      </trkpt>
      <trkpt lat="47.82086" lon="-3.40799">
        <ele>-11.99</ele>
        <time>2018-05-31T12:46:07Z</time>
      </trkpt>
      <trkpt lat="47.82108" lon="-3.40813">
        <ele>-12.31</ele>
        <time>2018-05-31T12:46:20Z</time>
      </trkpt>
      <trkpt lat="47.8211" lon="-3.40815">
        <ele>-12.33</ele>
        <time>2018-05-31T12:46:21Z</time>
      </trkpt>
      <trkpt lat="47.82117" lon="-3.4082">
        <ele>-12.71</ele>
        <time>2018-05-31T12:46:25Z</time>
      </trkpt>
      <trkpt lat="47.82122" lon="-3.40822">
        <ele>-13.57</ele>
        <time>2018-05-31T12:46:36Z</time>
      </trkpt>
      <trkpt lat="47.82138" lon="-3.4084">
        <ele>-14.03</ele>
        <time>2018-05-31T12:46:48Z</time>
      </trkpt>
      <trkpt lat="47.82142" lon="-3.40844">
        <ele>-14.05</ele>
        <time>2018-05-31T12:46:50Z</time>
      </trkpt>
      <trkpt lat="47.82141" lon="-3.40845">
        <ele>-14.06</ele>
        <time>2018-05-31T12:46:51Z</time>
      </trkpt>
      <trkpt lat="47.82145" lon="-3.40853">
        <ele>-14.08</ele>
        <time>2018-05-31T12:46:54Z</time>
      </trkpt>
      <trkpt lat="47.82157" lon="-3.40865">
        <ele>-14.29</ele>
        <time>2018-05-31T12:47:05Z</time>
      </trkpt>
      <trkpt lat="47.82163" lon="-3.40871">
        <ele>-14.36</ele>
        <time>2018-05-31T12:47:10Z</time>
      </trkpt>
      <trkpt lat="47.82166" lon="-3.40873">
        <ele>-14.38</ele>
        <time>2018-05-31T12:47:12Z</time>
      </trkpt>
      <trkpt lat="47.82184" lon="-3.4089">
        <ele>-14.56</ele>
        <time>2018-05-31T12:47:22Z</time>
      </trkpt>
      <trkpt lat="47.82194" lon="-3.40897">
        <ele>-14.62</ele>
        <time>2018-05-31T12:47:30Z</time>
      </trkpt>
      <trkpt lat="47.82207" lon="-3.40911">
        <ele>-14.61</ele>
        <time>2018-05-31T12:47:42Z</time>
      </trkpt>
      <trkpt lat="47.82216" lon="-3.40919">
        <ele>-14.6</ele>
        <time>2018-05-31T12:47:47Z</time>
      </trkpt>
      <trkpt lat="47.82217" lon="-3.40921">
        <ele>-14.59</ele>
        <time>2018-05-31T12:47:48Z</time>
      </trkpt>
      <trkpt lat="47.82238" lon="-3.40944">
        <ele>-14.77</ele>
        <time>2018-05-31T12:47:58Z</time>
      </trkpt>
      <trkpt lat="47.82241" lon="-3.40946">
        <ele>-14.77</ele>
        <time>2018-05-31T12:47:59Z</time>
      </trkpt>
      <trkpt lat="47.82256" lon="-3.40964">
        <ele>-14.73</ele>
        <time>2018-05-31T12:48:10Z</time>
      </trkpt>
      <trkpt lat="47.82258" lon="-3.40965">
        <ele>-14.75</ele>
        <time>2018-05-31T12:48:11Z</time>
      </trkpt>
      <trkpt lat="47.8226" lon="-3.40967">
        <ele>-14.77</ele>
        <time>2018-05-31T12:48:12Z</time>
      </trkpt>
      <trkpt lat="47.82262" lon="-3.4097">
        <ele>-14.81</ele>
        <time>2018-05-31T12:48:15Z</time>
      </trkpt>
      <trkpt lat="47.82265" lon="-3.40973">
        <ele>-14.87</ele>
        <time>2018-05-31T12:48:18Z</time>
      </trkpt>
      <trkpt lat="47.82268" lon="-3.40977">
        <ele>-14.99</ele>
        <time>2018-05-31T12:48:23Z</time>
      </trkpt>
      <trkpt lat="47.82285" lon="-3.41">
        <ele>-15.41</ele>
        <time>2018-05-31T12:48:37Z</time>
      </trkpt>
      <trkpt lat="47.82302" lon="-3.4102">
        <ele>-15.48</ele>
        <time>2018-05-31T12:48:50Z</time>
      </trkpt>
      <trkpt lat="47.82332" lon="-3.41039">
        <ele>-15.2</ele>
        <time>2018-05-31T12:49:09Z</time>
      </trkpt>
      <trkpt lat="47.82335" lon="-3.41039">
        <ele>-15.19</ele>
        <time>2018-05-31T12:49:10Z</time>
      </trkpt>
      <trkpt lat="47.82337" lon="-3.41039">
        <ele>-15.16</ele>
        <time>2018-05-31T12:49:11Z</time>
      </trkpt>
      <trkpt lat="47.82338" lon="-3.4104">
        <ele>-15.16</ele>
        <time>2018-05-31T12:49:12Z</time>
      </trkpt>
      <trkpt lat="47.82371" lon="-3.41053">
        <ele>-14.65</ele>
        <time>2018-05-31T12:49:31Z</time>
      </trkpt>
      <trkpt lat="47.8238" lon="-3.41052">
        <ele>-14.79</ele>
        <time>2018-05-31T12:49:37Z</time>
      </trkpt>
      <trkpt lat="47.824" lon="-3.41047">
        <ele>-14.43</ele>
        <time>2018-05-31T12:49:48Z</time>
      </trkpt>
      <trkpt lat="47.82426" lon="-3.41039">
        <ele>-14.37</ele>
        <time>2018-05-31T12:50:04Z</time>
      </trkpt>
      <trkpt lat="47.82429" lon="-3.41038">
        <ele>-14.49</ele>
        <time>2018-05-31T12:50:06Z</time>
      </trkpt>
      <trkpt lat="47.82509" lon="-3.4099">
        <ele>-15.82</ele>
        <time>2018-05-31T12:51:04Z</time>
      </trkpt>
      <trkpt lat="47.82532" lon="-3.40977">
        <ele>-15.56</ele>
        <time>2018-05-31T12:51:22Z</time>
      </trkpt>
      <trkpt lat="47.82553" lon="-3.40969">
        <ele>-14.88</ele>
        <time>2018-05-31T12:51:36Z</time>
      </trkpt>
      <trkpt lat="47.82618" lon="-3.40952">
        <ele>-13.07</ele>
        <time>2018-05-31T12:52:09Z</time>
      </trkpt>
      <trkpt lat="47.8262" lon="-3.40949">
        <ele>-12.93</ele>
        <time>2018-05-31T12:52:11Z</time>
      </trkpt>
      <trkpt lat="47.82624" lon="-3.40947">
        <ele>-12.77</ele>
        <time>2018-05-31T12:52:14Z</time>
      </trkpt>
      <trkpt lat="47.82637" lon="-3.40944">
        <ele>-12.19</ele>
        <time>2018-05-31T12:52:22Z</time>
      </trkpt>
      <trkpt lat="47.82653" lon="-3.40937">
        <ele>-11.95</ele>
        <time>2018-05-31T12:52:30Z</time>
      </trkpt>
      <trkpt lat="47.82671" lon="-3.40927">
        <ele>-11.29</ele>
        <time>2018-05-31T12:52:40Z</time>
      </trkpt>
      <trkpt lat="47.82675" lon="-3.40926">
        <ele>-11.15</ele>
        <time>2018-05-31T12:52:43Z</time>
      </trkpt>
      <trkpt lat="47.82679" lon="-3.40924">
        <ele>-11.09</ele>
        <time>2018-05-31T12:52:46Z</time>
      </trkpt>
      <trkpt lat="47.82695" lon="-3.40915">
        <ele>-10.76</ele>
        <time>2018-05-31T12:52:57Z</time>
      </trkpt>
      <trkpt lat="47.82701" lon="-3.40911">
        <ele>-10.56</ele>
        <time>2018-05-31T12:53:02Z</time>
      </trkpt>
      <trkpt lat="47.82705" lon="-3.4091">
        <ele>-10.29</ele>
        <time>2018-05-31T12:53:05Z</time>
      </trkpt>
      <trkpt lat="47.82711" lon="-3.40905">
        <ele>-10.14</ele>
        <time>2018-05-31T12:53:10Z</time>
      </trkpt>
      <trkpt lat="47.82717" lon="-3.40901">
        <ele>-9.98</ele>
        <time>2018-05-31T12:53:14Z</time>
      </trkpt>
      <trkpt lat="47.82721" lon="-3.409">
        <ele>-9.83</ele>
        <time>2018-05-31T12:53:17Z</time>
      </trkpt>
      <trkpt lat="47.82727" lon="-3.40897">
        <ele>-9.58</ele>
        <time>2018-05-31T12:53:21Z</time>
      </trkpt>
      <trkpt lat="47.82731" lon="-3.40894">
        <ele>-9.46</ele>
        <time>2018-05-31T12:53:24Z</time>
      </trkpt>
      <trkpt lat="47.8274" lon="-3.4089">
        <ele>-9.36</ele>
        <time>2018-05-31T12:53:30Z</time>
      </trkpt>
      <trkpt lat="47.82743" lon="-3.40891">
        <ele>-9.19</ele>
        <time>2018-05-31T12:53:33Z</time>
      </trkpt>
      <trkpt lat="47.82753" lon="-3.40886">
        <ele>-8.87</ele>
        <time>2018-05-31T12:53:40Z</time>
      </trkpt>
      <trkpt lat="47.82758" lon="-3.40882">
        <ele>-8.77</ele>
        <time>2018-05-31T12:53:43Z</time>
      </trkpt>
      <trkpt lat="47.82761" lon="-3.40881">
        <ele>-8.7</ele>
        <time>2018-05-31T12:53:45Z</time>
      </trkpt>
      <trkpt lat="47.82766" lon="-3.40878">
        <ele>-8.59</ele>
        <time>2018-05-31T12:53:48Z</time>
      </trkpt>
      <trkpt lat="47.82771" lon="-3.40874">
        <ele>-8.44</ele>
        <time>2018-05-31T12:53:51Z</time>
      </trkpt>
      <trkpt lat="47.82779" lon="-3.40868">
        <ele>-8.22</ele>
        <time>2018-05-31T12:53:56Z</time>
      </trkpt>
      <trkpt lat="47.82786" lon="-3.40864">
        <ele>-8.13</ele>
        <time>2018-05-31T12:54:00Z</time>
      </trkpt>
      <trkpt lat="47.82797" lon="-3.40855">
        <ele>-7.95</ele>
        <time>2018-05-31T12:54:13Z</time>
      </trkpt>
      <trkpt lat="47.82797" lon="-3.40851">
        <ele>-7.84</ele>
        <time>2018-05-31T12:54:19Z</time>
      </trkpt>
      <trkpt lat="47.82801" lon="-3.40845">
        <ele>-7.86</ele>
        <time>2018-05-31T12:54:33Z</time>
      </trkpt>
      <trkpt lat="47.82804" lon="-3.40843">
        <ele>-7.89</ele>
        <time>2018-05-31T12:54:35Z</time>
      </trkpt>
      <trkpt lat="47.82819" lon="-3.40832">
        <ele>-7.74</ele>
        <time>2018-05-31T12:54:48Z</time>
      </trkpt>
      <trkpt lat="47.82826" lon="-3.40825">
        <ele>-7.67</ele>
        <time>2018-05-31T12:54:55Z</time>
      </trkpt>
      <trkpt lat="47.8283" lon="-3.4082">
        <ele>-7.54</ele>
        <time>2018-05-31T12:54:59Z</time>
      </trkpt>
      <trkpt lat="47.82838" lon="-3.4081">
        <ele>-7.59</ele>
        <time>2018-05-31T12:55:05Z</time>
      </trkpt>
      <trkpt lat="47.82841" lon="-3.40804">
        <ele>-7.72</ele>
        <time>2018-05-31T12:55:09Z</time>
      </trkpt>
      <trkpt lat="47.82849" lon="-3.40793">
        <ele>-7.75</ele>
        <time>2018-05-31T12:55:17Z</time>
      </trkpt>
      <trkpt lat="47.82853" lon="-3.40789">
        <ele>-7.73</ele>
        <time>2018-05-31T12:55:20Z</time>
      </trkpt>
      <trkpt lat="47.82862" lon="-3.40781">
        <ele>-7.58</ele>
        <time>2018-05-31T12:55:27Z</time>
      </trkpt>
      <trkpt lat="47.82867" lon="-3.40776">
        <ele>-7.55</ele>
        <time>2018-05-31T12:55:31Z</time>
      </trkpt>
      <trkpt lat="47.82875" lon="-3.40765">
        <ele>-7.59</ele>
        <time>2018-05-31T12:55:38Z</time>
      </trkpt>
      <trkpt lat="47.82891" lon="-3.40739">
        <ele>-7.7</ele>
        <time>2018-05-31T12:55:52Z</time>
      </trkpt>
      <trkpt lat="47.82901" lon="-3.40717">
        <ele>-7.59</ele>
        <time>2018-05-31T12:56:03Z</time>
      </trkpt>
      <trkpt lat="47.82907" lon="-3.4071">
        <ele>-7.5</ele>
        <time>2018-05-31T12:56:08Z</time>
      </trkpt>
      <trkpt lat="47.82909" lon="-3.40708">
        <ele>-7.48</ele>
        <time>2018-05-31T12:56:10Z</time>
      </trkpt>
      <trkpt lat="47.82924" lon="-3.40681">
        <ele>-6.96</ele>
        <time>2018-05-31T12:56:25Z</time>
      </trkpt>
      <trkpt lat="47.82945" lon="-3.4065">
        <ele>-6.71</ele>
        <time>2018-05-31T12:56:42Z</time>
      </trkpt>
      <trkpt lat="47.82961" lon="-3.40627">
        <ele>-6.45</ele>
        <time>2018-05-31T12:56:55Z</time>
      </trkpt>
      <trkpt lat="47.82977" lon="-3.40601">
        <ele>-5.93</ele>
        <time>2018-05-31T12:57:09Z</time>
      </trkpt>
      <trkpt lat="47.82996" lon="-3.40574">
        <ele>-5.54</ele>
        <time>2018-05-31T12:57:24Z</time>
      </trkpt>
      <trkpt lat="47.8301" lon="-3.40557">
        <ele>-4.83</ele>
        <time>2018-05-31T12:57:36Z</time>
      </trkpt>
      <trkpt lat="47.83013" lon="-3.40552">
        <ele>-4.57</ele>
        <time>2018-05-31T12:57:40Z</time>
      </trkpt>
      <trkpt lat="47.83018" lon="-3.40544">
        <ele>-4.35</ele>
        <time>2018-05-31T12:57:45Z</time>
      </trkpt>
      <trkpt lat="47.83019" lon="-3.40542">
        <ele>-4.26</ele>
        <time>2018-05-31T12:57:47Z</time>
      </trkpt>
      <trkpt lat="47.83025" lon="-3.40534">
        <ele>-3.97</ele>
        <time>2018-05-31T12:57:53Z</time>
      </trkpt>
      <trkpt lat="47.83039" lon="-3.40513">
        <ele>-2.98</ele>
        <time>2018-05-31T12:58:07Z</time>
      </trkpt>
      <trkpt lat="47.83044" lon="-3.40507">
        <ele>-2.78</ele>
        <time>2018-05-31T12:58:11Z</time>
      </trkpt>
      <trkpt lat="47.83058" lon="-3.40483">
        <ele>-2.08</ele>
        <time>2018-05-31T12:58:26Z</time>
      </trkpt>
      <trkpt lat="47.83059" lon="-3.40482">
        <ele>-2.03</ele>
        <time>2018-05-31T12:58:27Z</time>
      </trkpt>
      <trkpt lat="47.83062" lon="-3.40474">
        <ele>-1.85</ele>
        <time>2018-05-31T12:58:31Z</time>
      </trkpt>
      <trkpt lat="47.83065" lon="-3.4047">
        <ele>-1.67</ele>
        <time>2018-05-31T12:58:34Z</time>
      </trkpt>
      <trkpt lat="47.83069" lon="-3.40464">
        <ele>-1.53</ele>
        <time>2018-05-31T12:58:38Z</time>
      </trkpt>
      <trkpt lat="47.83077" lon="-3.40449">
        <ele>-1.14</ele>
        <time>2018-05-31T12:58:46Z</time>
      </trkpt>
      <trkpt lat="47.83096" lon="-3.4043">
        <ele>-0.63</ele>
        <time>2018-05-31T12:59:00Z</time>
      </trkpt>
      <trkpt lat="47.8312" lon="-3.40409">
        <ele>0.35</ele>
        <time>2018-05-31T12:59:15Z</time>
      </trkpt>
      <trkpt lat="47.83134" lon="-3.40394">
        <ele>0.9</ele>
        <time>2018-05-31T12:59:25Z</time>
      </trkpt>
      <trkpt lat="47.83149" lon="-3.40364">
        <ele>1.64</ele>
        <time>2018-05-31T12:59:43Z</time>
      </trkpt>
      <trkpt lat="47.83154" lon="-3.40348">
        <ele>1.96</ele>
        <time>2018-05-31T12:59:52Z</time>
      </trkpt>
      <trkpt lat="47.83156" lon="-3.40343">
        <ele>2.08</ele>
        <time>2018-05-31T12:59:55Z</time>
      </trkpt>
      <trkpt lat="47.8316" lon="-3.40306">
        <ele>2.93</ele>
        <time>2018-05-31T13:00:14Z</time>
      </trkpt>
      <trkpt lat="47.83163" lon="-3.40275">
        <ele>3.64</ele>
        <time>2018-05-31T13:00:28Z</time>
      </trkpt>
      <trkpt lat="47.83167" lon="-3.4024">
        <ele>4.37</ele>
        <time>2018-05-31T13:00:44Z</time>
      </trkpt>
      <trkpt lat="47.83169" lon="-3.40207">
        <ele>5.23</ele>
        <time>2018-05-31T13:00:59Z</time>
      </trkpt>
      <trkpt lat="47.83174" lon="-3.40167">
        <ele>5.9</ele>
        <time>2018-05-31T13:01:16Z</time>
      </trkpt>
      <trkpt lat="47.83177" lon="-3.40144">
        <ele>6.6</ele>
        <time>2018-05-31T13:01:27Z</time>
      </trkpt>
      <trkpt lat="47.8318" lon="-3.40138">
        <ele>6.84</ele>
        <time>2018-05-31T13:01:31Z</time>
      </trkpt>
      <trkpt lat="47.83179" lon="-3.40127">
        <ele>6.93</ele>
        <time>2018-05-31T13:01:36Z</time>
      </trkpt>
      <trkpt lat="47.8318" lon="-3.40123">
        <ele>6.91</ele>
        <time>2018-05-31T13:01:38Z</time>
      </trkpt>
      <trkpt lat="47.83173" lon="-3.401">
        <ele>6.76</ele>
        <time>2018-05-31T13:01:51Z</time>
      </trkpt>
      <trkpt lat="47.83169" lon="-3.40084">
        <ele>6.67</ele>
        <time>2018-05-31T13:01:59Z</time>
      </trkpt>
      <trkpt lat="47.83173" lon="-3.40079">
        <ele>6.48</ele>
        <time>2018-05-31T13:02:04Z</time>
      </trkpt>
      <trkpt lat="47.83179" lon="-3.40073">
        <ele>6.69</ele>
        <time>2018-05-31T13:02:10Z</time>
      </trkpt>
      <trkpt lat="47.83185" lon="-3.40066">
        <ele>7.23</ele>
        <time>2018-05-31T13:02:17Z</time>
      </trkpt>
      <trkpt lat="47.83197" lon="-3.40043">
        <ele>8.46</ele>
        <time>2018-05-31T13:02:33Z</time>
      </trkpt>
      <trkpt lat="47.83201" lon="-3.40036">
        <ele>8.68</ele>
        <time>2018-05-31T13:02:38Z</time>
      </trkpt>
      <trkpt lat="47.83201" lon="-3.39998">
        <ele>9.17</ele>
        <time>2018-05-31T13:02:54Z</time>
      </trkpt>
      <trkpt lat="47.832" lon="-3.39991">
        <ele>9.16</ele>
        <time>2018-05-31T13:02:58Z</time>
      </trkpt>
      <trkpt lat="47.83202" lon="-3.39963">
        <ele>8.86</ele>
        <time>2018-05-31T13:03:11Z</time>
      </trkpt>
      <trkpt lat="47.83206" lon="-3.39938">
        <ele>8.88</ele>
        <time>2018-05-31T13:03:23Z</time>
      </trkpt>
      <trkpt lat="47.8321" lon="-3.39926">
        <ele>8.98</ele>
        <time>2018-05-31T13:03:29Z</time>
      </trkpt>
      <trkpt lat="47.83212" lon="-3.39911">
        <ele>8.62</ele>
        <time>2018-05-31T13:03:35Z</time>
      </trkpt>
      <trkpt lat="47.8322" lon="-3.39881">
        <ele>8.3</ele>
        <time>2018-05-31T13:03:47Z</time>
      </trkpt>
      <trkpt lat="47.83221" lon="-3.39879">
        <ele>8.27</ele>
        <time>2018-05-31T13:03:48Z</time>
      </trkpt>
      <trkpt lat="47.83226" lon="-3.39864">
        <ele>8.05</ele>
        <time>2018-05-31T13:03:54Z</time>
      </trkpt>
      <trkpt lat="47.83229" lon="-3.3985">
        <ele>7.81</ele>
        <time>2018-05-31T13:04:01Z</time>
      </trkpt>
      <trkpt lat="47.83237" lon="-3.39817">
        <ele>6.81</ele>
        <time>2018-05-31T13:04:17Z</time>
      </trkpt>
      <trkpt lat="47.83244" lon="-3.39796">
        <ele>6.06</ele>
        <time>2018-05-31T13:04:25Z</time>
      </trkpt>
      <trkpt lat="47.83254" lon="-3.39775">
        <ele>4.54</ele>
        <time>2018-05-31T13:04:37Z</time>
      </trkpt>
      <trkpt lat="47.83255" lon="-3.39774">
        <ele>4.23</ele>
        <time>2018-05-31T13:04:39Z</time>
      </trkpt>
      <trkpt lat="47.83262" lon="-3.39764">
        <ele>3.58</ele>
        <time>2018-05-31T13:04:44Z</time>
      </trkpt>
      <trkpt lat="47.83268" lon="-3.39753">
        <ele>2.24</ele>
        <time>2018-05-31T13:04:50Z</time>
      </trkpt>
      <trkpt lat="47.83278" lon="-3.39732">
        <ele>1</ele>
        <time>2018-05-31T13:05:00Z</time>
      </trkpt>
      <trkpt lat="47.83281" lon="-3.39721">
        <ele>0.43</ele>
        <time>2018-05-31T13:05:05Z</time>
      </trkpt>
      <trkpt lat="47.83283" lon="-3.39718">
        <ele>0.17</ele>
        <time>2018-05-31T13:05:07Z</time>
      </trkpt>
      <trkpt lat="47.83285" lon="-3.39706">
        <ele>-0.36</ele>
        <time>2018-05-31T13:05:12Z</time>
      </trkpt>
      <trkpt lat="47.8329" lon="-3.39689">
        <ele>-1.35</ele>
        <time>2018-05-31T13:05:19Z</time>
      </trkpt>
      <trkpt lat="47.83294" lon="-3.39672">
        <ele>-2.34</ele>
        <time>2018-05-31T13:05:27Z</time>
      </trkpt>
      <trkpt lat="47.83305" lon="-3.39655">
        <ele>-3.62</ele>
        <time>2018-05-31T13:05:37Z</time>
      </trkpt>
      <trkpt lat="47.83311" lon="-3.39642">
        <ele>-4.54</ele>
        <time>2018-05-31T13:05:46Z</time>
      </trkpt>
      <trkpt lat="47.83326" lon="-3.39605">
        <ele>-7.66</ele>
        <time>2018-05-31T13:06:07Z</time>
      </trkpt>
      <trkpt lat="47.83338" lon="-3.39579">
        <ele>-10.1</ele>
        <time>2018-05-31T13:06:21Z</time>
      </trkpt>
      <trkpt lat="47.83352" lon="-3.39536">
        <ele>-12.91</ele>
        <time>2018-05-31T13:06:39Z</time>
      </trkpt>
      <trkpt lat="47.83353" lon="-3.39534">
        <ele>-13.02</ele>
        <time>2018-05-31T13:06:40Z</time>
      </trkpt>
      <trkpt lat="47.83358" lon="-3.39523">
        <ele>-13.51</ele>
        <time>2018-05-31T13:06:45Z</time>
      </trkpt>
      <trkpt lat="47.83359" lon="-3.39499">
        <ele>-14.19</ele>
        <time>2018-05-31T13:06:55Z</time>
      </trkpt>
      <trkpt lat="47.83356" lon="-3.39484">
        <ele>-14.45</ele>
        <time>2018-05-31T13:07:01Z</time>
      </trkpt>
      <trkpt lat="47.83356" lon="-3.39456">
        <ele>-14.8</ele>
        <time>2018-05-31T13:07:10Z</time>
      </trkpt>
      <trkpt lat="47.8336" lon="-3.39441">
        <ele>-15.12</ele>
        <time>2018-05-31T13:07:15Z</time>
      </trkpt>
      <trkpt lat="47.83366" lon="-3.39429">
        <ele>-16.22</ele>
        <time>2018-05-31T13:07:21Z</time>
      </trkpt>
      <trkpt lat="47.83383" lon="-3.39406">
        <ele>-19.5</ele>
        <time>2018-05-31T13:07:35Z</time>
      </trkpt>
      <trkpt lat="47.83396" lon="-3.39414">
        <ele>-21.88</ele>
        <time>2018-05-31T13:07:49Z</time>
      </trkpt>
      <trkpt lat="47.83408" lon="-3.39425">
        <ele>-25.06</ele>
        <time>2018-05-31T13:08:01Z</time>
      </trkpt>
      <trkpt lat="47.83417" lon="-3.39425">
        <ele>-28.23</ele>
        <time>2018-05-31T13:08:09Z</time>
      </trkpt>
      <trkpt lat="47.83439" lon="-3.39431">
        <ele>-31.64</ele>
        <time>2018-05-31T13:08:22Z</time>
      </trkpt>
      <trkpt lat="47.83456" lon="-3.39443">
        <ele>-32.62</ele>
        <time>2018-05-31T13:08:36Z</time>
      </trkpt>
      <trkpt lat="47.83462" lon="-3.39449">
        <ele>-32.66</ele>
        <time>2018-05-31T13:08:41Z</time>
      </trkpt>
      <trkpt lat="47.83475" lon="-3.39463">
        <ele>-32.48</ele>
        <time>2018-05-31T13:08:51Z</time>
      </trkpt>
      <trkpt lat="47.83479" lon="-3.3947">
        <ele>-32.35</ele>
        <time>2018-05-31T13:08:54Z</time>
      </trkpt>
      <trkpt lat="47.83499" lon="-3.39481">
        <ele>-31.81</ele>
        <time>2018-05-31T13:09:06Z</time>
      </trkpt>
      <trkpt lat="47.83508" lon="-3.39476">
        <ele>-31.85</ele>
        <time>2018-05-31T13:09:12Z</time>
      </trkpt>
      <trkpt lat="47.83511" lon="-3.39475">
        <ele>-31.85</ele>
        <time>2018-05-31T13:09:14Z</time>
      </trkpt>
      <trkpt lat="47.83521" lon="-3.39478">
        <ele>-31.69</ele>
        <time>2018-05-31T13:09:22Z</time>
      </trkpt>
      <trkpt lat="47.83526" lon="-3.39466">
        <ele>-31.6</ele>
        <time>2018-05-31T13:09:30Z</time>
      </trkpt>
      <trkpt lat="47.83538" lon="-3.39441">
        <ele>-32.25</ele>
        <time>2018-05-31T13:09:43Z</time>
      </trkpt>
      <trkpt lat="47.83541" lon="-3.39434">
        <ele>-32.35</ele>
        <time>2018-05-31T13:09:46Z</time>
      </trkpt>
      <trkpt lat="47.83544" lon="-3.39401">
        <ele>-32.36</ele>
        <time>2018-05-31T13:10:00Z</time>
      </trkpt>
      <trkpt lat="47.83555" lon="-3.39361">
        <ele>-32.55</ele>
        <time>2018-05-31T13:10:17Z</time>
      </trkpt>
      <trkpt lat="47.83554" lon="-3.39335">
        <ele>-31.95</ele>
        <time>2018-05-31T13:10:30Z</time>
      </trkpt>
      <trkpt lat="47.83551" lon="-3.39328">
        <ele>-31.12</ele>
        <time>2018-05-31T13:10:38Z</time>
      </trkpt>
      <trkpt lat="47.83549" lon="-3.39325">
        <ele>-31.24</ele>
        <time>2018-05-31T13:10:40Z</time>
      </trkpt>
      <trkpt lat="47.83543" lon="-3.39319">
        <ele>-31.46</ele>
        <time>2018-05-31T13:10:45Z</time>
      </trkpt>
      <trkpt lat="47.83538" lon="-3.39314">
        <ele>-31.3</ele>
        <time>2018-05-31T13:10:50Z</time>
      </trkpt>
      <trkpt lat="47.8352" lon="-3.39285">
        <ele>-31.01</ele>
        <time>2018-05-31T13:11:09Z</time>
      </trkpt>
      <trkpt lat="47.83504" lon="-3.39256">
        <ele>-30.1</ele>
        <time>2018-05-31T13:11:28Z</time>
      </trkpt>
      <trkpt lat="47.83492" lon="-3.39227">
        <ele>-30.54</ele>
        <time>2018-05-31T13:11:45Z</time>
      </trkpt>
      <trkpt lat="47.83484" lon="-3.39195">
        <ele>-31.21</ele>
        <time>2018-05-31T13:12:03Z</time>
      </trkpt>
      <trkpt lat="47.83473" lon="-3.39155">
        <ele>-31.25</ele>
        <time>2018-05-31T13:12:24Z</time>
      </trkpt>
      <trkpt lat="47.83454" lon="-3.3913">
        <ele>-32.81</ele>
        <time>2018-05-31T13:12:44Z</time>
      </trkpt>
      <trkpt lat="47.83438" lon="-3.39121">
        <ele>-33.42</ele>
        <time>2018-05-31T13:13:00Z</time>
      </trkpt>
      <trkpt lat="47.83439" lon="-3.39119">
        <ele>-33.34</ele>
        <time>2018-05-31T13:13:23Z</time>
      </trkpt>
      <trkpt lat="47.8344" lon="-3.39121">
        <ele>-33.19</ele>
        <time>2018-05-31T13:13:46Z</time>
      </trkpt>
      <trkpt lat="47.83434" lon="-3.3911">
        <ele>-33.34</ele>
        <time>2018-05-31T13:14:02Z</time>
      </trkpt>
      <trkpt lat="47.83433" lon="-3.3911">
        <ele>-32.6</ele>
        <time>2018-05-31T13:14:25Z</time>
      </trkpt>
      <trkpt lat="47.83433" lon="-3.39111">
        <ele>-32.62</ele>
        <time>2018-05-31T13:14:26Z</time>
      </trkpt>
    </trkseg>
  </trk>
</gpx>